[[{"header":{"parameterUnit":"m.s-1","parameterCategory":1,"la1":30.6,"la2":29.2853,"lo1":-89.7004,"lo2":-87.6739,"dy":0.0162,"dx":0.0183,"nx":112,"ny":82,"refTime":"2023-10-15T18:00:00:Z","depth":0,"parameterNumber":2,"parameterNumberName":"U-component_of_WINDS"},"data":[0.0,0.0,0.0,0.0,0.0,0.0,0.0,0.0,0.0,0.0,0.0,0.0,0.0,0.0,0.0,0.0,0.0,0.0,0.0,0.0,0.0,0.0,0.0,0.0,0.0,0.0,0.0,0.0,0.0,0.0,0.0,0.0,0.0,0.0,0.0,0.0,0.0,0.0,0.0,0.0,0.0,0.0,0.0,0.0,0.0,0.0,0.0,0.0,0.0,0.0,0.0,0.0,0.0,0.0,0.0,0.0,0.0,0.0,0.0,0.0,0.0,0.0,0.0,0.0,0.0,0.0,0.0,0.0,0.0,0.0,0.0,0.0,0.0,0.0,0.0,0.0,0.0,0.0,0.0,0.0,0.0,0.0,0.0,0.0,0.0,0.0,0.0,0.0,0.0,0.0,0.0,7.2606,8.593,9.4997,9.6722,9.496,8.872,7.7011,0.0,0.0,0.0,0.0,0.0,0.0,0.0,0.0,0.0,0.0,0.0,0.0,0.0,0.0,0.0,0.0,0.0,0.0,0.0,0.0,0.0,0.0,0.0,0.0,0.0,0.0,0.0,0.0,0.0,0.0,0.0,0.0,0.0,0.0,0.0,0.0,0.0,0.0,0.0,0.0,0.0,0.0,0.0,0.0,0.0,0.0,0.0,0.0,0.0,0.0,0.0,0.0,0.0,0.0,0.0,0.0,0.0,0.0,0.0,0.0,0.0,0.0,0.0,0.0,0.0,0.0,0.0,0.0,0.0,0.0,0.0,0.0,0.0,0.0,0.0,0.0,0.0,0.0,0.0,0.0,0.0,0.0,0.0,0.0,0.0,0.0,0.0,0.0,0.0,0.0,0.0,0.0,0.0,0.0,0.0,0.0,0.0,0.0,0.0,0.0,0.0,0.0,0.0,0.0,6.7136,8.1085,8.9601,9.5217,9.753,9.3675,8.7142,7.7745,0.0,0.0,0.0,0.0,0.0,0.0,0.0,0.0,0.0,0.0,0.0,0.0,0.0,0.0,0.0,0.0,0.0,0.0,0.0,0.0,0.0,0.0,0.0,0.0,0.0,0.0,0.0,0.0,0.0,0.0,0.0,0.0,0.0,0.0,0.0,0.0,0.0,0.0,0.0,0.0,0.0,0.0,0.0,0.0,0.0,0.0,0.0,0.0,0.0,0.0,0.0,0.0,0.0,0.0,0.0,0.0,0.0,0.0,0.0,0.0,0.0,0.0,0.0,0.0,0.0,0.0,0.0,0.0,0.0,0.0,0.0,0.0,0.0,0.0,0.0,0.0,0.0,0.0,0.0,0.0,0.0,0.0,0.0,0.0,0.0,0.0,0.0,0.0,0.0,0.0,0.0,0.0,0.0,0.0,0.0,0.0,0.0,0.0,0.0,0.0,0.0,0.0,0.0,6.6402,7.3523,8.5894,9.2244,9.6208,9.775,9.463,8.861,7.925,7.4441,0.0,0.0,0.0,0.0,0.0,0.0,0.0,0.0,0.0,0.0,0.0,0.0,0.0,0.0,0.0,0.0,0.0,0.0,0.0,0.0,0.0,0.0,0.0,0.0,0.0,0.0,0.0,0.0,0.0,0.0,0.0,0.0,0.0,0.0,0.0,0.0,0.0,0.0,0.0,0.0,0.0,0.0,0.0,0.0,0.0,0.0,0.0,0.0,0.0,0.0,0.0,0.0,0.0,0.0,0.0,0.0,0.0,0.0,0.0,0.0,0.0,0.0,0.0,0.0,0.0,0.0,0.0,0.0,0.0,0.0,0.0,0.0,0.0,0.0,0.0,0.0,0.0,0.0,0.0,0.0,0.0,0.0,0.0,0.0,0.0,0.0,0.0,0.0,0.0,0.0,0.0,0.0,0.0,0.0,0.0,0.0,0.0,0.0,0.0,0.0,0.0,0.0,7.3927,7.9764,8.8757,9.3896,9.7016,9.7823,9.463,8.8904,8.0314,7.4147,0.0,0.0,0.0,0.0,0.0,0.0,0.0,0.0,0.0,0.0,0.0,0.0,0.0,0.0,0.0,0.0,0.0,0.0,0.0,0.0,0.0,0.0,0.0,0.0,0.0,0.0,0.0,0.0,0.0,0.0,0.0,0.0,0.0,0.0,0.0,0.0,0.0,0.0,0.0,0.0,0.0,0.0,0.0,0.0,0.0,0.0,0.0,0.0,0.0,0.0,0.0,0.0,0.0,0.0,0.0,0.0,0.0,0.0,0.0,0.0,0.0,0.0,0.0,0.0,0.0,0.0,0.0,0.0,0.0,0.0,0.0,0.0,0.0,0.0,0.0,0.0,0.0,0.0,0.0,0.0,0.0,0.0,0.0,0.0,0.0,0.0,0.0,0.0,0.0,0.0,0.0,0.0,0.0,0.0,0.0,0.0,0.0,0.0,0.0,0.0,0.0,0.0,7.5322,8.3141,8.9821,9.4226,9.7016,9.7823,9.151,8.5306,8.0131,7.0991,0.0,0.0,0.0,0.0,0.0,0.0,0.0,0.0,0.0,0.0,0.0,0.0,0.0,0.0,0.0,0.0,0.0,0.0,0.0,0.0,0.0,0.0,0.0,0.0,0.0,0.0,0.0,0.0,0.0,0.0,0.0,0.0,0.0,0.0,0.0,0.0,0.0,0.0,0.0,0.0,0.0,0.0,0.0,0.0,0.0,0.0,0.0,0.0,0.0,0.0,0.0,0.0,0.0,0.0,0.0,0.0,0.0,0.0,0.0,0.0,0.0,0.0,0.0,0.0,0.0,0.0,0.0,0.0,0.0,0.0,0.0,0.0,0.0,0.0,0.0,0.0,0.0,0.0,0.0,0.0,0.0,0.0,0.0,0.0,0.0,0.0,0.0,0.0,0.0,0.0,0.0,0.0,0.0,0.0,0.0,0.0,0.0,0.0,0.0,0.0,0.0,0.0,7.6423,8.3875,0.0,9.4887,9.6832,9.7126,9.3712,8.8169,8.0277,0.0,0.0,0.0,0.0,0.0,0.0,0.0,0.0,0.0,0.0,0.0,0.0,0.0,0.0,0.0,0.0,0.0,0.0,0.0,0.0,0.0,0.0,0.0,0.0,0.0,0.0,0.0,0.0,0.0,0.0,0.0,0.0,0.0,0.0,0.0,0.0,0.0,0.0,0.0,0.0,0.0,0.0,0.0,0.0,0.0,0.0,0.0,0.0,0.0,0.0,0.0,0.0,0.0,0.0,0.0,0.0,0.0,0.0,0.0,0.0,0.0,0.0,0.0,0.0,0.0,0.0,0.0,0.0,0.0,0.0,0.0,0.0,0.0,0.0,0.0,0.0,0.0,0.0,0.0,0.0,0.0,0.0,0.0,0.0,0.0,0.0,0.0,0.0,0.0,0.0,0.0,0.0,0.0,0.0,0.0,0.0,0.0,0.0,0.0,0.0,0.0,0.0,7.0367,7.7671,8.4976,0.0,9.5474,9.6979,9.6722,9.3565,8.8096,7.991,0.0,0.0,0.0,0.0,0.0,0.0,0.0,0.0,0.0,0.0,0.0,0.0,0.0,0.0,0.0,0.0,0.0,0.0,0.0,0.0,0.0,0.0,0.0,0.0,0.0,0.0,0.0,0.0,0.0,0.0,0.0,0.0,0.0,0.0,0.0,0.0,0.0,0.0,0.0,0.0,0.0,0.0,0.0,0.0,0.0,0.0,0.0,0.0,0.0,0.0,0.0,0.0,0.0,0.0,0.0,0.0,0.0,0.0,0.0,0.0,0.0,0.0,0.0,0.0,0.0,0.0,0.0,0.0,0.0,0.0,0.0,0.0,0.0,0.0,0.0,0.0,0.0,0.0,0.0,0.0,0.0,0.0,0.0,0.0,0.0,0.0,0.0,0.0,0.0,0.0,0.0,0.0,0.0,0.0,0.0,0.0,0.0,0.0,0.0,0.0,0.0,0.0,7.0587,7.9103,8.6811,9.2501,9.5988,9.7566,9.6759,9.0041,8.3765,0.0,0.0,0.0,0.0,0.0,0.0,0.0,0.0,0.0,0.0,0.0,0.0,0.0,0.0,0.0,0.0,0.0,0.0,0.0,0.0,0.0,0.0,0.0,0.0,0.0,0.0,0.0,0.0,0.0,0.0,0.0,0.0,0.0,0.0,0.0,0.0,0.0,0.0,0.0,0.0,0.0,0.0,0.0,0.0,0.0,0.0,0.0,0.0,0.0,0.0,0.0,0.0,0.0,0.0,0.0,0.0,0.0,0.0,0.0,0.0,0.0,0.0,0.0,0.0,0.0,0.0,0.0,0.0,0.0,0.0,0.0,0.0,0.0,0.0,0.0,0.0,0.0,0.0,0.0,0.0,0.0,0.0,0.0,0.0,0.0,0.0,0.0,0.0,0.0,0.0,0.0,0.0,0.0,0.0,0.0,0.0,0.0,0.0,0.0,0.0,0.0,0.0,0.0,7.1358,7.9433,8.6995,9.3272,9.5804,9.6942,9.6722,9.2611,8.6738,7.9066,0.0,0.0,0.0,0.0,0.0,0.0,0.0,0.0,0.0,0.0,0.0,0.0,0.0,0.0,0.0,0.0,0.0,0.0,0.0,0.0,0.0,0.0,0.0,0.0,0.0,0.0,0.0,0.0,0.0,0.0,0.0,0.0,0.0,0.0,0.0,0.0,0.0,0.0,0.0,0.0,0.0,0.0,0.0,0.0,0.0,0.0,0.0,0.0,0.0,0.0,0.0,0.0,0.0,0.0,0.0,0.0,0.0,0.0,0.0,0.0,0.0,0.0,0.0,0.0,0.0,0.0,0.0,0.0,0.0,0.0,0.0,0.0,0.0,0.0,0.0,0.0,0.0,0.0,0.0,0.0,0.0,0.0,0.0,0.0,0.0,0.0,0.0,0.0,0.0,0.0,0.0,0.0,0.0,0.0,0.0,0.0,0.0,0.0,0.0,0.0,0.0,0.0,7.1651,7.9323,8.6628,9.3125,9.5254,9.6355,9.6685,9.3675,8.7876,7.8662,0.0,0.0,0.0,0.0,0.0,0.0,0.0,0.0,0.0,0.0,0.0,0.0,0.0,0.0,0.0,0.0,0.0,0.0,0.0,0.0,0.0,0.0,0.0,0.0,0.0,0.0,0.0,0.0,0.0,0.0,0.0,0.0,0.0,0.0,0.0,0.0,0.0,0.0,0.0,0.0,0.0,0.0,0.0,0.0,0.0,0.0,0.0,0.0,0.0,0.0,0.0,0.0,0.0,0.0,0.0,0.0,0.0,0.0,0.0,0.0,0.0,0.0,0.0,0.0,0.0,0.0,0.0,0.0,0.0,0.0,0.0,0.0,0.0,0.0,0.0,0.0,0.0,0.0,0.0,0.0,0.0,0.0,0.0,0.0,0.0,0.0,0.0,0.0,0.0,0.0,0.0,0.0,0.0,0.0,0.0,0.0,0.0,0.0,0.0,0.0,0.0,0.0,7.1688,7.8883,8.5857,9.2281,9.441,9.5731,9.6539,9.3565,8.7692,7.8369,0.0,0.0,0.0,0.0,0.0,0.0,0.0,0.0,0.0,0.0,0.0,0.0,0.0,0.0,0.0,0.0,0.0,0.0,0.0,0.0,0.0,0.0,0.0,0.0,0.0,0.0,0.0,0.0,0.0,0.0,0.0,0.0,0.0,0.0,0.0,0.0,0.0,0.0,0.0,0.0,0.0,0.0,0.0,0.0,0.0,0.0,0.0,0.0,0.0,0.0,0.0,0.0,0.0,0.0,0.0,0.0,0.0,0.0,0.0,0.0,5.8455,0.0,0.0,0.0,0.0,0.0,0.0,0.0,0.0,0.0,0.0,0.0,0.0,0.0,0.0,0.0,0.0,0.0,0.0,0.0,0.0,0.0,0.0,0.0,0.0,0.0,0.0,0.0,0.0,0.0,0.0,0.0,0.0,0.0,0.0,0.0,0.0,0.0,0.0,0.0,0.0,0.0,7.1762,7.8883,8.5637,9.1473,9.3565,9.4887,9.5694,9.2758,8.8096,8.1562,7.5139,0.0,0.0,0.0,0.0,0.0,0.0,0.0,0.0,0.0,0.0,0.0,0.0,0.0,0.0,0.0,0.0,0.0,0.0,0.0,0.0,0.0,0.0,0.0,0.0,0.0,0.0,0.0,0.0,0.0,0.0,0.0,0.0,0.0,0.0,0.0,0.0,0.0,0.0,0.0,0.0,0.0,0.0,0.0,0.0,0.0,0.0,0.0,0.0,0.0,0.0,0.0,0.0,0.0,0.0,0.0,0.0,0.0,0.0,0.0,0.0,6.1874,0.0,0.0,0.0,0.0,0.0,0.0,0.0,0.0,0.0,0.0,0.0,0.0,0.0,0.0,0.0,0.0,0.0,0.0,0.0,0.0,0.0,0.0,0.0,0.0,0.0,0.0,0.0,0.0,0.0,0.0,0.0,0.0,0.0,0.0,0.0,0.0,0.0,0.0,0.0,0.0,7.2312,7.8772,8.4976,9.0629,9.3051,9.4483,9.4887,9.3015,8.9234,8.3177,7.7378,0.0,0.0,0.0,0.0,0.0,0.0,0.0,0.0,0.0,0.0,0.0,0.0,0.0,0.0,0.0,0.0,0.0,0.0,0.0,0.0,0.0,0.0,0.0,0.0,0.0,0.0,0.0,0.0,0.0,0.0,0.0,0.0,0.0,0.0,0.0,0.0,0.0,0.0,0.0,0.0,0.0,0.0,0.0,0.0,0.0,0.0,0.0,0.0,0.0,0.0,0.0,0.0,0.0,7.1541,7.2426,7.2779,7.2755,7.2679,7.2497,7.0004,6.7697,6.5718,0.0,0.0,0.0,0.0,0.0,0.0,0.0,0.0,0.0,0.0,0.0,0.0,0.0,0.0,0.0,0.0,0.0,0.0,0.0,0.0,0.0,0.0,0.0,0.0,0.0,6.2144,6.1117,5.6969,0.0,0.0,0.0,0.0,0.0,0.0,0.0,0.0,0.0,0.0,0.0,7.2312,7.8405,8.4242,8.9601,9.2391,9.3932,9.4079,9.3345,9.0482,8.4829,8.0388,7.4735,0.0,0.0,0.0,0.0,0.0,0.0,0.0,0.0,0.0,0.0,0.0,0.0,0.0,0.0,0.0,0.0,0.0,0.0,0.0,0.0,0.0,0.0,0.0,0.0,0.0,0.0,0.0,0.0,0.0,0.0,0.0,0.0,5.7965,5.9111,0.0,0.0,0.0,0.0,0.0,0.0,0.0,0.0,0.0,0.0,0.0,0.0,0.0,6.8495,7.0036,7.3817,7.5542,7.5175,7.8846,7.9902,7.8661,7.9274,8.0188,8.1193,8.1538,0.0,6.991,6.8105,0.0,0.0,0.0,0.0,0.0,0.0,0.0,0.0,0.0,0.0,0.0,0.0,0.0,0.0,0.0,0.0,0.0,0.0,0.0,0.0,0.0,0.0,6.3503,6.3723,6.431,6.4457,0.0,6.075,5.8621,5.7703,5.6014,0.0,0.0,0.0,0.0,0.0,0.0,0.0,7.0183,7.7378,8.3801,8.8059,9.0665,9.2427,9.3198,9.2464,9.1033,8.8757,8.3508,7.8772,7.4845,6.8128,0.0,0.0,0.0,0.0,0.0,0.0,0.0,0.0,0.0,0.0,0.0,0.0,0.0,0.0,0.0,0.0,0.0,0.0,0.0,0.0,0.0,0.0,0.0,0.0,0.0,0.0,0.0,0.0,0.0,6.0089,6.2093,6.024,6.2567,6.3198,0.0,0.0,0.0,0.0,0.0,0.0,0.0,0.0,0.0,7.0477,7.301,7.4918,7.6056,7.9617,8.215,8.3618,8.6343,8.7452,8.7183,8.7886,8.8539,8.91,8.9343,8.7302,8.3247,7.7054,7.2761,6.9657,0.0,0.0,0.0,0.0,6.2732,6.2915,6.4714,6.5338,0.0,6.5411,0.0,0.0,0.0,0.0,0.0,0.0,0.0,0.0,0.0,0.0,6.8825,6.8825,6.9779,7.0477,6.9669,6.6953,6.3723,0.0,5.9942,5.9612,5.8951,0.0,0.0,0.0,0.0,6.7504,7.2202,7.8699,8.4425,8.8463,9.1069,9.2501,9.2391,9.2464,9.184,9.0188,8.6518,8.2517,7.8332,7.3817,6.8898,0.0,0.0,0.0,0.0,0.0,0.0,0.0,0.0,0.0,0.0,0.0,0.0,0.0,0.0,0.0,0.0,0.0,0.0,0.0,0.0,0.0,0.0,0.0,0.0,0.0,0.0,0.0,0.0,6.3943,6.6086,6.2459,6.6322,6.7266,0.0,0.0,0.0,0.0,0.0,0.0,7.0844,7.2606,7.4588,7.7011,8.0057,8.226,8.3471,8.6715,8.944,9.1583,9.3705,9.4846,9.5221,9.6072,9.6356,9.6189,9.6021,9.5711,9.4634,8.5517,7.9848,7.649,7.2014,6.9235,6.7797,6.8203,6.7973,6.7797,7.0183,7.0881,7.0569,6.9573,6.8373,6.6625,6.2598,0.0,0.0,0.0,0.0,6.5705,6.732,7.055,7.3597,7.4221,7.5432,7.6313,7.5689,7.3523,7.0,0.0,6.3466,6.3246,6.163,0.0,0.0,0.0,0.0,6.8421,7.3634,7.9617,8.4792,8.8426,9.1179,9.2501,9.184,9.2391,9.2244,9.0996,8.905,8.6151,8.2113,7.9176,7.4331,6.732,0.0,0.0,0.0,0.0,0.0,0.0,0.0,0.0,0.0,0.0,0.0,0.0,0.0,0.0,0.0,0.0,0.0,0.0,0.0,0.0,0.0,0.0,0.0,0.0,0.0,0.0,0.0,0.0,0.0,6.7752,7.3008,0.0,0.0,0.0,0.0,6.8458,7.0,7.2642,7.668,7.8479,8.1489,8.6187,8.872,9.1143,9.3529,9.6825,9.816,9.7456,10.0788,10.1934,10.112,10.2775,10.2999,10.2211,10.2212,10.1212,9.9096,9.0556,8.5696,8.3181,7.8175,7.5384,7.4226,7.3504,7.3252,7.3303,7.345,7.301,7.2831,7.5676,7.4956,7.2285,6.8468,6.7247,0.0,0.0,6.6843,6.9045,7.066,7.3487,7.6497,7.8846,8.0094,8.0681,8.0645,7.991,7.69,0.0,6.4934,6.3099,6.3796,0.0,6.2548,6.2732,6.6806,7.0513,7.2386,7.8956,8.4389,8.6848,8.9968,9.184,9.1803,9.184,9.184,9.173,9.0922,8.9638,8.7839,8.3985,7.9874,7.5579,6.9449,0.0,0.0,0.0,0.0,0.0,0.0,0.0,0.0,0.0,0.0,0.0,0.0,0.0,0.0,0.0,0.0,0.0,0.0,0.0,0.0,0.0,0.0,0.0,0.0,0.0,0.0,0.0,0.0,7.8398,8.3326,0.0,0.0,7.4896,7.4421,7.5823,7.7892,8.1085,8.5637,8.8904,9.2199,9.5558,9.8045,9.9959,10.1415,10.3099,10.3813,10.3522,10.5706,10.6083,10.4714,10.6404,10.6429,10.502,10.502,10.4405,10.2981,9.9481,9.5098,9.0135,8.5548,8.296,8.1694,8.0923,8.0265,8.004,8.1079,8.1265,8.0748,7.9104,7.6279,7.3044,7.0636,6.9953,7.011,7.0587,7.2459,7.4698,7.635,7.8772,8.1012,8.1929,8.2333,8.2553,8.2553,8.1929,8.0351,7.69,7.2753,6.9412,6.8164,6.6402,6.5705,6.7247,6.9412,7.2239,7.5946,8.0534,8.4719,8.8206,9.0041,9.1253,9.1767,9.1803,9.1583,9.1069,9.0776,8.9674,8.7509,8.5049,8.1342,7.6203,7.2312,6.8495,0.0,0.0,0.0,0.0,0.0,0.0,0.0,0.0,0.0,0.0,0.0,0.0,0.0,0.0,0.0,0.0,0.0,0.0,0.0,0.0,0.0,0.0,0.0,0.0,0.0,0.0,8.5204,8.6518,9.1974,9.3226,8.7003,8.4379,8.3748,8.5445,8.6979,8.9889,9.4515,9.7617,10.0275,10.2802,10.4788,10.618,10.704,10.8113,10.847,10.8226,10.9909,10.9901,10.8627,10.9988,10.9906,10.8521,10.8213,10.7482,10.629,10.5482,10.2397,9.7806,9.3287,9.0623,8.9204,8.8103,8.7168,8.6611,8.7136,8.7247,8.6651,8.337,8.016,7.7279,7.5733,7.5088,7.5139,7.5946,7.7892,8.0021,8.1122,8.3214,8.5013,8.5013,8.5013,8.5013,8.5013,8.4389,8.3581,8.2774,7.9103,7.5395,7.2936,7.0991,7.0367,7.2239,7.2753,7.4588,7.9213,8.215,8.5159,8.8647,8.9968,9.0922,9.173,9.1803,9.1326,9.0262,8.9931,8.872,8.6297,8.5416,8.2737,7.7855,7.323,6.8752,6.442,0.0,0.0,0.0,0.0,0.0,0.0,0.0,0.0,0.0,0.0,0.0,0.0,0.0,0.0,0.0,0.0,0.0,0.0,0.0,0.0,0.0,0.0,0.0,7.3881,8.3276,9.0454,9.1914,9.8781,10.1384,9.6394,9.5234,9.5507,9.705,9.7134,9.891,10.3,10.397,10.5538,10.7999,10.8755,10.9586,11.0417,11.2034,11.2414,11.1474,11.3304,11.3587,11.2786,11.3672,11.3599,11.2714,11.1906,11.0598,10.8906,10.8098,10.729,10.5905,10.0904,9.805,9.6501,9.47,9.3639,9.2776,9.1151,9.0456,9.0073,8.8653,8.6958,8.5285,8.3917,8.2941,8.2186,8.1415,8.2884,8.4719,8.4719,8.6481,8.8243,8.8243,8.8243,8.8243,8.8243,8.7619,8.6848,8.604,8.3361,8.0461,7.7965,7.6827,7.657,7.7341,7.679,0.0,8.1746,8.3654,8.5563,8.8023,8.9711,9.0959,9.1767,9.1803,9.1069,8.9417,8.85,8.6958,8.4572,8.5196,8.4058,8.0865,7.2239,6.5375,6.0603,0.0,0.0,0.0,0.0,0.0,0.0,0.0,0.0,0.0,0.0,0.0,0.0,0.0,0.0,0.0,0.0,0.0,0.0,0.0,0.0,0.0,0.0,7.9948,8.2132,9.117,9.9036,10.2883,10.8422,11.0711,10.752,10.5901,10.5008,10.4869,10.587,10.727,10.9114,11.111,11.242,11.3109,11.4041,11.4468,11.4676,11.5217,11.5006,11.4208,11.5924,11.5701,11.3719,11.5086,11.4984,11.3599,11.3407,11.2406,11.0791,11.0521,10.9213,10.7021,10.3789,10.1902,10.0701,9.8388,9.7086,9.6257,9.5105,9.4681,9.433,9.2678,9.0707,8.8857,8.7781,8.6669,8.5637,8.5416,8.6261,8.7215,8.7215,8.8133,8.9087,8.9087,8.9087,8.9087,8.9087,8.8904,8.85,8.7692,8.7325,8.5967,8.237,8.1048,8.0608,8.0828,8.0645,0.0,8.3654,8.4829,8.6628,8.9638,9.0849,9.1803,9.2684,9.162,8.9748,8.6958,8.4939,8.3287,8.2039,8.1085,7.9323,7.6644,7.1872,6.7907,0.0,0.0,0.0,0.0,0.0,0.0,0.0,0.0,0.0,0.0,0.0,0.0,0.0,0.0,0.0,0.0,0.0,0.0,0.0,0.0,0.0,0.0,8.354,8.9883,9.4383,9.9704,10.509,11.0379,11.4809,11.7239,11.6902,11.5038,11.3668,11.357,11.3809,11.4313,11.5195,11.6219,11.7102,11.7782,11.7699,11.7719,11.8012,11.7683,11.7407,11.6907,11.7907,11.76,11.6215,11.6792,11.6484,11.5599,11.4791,11.3984,11.3099,11.2714,11.1714,0.0,0.0,0.0,0.0,0.0,9.9759,9.8648,9.815,9.7708,9.7173,9.6172,9.4287,9.2307,9.1423,9.0143,8.8867,8.8206,8.883,8.9638,8.9307,8.9821,9.0408,9.0408,9.0702,9.0849,9.0482,9.0702,9.0702,8.9858,8.9821,0.0,8.6848,8.5196,8.4315,8.4646,8.3838,8.4022,8.6334,8.6444,8.7399,9.0298,9.1033,9.1657,9.2464,9.1363,0.0,0.0,0.0,8.1893,8.0057,7.8405,0.0,0.0,0.0,6.9926,6.7504,6.6219,0.0,0.0,5.9967,5.8906,0.0,0.0,0.0,0.0,0.0,0.0,0.0,0.0,0.0,0.0,0.0,0.0,0.0,0.0,0.0,0.0,9.3135,10.051,10.8004,10.8712,11.041,11.5528,11.8995,12.1908,12.4216,12.2291,12.1313,12.1982,12.0697,12.0217,12.1027,0.0,0.0,0.0,0.0,11.9784,12.0429,11.9708,11.9292,11.9215,11.9292,11.9292,11.91,11.8407,11.8023,11.7907,11.6292,11.5484,11.5407,11.4484,11.4099,11.3599,10.9598,10.6982,10.529,10.3482,10.1904,10.0596,10.0404,0.0,0.0,9.8981,9.7387,9.5437,9.461,9.3364,9.1875,9.0372,9.0996,9.1913,9.1216,9.1546,9.206,9.206,9.2684,9.3015,9.2244,9.2611,9.2868,9.2097,9.1289,9.0739,9.0739,8.883,8.7509,8.8243,8.6518,8.6187,8.905,8.8243,8.828,9.0519,0.0,0.0,9.1877,9.1143,8.9234,8.6004,8.4132,8.1819,7.8846,7.7304,7.613,7.5322,7.3744,7.1725,6.9302,6.8568,6.776,6.688,6.5264,6.3649,0.0,0.0,0.0,0.0,0.0,0.0,0.0,0.0,0.0,0.0,0.0,0.0,0.0,0.0,0.0,9.2383,9.9908,10.7399,11.4766,11.8106,11.9878,12.0302,12.3407,12.5678,12.6101,12.5811,12.553,12.5722,12.5377,12.5301,12.548,12.4597,12.4021,12.351,12.2576,12.1897,12.1313,12.1206,12.0793,12.01,0.0,0.0,11.91,11.96,11.9485,11.8792,11.7792,11.6907,11.6176,11.5407,11.4599,11.3714,11.0791,10.9098,10.7905,10.5482,10.4405,10.3905,10.2597,10.152,10.0712,10.0096,9.8691,9.7083,9.6268,9.5419,0.0,9.3602,9.3565,9.3786,9.3602,9.3712,9.3822,9.3822,9.3932,9.4006,9.3859,9.3455,9.3051,9.2868,9.217,9.1583,9.1583,9.0115,8.9014,8.916,8.8793,8.872,8.9344,8.9711,9.0372,9.151,9.2244,9.2684,9.2831,9.1473,8.9234,8.6004,8.3067,8.0901,7.9617,7.925,7.8699,7.7892,7.624,7.4221,7.1798,7.1651,7.0807,6.9339,6.7724,6.6476,0.0,0.0,0.0,0.0,0.0,0.0,0.0,0.0,0.0,0.0,0.0,7.823,0.0,0.0,9.4304,10.1835,10.8614,11.4833,12.0169,12.3909,12.5619,12.4314,12.5979,12.7602,12.8486,12.8602,12.8602,12.8602,12.8602,12.8409,12.7986,12.7101,12.6606,12.6599,12.5415,12.4608,12.4092,12.3724,12.3293,12.2908,12.2908,12.2408,12.16,12.11,12.0485,11.9715,11.8792,11.8215,11.7792,11.7407,11.6715,11.5715,11.3984,11.2291,11.0521,10.8406,10.7405,10.679,10.5597,10.4289,10.3097,10.2712,10.1494,9.9972,9.8743,9.7867,9.6951,9.5369,9.4887,9.4813,9.441,9.4299,9.4299,9.4299,9.4593,9.4777,9.4373,9.4299,9.4189,9.3786,9.3345,9.3051,9.3051,9.2391,9.1583,9.0739,9.0262,9.0152,9.0555,9.0592,9.0922,9.1767,9.2207,9.2648,9.3051,9.1216,8.8977,8.6554,8.4132,8.2443,8.1636,8.1599,8.1232,8.0424,7.958,7.8552,7.7341,7.7341,7.6533,7.4918,7.4551,7.2386,0.0,0.0,0.0,0.0,0.0,0.0,0.0,0.0,7.684,8.0197,8.2718,8.6214,9.2504,9.8025,10.3933,11.0815,11.6599,12.1485,12.4909,12.7794,12.9294,12.8294,12.8602,12.941,13.0794,13.0987,13.091,13.0718,13.0718,13.041,12.9717,12.8909,12.8717,12.941,12.7986,12.7178,12.7178,12.6486,12.6101,12.5909,12.5216,12.4716,12.4293,12.2985,12.1908,12.0985,11.9985,11.9408,11.91,11.91,11.8715,11.7984,11.71,11.5484,11.3407,11.1406,11.0098,10.929,10.8482,10.7098,10.5597,10.5597,10.461,10.3105,10.1708,10.0593,9.9382,9.7248,9.6323,9.5841,9.518,9.4997,9.496,9.4813,9.5511,9.5988,9.518,9.5401,9.5584,9.507,9.463,9.441,9.4703,9.452,9.3822,9.2501,9.173,9.1546,9.2207,9.173,9.1583,9.2207,9.2281,9.2574,9.3272,9.1363,8.9491,8.8023,8.6591,8.5416,8.4609,8.4425,8.4095,8.3618,8.3434,8.3287,8.3141,8.3141,8.2223,8.0498,8.1305,7.8552,7.684,7.5018,7.3383,7.4142,7.5663,7.8288,0.0,0.0,8.8154,9.1295,9.4521,9.7712,10.0787,10.6169,11.1588,11.6201,12.1284,12.5909,12.9294,13.0718,13.191,13.3295,13.2795,13.2487,13.2679,13.2679,13.241,13.1602,13.1602,13.1487,13.141,13.0679,13.0294,13.041,12.941,12.8909,12.8909,12.8794,12.8409,12.7602,12.7525,12.6717,12.5216,12.5101,12.4486,12.3601,12.1985,12.0485,11.91,11.91,11.8985,11.8908,11.7984,11.7484,11.6792,11.3599,11.1906,11.1098,11.0214,10.879,10.7405,10.7405,10.6787,10.5772,10.4911,10.3491,10.2122,10.1203,9.9316,9.7603,9.7493,9.7493,9.7309,9.6612,9.7603,9.8484,9.7676,9.7016,9.6759,9.7383,9.5768,9.474,9.6171,9.5254,9.4226,9.4042,9.3932,9.3932,9.4006,9.3932,9.3932,9.4006,9.4006,9.4042,9.4153,9.3272,9.2281,9.1326,9.0408,8.9564,8.8793,8.8059,8.7949,8.861,8.7912,8.7178,8.6481,8.6481,8.527,8.303,8.3838,8.226,7.764,7.7444,0.0,0.0,8.2222,8.654,9.0406,9.2678,9.506,9.8865,10.2289,10.5905,10.9906,11.4407,11.86,0.0,12.6409,12.9679,13.1679,13.2679,13.3487,13.4218,13.3487,13.318,13.368,13.3795,13.3603,13.3218,13.2679,13.2487,13.2487,13.1679,13.1179,13.1179,13.0794,13.041,12.9987,12.9987,12.9794,12.941,12.8909,12.8294,12.7602,12.7101,12.6101,12.4793,12.4101,12.2908,12.1293,12.1293,12.0716,11.9715,11.8908,11.8215,11.7523,11.5099,11.3984,11.3483,11.2099,11.0906,10.979,10.929,10.8598,10.7582,10.6289,10.5118,10.3778,10.2017,10.0527,9.9181,9.8704,9.8594,9.8521,9.819,9.8631,9.9145,9.9255,9.8668,9.8337,9.9145,9.8484,9.786,9.808,9.7933,9.764,9.7163,9.5511,9.4299,9.4299,9.4299,9.4299,9.4299,9.4703,9.4813,9.4336,9.441,9.3932,9.2648,9.2244,9.1693,9.0849,9.0482,9.0225,9.0115,8.9784,8.9197,8.8426,8.8426,8.7655,8.6187,8.6554,8.5967,7.8252,0.0,0.0,8.3716,8.8998,9.4672,9.7211,9.9827,10.2789,10.6597,11.0098,11.3714,11.7792,12.1408,0.0,12.7602,13.091,13.341,13.4295,13.468,13.4795,13.4411,13.3103,13.2603,13.3487,13.4218,13.4487,13.4295,13.391,13.3603,13.341,13.2487,13.2102,13.2102,13.1795,13.141,13.0794,13.0794,13.0794,13.0794,13.0217,12.9794,12.9487,12.8717,12.7294,12.5794,12.5794,12.4793,12.3216,12.3024,12.2216,12.0908,11.9792,11.8908,11.7984,11.6484,11.5715,11.5099,11.3599,11.2522,11.1714,11.1098,11.0483,10.9694,10.8232,10.7078,10.5811,10.3463,10.1917,10.0796,10.0209,10.0099,10.0026,9.9805,10.0099,10.0503,10.0907,10.0503,10.0319,10.109,10.0907,10.0613,10.0393,10.0503,10.0503,10.0099,9.7713,9.5768,9.5327,9.5107,9.496,9.496,9.5694,9.5841,9.5034,9.5694,9.5474,9.3859,9.3786,9.3382,9.2501,9.2501,9.2207,9.162,9.14,9.0996,9.0445,9.0188,8.9674,8.8867,8.9087,8.9087,0.0,0.0,8.692,8.9485,9.5634,10.1712,10.4212,10.8713,11.2983,11.5599,11.8792,12.1793,12.3485,12.6717,12.9487,13.1295,13.4411,13.6911,13.7796,13.718,13.6103,13.4487,13.2102,13.091,0.0,13.3987,13.5103,13.4411,13.4988,13.5103,13.4295,13.341,13.2987,13.2987,13.2102,13.1679,13.1679,13.1679,13.1679,13.1679,13.1602,13.1179,13.041,12.9602,12.8217,12.6678,12.6678,12.5678,12.3985,12.3216,12.2908,12.2716,12.0908,11.9792,11.8985,11.81,11.6715,11.5176,11.4291,11.3407,11.2714,11.2599,11.2599,11.2389,11.1493,11.0093,10.8501,10.6725,10.4495,10.2595,10.2595,10.2595,10.2412,10.1604,10.2595,10.3513,10.2815,10.2595,10.2815,10.3586,10.2485,10.1971,10.3476,10.2485,10.1677,10.2485,10.12,9.9548,9.797,9.7089,9.6612,9.6612,9.7346,9.7493,9.6685,9.7346,9.7126,9.5547,9.5437,9.507,9.4263,9.4226,9.4189,9.4189,9.3418,9.3015,9.2978,9.2134,9.1326,9.0555,9.1326,9.1253,0.0,0.0,9.5559,9.9207,10.5015,11.0406,11.2906,11.6215,11.9215,12.11,12.1985,12.2985,12.4716,12.6409,12.8486,13.1179,13.5103,13.8181,13.9604,13.9989,13.8296,13.318,13.2795,0.0,0.0,0.0,0.0,13.4911,13.5295,13.5411,13.5103,13.4795,13.4411,13.391,13.2987,13.2603,13.2603,13.1987,13.1679,13.1679,13.1679,13.1602,13.1295,13.0987,13.0294,12.9179,12.8602,12.7409,12.5678,12.4293,12.3408,12.2716,12.0985,12.01,11.9715,11.8292,11.7407,11.6792,11.5407,11.4714,11.4291,11.3791,11.3599,11.3305,11.1824,11.0618,10.9312,10.6986,10.5376,10.421,10.3586,10.3513,10.3403,10.3182,10.3476,10.399,10.421,10.3917,10.3696,10.4504,10.432,10.3917,10.388,10.3917,10.3403,10.2081,10.098,9.9732,9.8117,9.764,9.7493,9.7493,9.775,9.8007,9.8264,9.8557,9.8007,9.6392,9.6318,9.5694,9.4336,9.4299,9.4299,9.4299,9.4042,9.3896,9.3896,9.3602,9.3308,9.3051,9.3345,9.3308,0.0,9.725,10.3482,10.7982,11.3214,11.7792,11.9985,12.1985,12.3601,12.3985,12.3485,12.2985,12.3101,12.3408,12.4909,12.9179,13.2679,13.6411,14.0489,14.0181,13.8104,13.3987,13.291,13.141,0.0,0.0,0.0,13.5218,13.5795,13.5988,13.5988,13.5719,13.5295,13.4718,13.3603,13.2987,13.2987,13.2102,13.1679,13.1679,13.1679,13.1679,13.1679,13.1679,13.1295,13.0487,12.9602,12.8409,12.6986,12.5293,12.4101,12.3216,12.1793,12.0793,12.01,11.8792,11.81,11.76,11.5907,11.5291,11.5215,11.4599,11.4484,11.4188,11.2775,11.1677,11.0591,10.8399,10.7115,10.6302,10.5789,10.5678,10.5605,10.5275,10.5201,10.5275,10.5495,10.5201,10.4908,10.5495,10.5605,10.5385,10.4908,10.5201,10.4908,10.3109,10.2081,10.0796,9.8594,9.8337,9.8337,9.8337,9.8594,9.8851,9.9071,9.9108,9.8557,9.7199,9.6869,9.6245,9.518,9.5144,9.5144,9.5144,9.4887,9.474,9.474,9.4446,9.4299,9.4299,9.4299,9.4299,9.7827,10.4405,11.0714,11.5792,12.01,12.3601,12.5216,12.6178,12.6178,12.4409,12.3216,12.1592,0.0,0.0,11.9592,12.5591,12.8332,13.2603,14.0989,13.8681,13.6296,0.0,0.0,0.0,0.0,0.0,0.0,13.5295,0.0,13.668,13.6796,13.6103,13.5603,13.5603,13.391,13.3103,13.3103,13.2179,13.1679,13.1679,13.1679,13.1679,13.1679,13.1679,13.1295,13.0487,12.9602,12.8717,12.7794,12.6101,12.4793,12.3985,12.3216,12.1793,12.0292,11.9485,11.86,11.7715,11.5984,11.5407,11.5407,11.5407,11.5407,11.5202,11.4335,11.3396,11.2345,11.0572,10.9532,10.8799,10.8799,10.8799,10.8615,10.7771,10.7661,10.7477,10.6706,10.6486,10.6486,10.6486,10.6486,10.6486,10.6486,10.6486,10.6192,10.5311,10.4394,10.2779,9.9622,9.9181,9.9181,9.9218,9.9879,9.9989,9.9365,9.9255,9.8888,9.808,9.7309,9.6832,9.6759,9.6759,9.6722,9.6685,9.5951,9.5584,9.5584,9.4813,9.441,9.441,9.441,9.441,10.629,11.2714,11.8484,12.2985,12.5909,12.7717,12.8102,12.7909,12.6794,12.3793,11.9122,11.449,0.0,0.0,0.0,12.3211,13.1203,0.0,14.4797,14.5182,0.0,0.0,0.0,13.718,13.341,13.3295,0.0,0.0,13.5911,13.5488,13.668,13.718,13.7103,13.6488,13.4795,13.3987,13.3987,13.2487,13.1679,13.1679,13.1679,13.1679,13.1679,13.1679,13.1602,13.1295,12.9794,12.9102,12.8602,12.5717,12.4293,12.3985,12.2485,12.1677,12.1177,12.0292,11.9908,11.9408,11.7715,11.6715,11.6176,11.6176,11.6176,11.6009,11.5161,11.3813,11.242,11.1282,10.994,10.8799,10.8799,10.8799,10.8688,10.8505,10.8505,10.8395,10.8211,10.8211,10.8211,10.8211,10.8211,10.8211,10.8211,10.7697,10.7,10.6192,10.4798,10.3182,10.109,10.0393,10.0209,10.0796,10.0503,10.0686,10.1714,10.12,10.0503,9.9732,9.9512,9.8851,9.764,9.7566,9.7309,9.6722,9.6502,9.6392,9.6392,9.6171,9.6098,9.6098,9.6098,9.6098,11.4522,11.9985,12.4486,12.7986,12.9602,12.9794,12.7986,12.6601,12.3899,11.7587,11.2193,0.0,0.0,0.0,0.0,0.0,0.0,0.0,14.522,14.5797,14.4682,0.0,14.2489,0.0,13.7411,13.7488,13.7988,0.0,13.6603,13.6103,13.7796,13.8411,13.8181,13.7411,13.6103,13.4911,13.368,13.241,13.1679,13.1679,13.1679,13.1679,13.1679,13.1679,13.1679,13.1602,0.0,12.9217,12.8986,12.5909,12.4409,12.3985,12.2716,12.1908,12.1485,12.06,12.0292,12.01,11.8792,11.7792,11.6984,11.6599,11.6484,11.64,11.5905,11.464,11.3128,11.2577,11.1187,10.99,10.99,10.99,10.979,10.9386,10.9312,10.9202,10.8909,10.8799,10.8799,10.8799,10.8799,10.8799,10.8799,10.8101,10.7404,10.7,10.5495,10.41,10.3182,10.2081,10.1494,10.2008,10.1898,10.2191,10.3109,10.2191,10.131,10.0907,10.0209,9.9365,9.8447,9.808,9.7676,9.7236,9.6869,9.6685,9.6685,9.6685,9.6869,9.7199,9.6869,9.6906,12.21,12.6294,12.941,13.191,13.2179,13.0794,12.6486,12.3601,11.8883,10.9121,0.0,9.9885,9.5415,9.878,10.5206,11.4028,0.0,13.2615,14.4473,14.4395,14.4182,14.7182,14.549,14.3489,14.1797,14.1489,14.1104,14.0219,13.8604,13.8104,13.9219,13.9296,13.8796,13.7796,13.6988,13.5411,13.2872,13.2102,13.1679,13.1679,13.1679,13.1679,13.1679,13.1679,13.1679,13.1602,13.0102,12.9294,12.8986,12.6486,12.4909,12.3985,12.3101,12.2293,12.1485,12.0793,12.0485,12.0408,11.9485,11.8792,11.7984,11.71,11.6676,11.6484,11.6599,11.538,11.3911,11.3911,11.2623,11.1221,11.1221,11.1221,11.1001,11.0304,11.0193,10.9973,10.9312,10.9092,10.9092,10.9092,10.9092,10.9092,10.9092,10.8468,10.7881,10.7771,10.6302,10.5201,10.5128,10.3806,10.2889,10.2999,10.3513,10.3917,10.41,10.2705,10.1788,10.1824,10.0503,9.9695,9.9585,9.8814,9.8337,9.8227,9.7419,9.7016,9.7016,9.7016,9.7383,9.8043,9.7346,9.7346,12.7717,13.1102,13.3795,13.6411,13.4872,13.1679,12.7409,12.0793,0.0,0.0,9.7387,9.2035,8.9872,9.4632,10.2509,11.3477,0.0,0.0,0.0,0.0,14.9683,0.0,0.0,0.0,0.0,0.0,0.0,0.0,0.0,14.1181,13.9412,13.9296,13.8296,13.5988,13.5795,13.4487,13.1987,13.1795,13.1679,13.1679,13.1679,13.1679,13.1679,13.1679,13.1679,13.1602,13.0679,0.0,12.8986,12.6486,12.4909,12.3909,12.2408,12.1677,12.16,12.1408,12.1408,12.1293,12.0408,11.9985,11.9715,11.8908,11.7677,11.6599,11.7407,11.5876,11.3911,11.3911,11.2623,11.1221,11.1221,11.1221,11.1221,11.1001,11.1001,11.1001,11.0817,11.0817,11.0817,11.0817,11.0817,11.0817,11.0817,11.0083,10.9386,10.8688,10.7183,10.5899,10.5201,10.432,10.3917,10.4614,10.421,10.421,10.4798,10.399,10.3476,10.3513,10.3182,10.2815,10.2118,10.131,10.0576,9.9879,9.9108,9.8704,9.8704,9.8704,9.8778,9.8888,9.8741,9.8411,13.3718,13.5988,13.7296,13.8988,13.618,13.0987,12.3178,0.0,0.0,0.0,9.0107,8.6144,8.4174,9.0578,0.0,0.0,0.0,0.0,0.0,0.0,0.0,0.0,0.0,0.0,0.0,0.0,0.0,0.0,0.0,14.3989,14.1412,13.9989,13.8719,13.7488,13.5795,13.4295,13.3103,13.2179,13.1679,13.1679,13.1679,13.1679,13.1679,13.1679,13.1679,13.1679,13.0794,13.0294,12.9717,12.7101,12.5601,12.4716,12.3408,12.2408,12.1677,12.21,12.1985,12.1485,12.11,12.0677,12.0216,11.9792,11.86,11.7292,11.7715,11.63,11.4488,11.4005,11.2926,11.1921,11.1838,11.1515,11.1295,11.1698,11.1515,11.1221,11.1221,11.1221,11.1221,11.1221,11.1221,11.1221,11.1221,11.0487,10.99,10.9496,10.8395,10.7294,10.6486,10.6413,10.6119,10.5201,10.5495,10.5789,10.5789,10.5385,10.4981,10.4614,10.41,10.3696,10.3293,10.2595,10.1714,10.0907,10.0099,9.9732,9.9732,9.9292,9.9548,10.0319,9.9512,9.9108,13.8296,13.9989,14.0604,14.1489,13.7296,13.0179,11.9292,11.0211,0.0,0.0,8.411,8.1752,8.032,8.6794,9.4468,0.0,0.0,0.0,0.0,0.0,0.0,0.0,0.0,0.0,0.0,0.0,0.0,0.0,0.0,0.0,14.3181,14.0989,13.9604,13.9104,13.6488,13.4911,13.4295,13.2795,13.1987,13.1987,13.1795,13.1679,13.1679,13.1679,13.1679,13.1679,13.0987,13.0679,13.0294,12.7909,12.6486,12.5601,12.4293,12.3101,12.2177,12.2485,12.2293,12.1908,12.1677,12.1177,12.0485,12.0408,11.9215,11.7792,11.7792,11.6595,11.5098,11.4364,11.3432,11.246,11.2417,11.1801,11.1405,11.1992,11.1698,11.1221,11.1221,11.1221,11.1221,11.1221,11.1221,11.1221,11.1221,11.0707,11.0193,10.9973,10.9496,10.8799,10.7991,10.8395,10.8101,10.6119,10.711,10.7587,10.7,10.689,10.6596,10.5899,10.5311,10.4908,10.4687,10.3917,10.3109,10.2301,10.1494,10.109,10.109,10.0393,10.0796,10.1971,10.0686,10.0393,13.9719,14.222,14.4105,14.499,13.9104,13.0294,11.9985,0.0,0.0,8.6625,8.1468,7.9205,8.0625,8.339,8.9077,0.0,0.0,11.7773,0.0,0.0,0.0,0.0,0.0,0.0,0.0,0.0,0.0,0.0,0.0,0.0,14.3181,14.2181,14.0604,13.8296,13.7873,13.6603,13.4295,13.341,13.2872,13.2872,13.2102,13.1679,13.1679,13.1679,13.1679,13.1679,13.1602,0.0,0.0,12.8486,12.7294,12.6294,12.3909,12.3408,12.3716,12.2293,12.2216,12.2716,12.1908,12.1485,12.1408,12.06,11.9215,11.7792,11.7792,11.6595,11.521,11.5116,11.3836,11.2546,11.2464,11.181,11.1221,11.1295,11.1295,11.1221,11.1221,11.1221,11.1221,11.1221,11.1221,11.1221,11.1221,11.1111,11.0817,11.0083,10.99,10.9606,10.8799,10.8799,10.8688,10.8505,10.8615,10.8688,10.8615,10.8615,10.8505,10.8505,10.8395,10.7991,10.7294,10.6486,10.5678,10.4798,10.399,10.3586,10.3586,10.3513,10.3513,10.3696,10.3513,10.3109,14.0604,14.4297,14.6798,14.7105,13.9989,13.0294,12.01,0.0,0.0,8.5507,8.0389,7.7924,7.8651,8.1158,8.5434,0.0,0.0,0.0,11.9785,0.0,0.0,0.0,0.0,0.0,0.0,0.0,0.0,0.0,0.0,0.0,14.3912,14.2104,14.0412,13.8911,13.7796,13.6603,13.4988,13.368,13.2987,13.2987,13.2102,13.1679,13.1679,13.1679,13.1679,13.1679,13.1679,13.1487,0.0,12.9987,12.8717,12.7294,12.6294,12.5216,12.4101,12.3909,12.3485,12.2908,12.2485,12.1985,12.1408,11.9985,11.871,11.7591,11.7208,11.6193,11.506,11.4588,11.4301,11.3987,11.3411,11.2892,11.2616,11.2616,11.2616,11.2506,11.1992,11.1919,11.1808,11.1295,11.1221,11.1221,11.1221,11.1221,11.1111,11.0781,11.0707,11.0414,10.9606,10.99,11.0083,10.9606,10.9496,10.9312,10.8799,10.9202,10.9312,10.8799,10.8799,10.8688,10.8285,10.7991,10.7477,10.6596,10.6302,10.5899,10.5385,10.4908,10.4614,10.4614,10.41,10.3696,13.9296,14.4489,14.7798,14.749,13.9989,12.991,0.0,0.0,0.0,8.4892,7.9985,7.7304,7.7304,7.98,8.3134,8.7115,9.1564,9.8962,11.1397,11.6261,0.0,0.0,0.0,0.0,0.0,0.0,0.0,0.0,0.0,0.0,14.4412,14.222,14.0489,13.9296,13.8219,13.6988,13.5911,13.418,13.341,13.341,13.2179,13.1679,13.1679,13.1679,13.1679,13.1679,13.1679,13.1679,0.0,13.0602,12.9487,12.8602,12.7602,12.6409,12.5216,12.5101,12.4293,12.3216,12.2985,12.2293,12.1408,11.9908,11.8523,11.7185,11.6577,11.5703,11.4671,11.4108,11.4097,11.4222,11.3514,11.3303,11.3277,11.3497,11.357,11.3387,11.2579,11.2579,11.2396,11.1405,11.1405,11.1515,11.1221,11.1221,11.1221,11.1221,11.1221,11.1001,11.0414,11.0817,11.1001,11.0414,11.0377,11.0083,10.9606,11.001,11.0083,10.9496,10.9496,10.9386,10.9202,10.9202,10.8799,10.7991,10.7991,10.7697,10.711,10.6302,10.5825,10.5789,10.4981,10.4504,13.5218,14.1797,14.6682,14.5913,13.8681,12.8794,0.0,0.0,0.0,8.4778,7.9985,7.7304,7.7304,7.936,8.2323,8.6259,9.1734,9.9796,11.2328,11.773,0.0,0.0,0.0,0.0,0.0,0.0,0.0,0.0,0.0,0.0,14.4489,14.2797,14.1104,13.9412,13.9296,13.8488,13.6796,13.5103,13.4295,13.4295,13.2487,13.1679,13.1679,13.1679,13.1679,13.1679,13.1679,13.1679,0.0,12.991,12.9717,13.0102,12.6717,12.6409,12.7602,12.4986,12.4101,12.3985,12.3216,12.2293,12.1485,12.06,11.8489,11.6431,11.6288,11.5194,11.3873,11.3911,11.3252,11.2497,11.2417,11.2396,11.2579,11.3387,11.357,11.3387,11.2579,11.2983,11.3093,11.1515,11.1808,11.2102,11.1295,11.1221,11.1221,11.1221,11.1221,11.1221,11.1221,11.1221,11.1221,11.1221,11.1221,11.1221,11.1221,11.1221,11.1221,11.1221,11.1221,11.0817,10.9973,10.9973,10.9606,10.8799,10.8799,10.8799,10.8799,10.7991,10.7587,10.7587,10.6706,10.5899,12.3408,12.9602,13.4295,13.2295,12.6068,11.8715,11.1822,0.0,0.0,0.0,8.0358,7.7846,7.7365,7.8758,8.1859,8.7585,9.1021,9.6062,10.4987,0.0,0.0,0.0,0.0,0.0,0.0,0.0,0.0,0.0,0.0,0.0,14.4395,14.2797,14.1104,13.9412,13.9296,13.8219,13.5911,13.4795,13.3987,13.341,13.2179,13.1679,13.1679,13.1679,13.1679,13.1679,13.1679,13.1679,13.1679,13.1102,13.0718,13.0294,12.8717,12.7986,12.7717,12.6409,12.5486,12.4909,12.3985,12.3216,12.2216,12.0793,11.9275,11.7923,11.6716,11.4742,11.3073,11.3671,11.3593,11.3436,11.3964,11.4115,11.4194,11.5002,11.5185,11.5002,11.4194,11.4194,11.4084,11.2983,11.2983,11.3093,11.2873,11.28,11.28,11.28,11.2396,11.1992,11.1992,11.1515,11.1221,11.1221,11.1221,11.1221,11.1221,11.1221,11.1221,11.1221,11.1221,11.1111,11.0817,11.0817,11.0707,11.0414,11.0414,11.0193,10.9606,10.9386,10.8688,10.7587,10.7881,10.7587,0.0,12.0216,12.4986,12.3408,11.8524,0.0,0.0,0.0,0.0,0.0,0.0,0.0,7.809,7.9274,8.1746,8.6181,8.9065,9.3313,10.0701,0.0,0.0,0.0,0.0,0.0,0.0,0.0,0.0,0.0,0.0,0.0,14.4395,14.2489,14.0796,13.9296,13.8988,13.7796,13.5488,13.4411,13.3487,13.2987,13.2102,13.1679,13.1679,13.1679,13.1679,13.1679,13.1679,13.1487,0.0,13.091,13.0487,12.991,12.8717,12.8294,12.8294,12.7101,12.6409,12.5794,12.4909,12.3793,12.2716,12.16,12.0232,11.8496,11.6421,11.4194,11.248,11.285,11.3027,11.3391,11.4169,11.4618,11.5002,11.581,11.5993,11.581,11.5002,11.5002,11.4892,11.3791,11.3791,11.3974,11.3681,11.357,11.357,11.357,11.291,11.2396,11.2396,11.1698,11.1295,11.1588,11.1405,11.1295,11.1588,11.1405,11.1221,11.1221,11.1221,11.1221,11.1221,11.1221,11.1221,11.1221,11.1221,11.1001,11.0487,11.0083,10.9276,10.8064,10.8578,10.8505,0.0,11.2011,0.0,0.0,0.0,0.0,0.0,0.0,0.0,0.0,0.0,0.0,7.9112,8.0386,8.1791,8.3235,8.6567,9.1671,9.9198,0.0,0.0,0.0,0.0,0.0,0.0,0.0,0.0,0.0,0.0,0.0,14.4412,14.1989,14.0219,13.9296,13.8488,13.718,13.5411,13.391,13.2987,13.2872,13.2102,13.1679,13.1679,13.1679,13.1679,0.0,13.1679,13.1179,13.041,12.9602,12.9294,12.8986,12.7486,12.7794,12.8986,12.7486,12.6794,12.6678,12.5678,12.4293,12.2985,12.2793,12.1027,11.8407,11.5918,11.3947,11.2286,11.1588,11.1919,11.2689,11.3497,11.4305,11.5112,11.581,11.5993,11.581,11.5002,11.5479,11.5589,11.4084,11.4378,11.4598,11.3901,11.3791,11.3791,11.3791,11.3093,11.2579,11.2506,11.1808,11.1625,11.2286,11.1808,11.1698,11.2396,11.1698,11.1221,11.1221,11.1221,11.1221,11.1221,11.1221,11.1221,11.1221,11.1221,11.1221,11.1221,11.0414,10.9679,10.8909,10.8909,10.8909,8.7554,0.0,9.7943,9.6445,9.4364,0.0,0.0,0.0,0.0,0.0,0.0,0.0,0.0,7.9224,8.0779,8.6797,8.8548,9.175,9.9008,0.0,0.0,0.0,0.0,0.0,0.0,0.0,0.0,0.0,0.0,14.3444,14.4395,14.1989,14.0219,13.9296,13.7911,13.6296,13.4603,13.4218,13.3295,13.1987,13.1795,13.1679,13.1679,13.1679,13.1679,13.1679,13.1679,13.1179,13.0487,13.0294,12.9794,12.9217,12.8794,12.8909,12.9217,12.8794,12.8217,12.7409,12.5909,12.4716,12.3601,12.2293,12.1013,11.9481,11.7609,11.5297,11.3277,11.3093,11.3203,11.3497,11.4305,11.5112,11.5773,11.5993,11.5993,11.5883,11.5773,11.5883,11.5883,11.5479,11.5589,11.5699,11.5479,11.5406,11.5406,11.5406,11.4782,11.4011,11.3387,11.3167,11.2873,11.2396,11.28,11.3093,11.3277,11.1992,11.1221,11.1221,11.1221,11.1221,11.1221,11.1221,11.1221,11.1221,11.1221,11.1221,11.1221,11.1001,11.0487,10.9679,11.0304,11.0304,7.9303,8.4796,9.002,8.9707,8.885,8.7608,0.0,0.0,0.0,0.0,0.0,0.0,0.0,0.0,0.0,8.5654,8.8521,9.4303,0.0,0.0,0.0,0.0,0.0,0.0,0.0,0.0,0.0,0.0,0.0,14.2619,14.298,14.113,13.9796,13.9296,13.768,13.5988,13.4295,13.391,13.2987,13.1679,13.1679,13.1679,13.1679,13.1679,13.1679,13.1679,13.1679,13.0987,12.991,12.991,12.9179,12.8102,12.8486,12.8794,12.9217,12.9217,12.8909,12.8294,12.6986,12.5486,12.3793,12.21,12.1003,11.9936,11.856,11.6292,11.409,11.3309,11.3607,11.4194,11.4194,11.5112,11.5993,11.5993,11.5993,11.5993,11.5993,11.5993,11.5993,11.5993,11.5993,11.5993,11.5993,11.5993,11.5993,11.5993,11.5296,11.4598,11.4194,11.3791,11.357,11.3497,11.357,11.3681,11.4084,11.2983,11.2102,11.1808,11.1405,11.1221,11.1221,11.1221,11.1221,11.1221,11.1221,11.1221,11.1221,11.1221,11.1001,11.0597,11.1001,11.1001,7.6347,8.1783,8.7532,8.8291,8.8335,8.7533,0.0,0.0,0.0,0.0,0.0,0.0,0.0,0.0,0.0,0.0,0.0,0.0,0.0,0.0,0.0,0.0,0.0,0.0,0.0,0.0,0.0,0.0,0.0,14.211,14.1296,14.0017,13.9219,13.9104,13.7603,13.5988,13.4295,13.3603,13.2679,13.1679,13.1679,13.1679,13.1679,13.1679,13.1602,13.1487,0.0,0.0,12.8986,12.8986,12.8217,12.6986,12.7794,12.8602,12.941,12.941,12.9294,12.8986,12.7909,12.5909,12.3716,12.2293,12.122,12.0226,11.9288,11.7484,11.5389,11.3536,11.3823,11.4488,11.3901,11.4892,11.5993,11.5993,11.5993,11.5993,11.5993,11.5993,11.5993,11.5993,11.5993,11.5993,11.5993,11.5993,11.5993,11.5993,11.5406,11.4892,11.4818,11.4305,11.4084,11.4598,11.4194,11.4194,11.4782,11.4194,11.3497,11.28,11.1992,11.1515,11.1405,11.1295,11.1221,11.1221,11.1221,11.1221,11.1221,11.1221,11.1221,11.1221,11.1221,11.1221,7.8296,8.1623,8.346,8.0617,8.1492,8.252,0.0,0.0,0.0,0.0,0.0,0.0,0.0,0.0,0.0,0.0,0.0,0.0,0.0,0.0,0.0,0.0,0.0,0.0,0.0,0.0,0.0,0.0,0.0,14.1034,14.0388,13.971,13.8988,13.8296,13.7296,13.5988,13.4295,13.4218,13.3295,13.1679,13.1679,13.1679,13.1679,13.1679,13.1295,13.0679,0.0,12.9717,12.8102,12.8102,12.7909,12.7794,12.8717,12.9487,13.0294,13.0294,12.9794,12.8909,12.6601,12.4601,12.3024,12.2793,12.213,12.1206,12.0302,11.9703,11.8887,11.6288,11.4693,11.3901,11.4488,11.5296,11.5993,11.5993,11.5993,11.5993,11.5993,11.5993,11.5993,11.5993,11.5993,11.5993,11.5993,11.5993,11.5993,11.5993,11.5883,11.5589,11.4892,11.5296,11.5185,11.3901,11.4892,11.5406,11.4818,11.4708,11.4598,11.4415,11.3681,11.291,11.2212,11.1588,11.1221,11.1221,11.1221,11.1221,11.1221,11.1221,11.1221,11.1221,11.1221,11.1221,7.5469,7.8589,8.1119,7.9791,8.2705,0.0,0.0,0.0,0.0,0.0,0.0,0.0,0.0,0.0,0.0,0.0,0.0,0.0,0.0,0.0,0.0,0.0,0.0,0.0,0.0,0.0,0.0,0.0,0.0,0.0,13.9441,13.8797,13.8463,13.8719,13.6988,13.5488,13.4295,13.3795,13.2987,13.1679,13.1679,13.1679,13.1679,13.1679,13.1487,13.1102,0.0,12.9794,12.8602,12.8102,12.7602,12.7283,12.7611,12.8289,12.8978,12.8978,12.8831,12.8217,12.6101,12.4601,12.3485,12.3024,12.2293,12.1429,12.0472,11.9901,11.917,11.7438,11.6276,11.5469,11.4926,11.5406,11.5993,11.5993,11.5993,11.5993,11.5993,11.5993,11.5993,11.5993,11.5993,11.5993,11.5993,11.5993,11.5993,11.5993,11.5993,11.5883,11.5479,11.5773,11.5699,11.5002,11.5589,11.5883,11.5479,11.5406,11.5112,11.4194,11.3791,11.3203,11.2396,11.1992,11.1625,11.1221,11.1221,11.1221,11.1221,11.1221,11.1221,11.1221,11.1221,11.1221,7.3597,7.6728,8.0161,0.0,0.0,0.0,0.0,0.0,0.0,0.0,0.0,0.0,0.0,0.0,0.0,0.0,0.0,0.0,0.0,0.0,0.0,0.0,0.0,0.0,0.0,0.0,0.0,0.0,0.0,0.0,13.8054,13.7765,13.7907,13.8358,13.6488,13.4988,13.3987,13.3295,13.2603,13.1679,13.1679,13.1679,13.1679,13.1679,13.1602,13.141,13.0794,12.991,12.8794,12.8217,12.7486,12.7014,12.691,12.7218,12.7694,12.7513,12.7466,12.7409,12.6101,12.4986,12.3985,12.3408,12.2485,12.1506,12.0691,12.0107,11.9367,11.8508,11.7973,11.7325,11.5567,11.5747,11.6283,11.6122,11.5993,11.5993,11.5993,11.5993,11.5993,11.5993,11.5993,11.5993,11.5993,11.5993,11.5993,11.5993,11.5993,11.5993,11.5993,11.5993,11.5883,11.5699,11.5883,11.5993,11.5993,11.5993,11.5479,11.4194,11.3974,11.3607,11.2983,11.2616,11.2212,11.1808,11.1405,11.1295,11.1515,11.1295,11.1221,11.1221,11.1221,11.1221,7.6166,7.8766,0.0,0.0,0.0,0.0,0.0,0.0,0.0,0.0,0.0,0.0,0.0,0.0,0.0,0.0,0.0,0.0,0.0,0.0,0.0,0.0,0.0,0.0,0.0,0.0,0.0,0.0,0.0,0.0,13.6394,13.7157,13.7104,13.5834,13.5603,13.4718,13.3103,13.2987,13.2603,13.1679,13.1679,13.1679,13.1679,13.1679,13.1295,13.0602,13.0487,12.9487,12.8025,12.7909,12.7909,12.7794,12.7821,12.7771,12.7797,12.6912,12.6719,12.6794,12.6601,12.5486,12.4101,12.3985,12.2908,12.16,12.1515,12.1515,12.1217,12.034,11.938,11.8346,11.6579,11.6712,11.7052,11.6193,11.5993,11.5993,11.5993,11.5993,11.5993,11.5993,11.5993,11.5993,11.5993,11.5993,11.5993,11.5993,11.5993,11.5993,11.5993,11.5993,11.5699,11.5002,11.5589,11.5993,11.5993,11.5993,11.5993,11.581,11.5112,11.4708,11.4598,11.3203,11.2689,11.3387,11.1992,11.1588,11.2286,11.1588,11.1221,11.1221,11.1221,11.1221,7.4001,7.7179,0.0,0.0,0.0,0.0,0.0,0.0,0.0,0.0,0.0,0.0,0.0,0.0,0.0,0.0,0.0,0.0,0.0,0.0,0.0,0.0,0.0,0.0,0.0,0.0,0.0,0.0,0.0,0.0,13.7882,13.618,13.549,13.6281,13.4795,13.3603,13.2987,13.2487,13.1795,13.0987,13.1487,13.1679,13.1679,13.1679,13.1487,13.1179,13.0102,12.9294,12.8602,12.7602,12.7178,12.7079,12.6369,12.5805,12.5284,12.4879,12.4803,12.4995,12.5108,12.4293,12.3408,12.3408,12.2601,12.16,12.16,12.16,12.1476,12.1194,12.0416,11.924,11.7414,11.6709,11.6388,11.6085,11.5993,11.5993,11.5993,11.5993,11.5993,11.5993,11.5993,11.5993,11.5993,11.5993,11.5993,11.5993,11.5993,11.5993,11.5993,11.5993,11.5883,11.5589,11.581,11.5993,11.5993,11.5993,11.5993,11.5993,11.5699,11.5296,11.4818,11.4194,11.3607,11.2873,11.2286,11.1808,11.1698,11.1295,11.1221,11.1221,11.1221,11.1221,7.2627,7.5785,7.9718,8.1735,0.0,0.0,0.0,0.0,0.0,0.0,0.0,0.0,0.0,0.0,0.0,0.0,0.0,0.0,0.0,0.0,0.0,0.0,0.0,0.0,0.0,0.0,0.0,0.0,0.0,0.0,0.0,13.5225,13.428,13.5589,13.391,13.2872,13.2603,13.1679,13.091,13.0102,13.0602,13.091,13.091,13.1179,13.1179,13.0794,12.9717,12.8986,12.8717,12.7602,12.6909,12.6491,12.487,12.4125,12.3804,12.3189,12.3182,12.3604,12.397,12.3601,12.2908,12.2908,12.2293,12.16,12.16,12.1408,12.1177,12.1485,12.0484,11.9077,11.8093,11.7061,11.6373,11.6085,11.5993,11.5993,11.5993,11.5993,11.5993,11.5993,11.5993,11.5993,11.5993,11.5993,11.5993,11.5993,11.5993,11.5993,11.5993,11.5993,11.5993,11.5993,11.5993,11.5993,11.5993,11.5993,11.5993,11.5993,11.5993,11.5773,11.5185,11.4892,11.4415,11.3607,11.2983,11.2616,11.2322,11.2102,11.1808,11.1588,11.1588,11.1405,7.2907,7.518,7.8313,0.0,0.0,0.0,0.0,0.0,0.0,0.0,0.0,0.0,0.0,0.0,0.0,0.0,0.0,0.0,0.0,0.0,0.0,0.0,0.0,0.0,0.0,0.0,0.0,0.0,0.0,0.0,0.0,13.4404,13.3563,13.3026,13.2987,13.2603,13.1679,13.091,13.0025,12.9217,12.9217,12.9217,12.9217,13.0102,12.9987,12.9217,12.9217,12.8717,12.7909,12.7909,12.7409,12.6426,12.3608,12.3135,12.3807,12.1994,12.1921,12.2803,12.3701,12.3524,12.2908,12.2908,12.2293,12.16,12.16,12.0985,12.0485,12.1293,11.9615,11.7722,11.859,11.8093,11.7061,11.6193,11.5993,11.5993,11.5993,11.5993,11.5993,11.5993,11.5993,11.5993,11.5993,11.5993,11.5993,11.5993,11.5993,11.5993,11.5993,11.5993,11.5993,11.5993,11.5993,11.5993,11.5993,11.5993,11.5993,11.5993,11.5993,11.5993,11.5993,11.5185,11.5185,11.5993,11.4378,11.3974,11.4818,11.3974,11.3203,11.2396,11.2396,11.1992,7.3892,0.0,0.0,0.0,0.0,0.0,0.0,0.0,0.0,0.0,0.0,0.0,0.0,0.0,0.0,0.0,0.0,0.0,0.0,0.0,0.0,0.0,0.0,0.0,0.0,0.0,0.0,0.0,0.0,0.0,0.0,13.2906,13.24,13.3026,13.241,13.1679,13.091,12.9895,12.8385,12.653,12.6389,12.7002,12.8294,12.9217,12.941,12.9217,12.8602,12.7794,12.6986,12.6409,12.6409,12.6426,12.3608,12.2688,12.2706,12.0962,12.0578,12.0897,12.1284,12.1293,12.11,12.11,12.0485,11.9908,12.0485,12.01,11.9485,11.9792,11.8318,11.6816,11.7722,11.6695,11.5599,11.5901,11.5993,11.5993,11.5993,11.5993,11.5993,11.5993,11.5993,11.5993,11.5993,11.5993,11.5993,11.5993,11.5993,11.5993,11.5993,11.5993,11.5993,11.5993,11.5993,11.5993,11.5993,11.5993,11.5993,11.5993,11.5993,11.5993,11.5993,11.5773,11.5479,11.5185,11.4708,11.4305,11.3974,11.3681,11.3497,11.3203,11.3203,11.3093,0.0,0.0,0.0,0.0,0.0,0.0,0.0,0.0,0.0,0.0,0.0,0.0,0.0,0.0,0.0,0.0,0.0,0.0,0.0,0.0,0.0,0.0,0.0,0.0,0.0,0.0,0.0,0.0,0.0,0.0,0.0,13.229,13.1773,13.2487,13.1679,13.0794,12.9987,12.8685,12.6817,12.4308,12.4167,12.4372,12.4809,12.6033,12.6606,12.6491,12.6008,12.6005,12.6101,12.5216,12.5216,12.5377,12.2621,12.1457,12.1382,12.0024,11.9533,11.9619,12.0121,12.0292,12.0216,11.9908,11.9485,11.9215,11.9715,11.9215,11.8715,11.8985,11.7989,11.6951,11.7413,11.6699,11.5923,11.5975,11.5993,11.5993,11.5993,11.6287,11.6507,11.6507,11.6507,11.6507,11.6507,11.6507,11.6507,11.6507,11.6507,11.6617,11.6911,11.669,11.6507,11.6507,11.6507,11.6287,11.5993,11.5993,11.5993,11.5993,11.5993,11.5993,11.5993,11.5993,11.5773,11.5296,11.5296,11.5002,11.4598,11.4598,11.4378,11.4084,11.4084,11.3901,0.0,0.0,0.0,0.0,0.0,0.0,0.0,0.0,0.0,0.0,0.0,0.0,0.0,0.0,0.0,0.0,0.0,0.0,0.0,0.0,0.0,0.0,0.0,0.0,0.0,0.0,0.0,0.0,0.0,13.2768,13.2691,13.209,13.1679,13.1602,13.0794,12.991,12.8986,12.7321,12.508,12.2571,12.2413,12.1493,11.9957,12.1684,12.2396,12.2396,12.2471,12.3583,12.5081,12.4284,12.3985,12.3801,12.1102,12.0061,11.9986,11.908,11.8778,11.89,12.0006,12.0292,12.01,11.9292,11.8985,11.8908,11.8985,11.8407,11.7792,11.86,11.8192,11.7592,11.7529,11.7418,11.7107,11.6336,11.6085,11.5993,11.5993,11.6617,11.7094,11.7094,11.7094,11.7094,11.7094,11.7204,11.7204,11.7314,11.7314,11.7608,11.8306,11.7718,11.7204,11.7204,11.7131,11.6801,11.6103,11.5993,11.5993,11.5993,11.5993,11.5993,11.6103,11.6103,11.6103,11.5993,11.6103,11.6103,11.5993,11.5993,11.5589,11.4892,11.4892,11.4488,0.0,0.0,0.0,0.0,0.0,0.0,0.0,0.0,0.0,0.0,0.0,0.0,0.0,0.0,0.0,0.0,0.0,0.0,0.0,0.0,0.0,0.0,0.0,0.0,0.0,0.0,0.0,0.0,13.1736,13.1476,13.0789,13.1364,13.141,13.0794,12.991,12.8794,12.7294,12.5433,12.3586,12.1693,12.0217,11.9288,11.8977,12.083,12.1604,12.1566,12.1672,12.2306,12.328,12.3214,12.3524,12.3801,12.1102,12.0061,11.9986,11.908,11.8778,11.89,12.0006,11.9908,11.9292,11.9215,11.8215,11.7176,11.7907,11.7484,11.6792,11.6984,11.6889,11.687,11.7495,11.7131,11.6563,11.695,11.6528,11.5993,11.5993,11.6103,11.6287,11.6287,11.6287,11.6287,11.6287,11.6801,11.7425,11.8012,11.8122,11.8195,11.8416,11.7718,11.7204,11.7204,11.6617,11.6213,11.5993,11.5993,11.5993,11.5993,11.5993,11.6287,11.6911,11.6911,11.6617,11.5993,11.6617,11.6617,11.5993,11.5993,11.5883,11.5699,11.5699,11.5589,0.0,0.0,0.0,0.0,0.0,0.0,0.0,0.0,0.0,0.0,0.0,0.0,0.0,0.0,0.0,0.0,0.0,0.0,0.0,0.0,0.0,0.0,0.0,0.0,0.0,0.0,0.0,13.0681,13.1277,13.1218,13.0413,13.078,13.0602,12.9294,12.8409,12.7217,12.5486,12.4097,12.2572,12.0893,11.9904,11.9136,11.8693,11.9127,11.9617,11.9969,11.9694,12.0329,12.1508,12.1598,12.1923,12.2085,12.0669,11.9904,11.9489,11.9478,11.9223,11.89,12.0006,11.9792,11.8985,11.86,11.76,11.6599,11.6984,11.6907,11.6484,11.6484,11.6774,11.7079,11.7026,11.6919,11.6743,11.6688,11.6373,11.6103,11.6507,11.6911,11.7278,11.7608,11.7682,11.7682,11.7682,11.8085,11.8599,11.948,11.9187,11.9003,11.9003,11.8599,11.8085,11.7314,11.7204,11.6801,11.6103,11.6397,11.6617,11.6617,11.6911,11.7314,11.7792,11.8122,11.7792,11.6617,11.7021,11.6801,11.5993,11.5993,11.5993,11.5993,11.5993,11.5993,0.0,0.0,0.0,0.0,0.0,0.0,0.0,0.0,0.0,0.0,0.0,0.0,0.0,0.0,0.0,0.0,0.0,0.0,0.0,0.0,0.0,0.0,0.0,0.0,0.0,13.002,12.9909,13.0931,13.1084,13.1,13.0487,13.041,12.9487,12.7717,12.6909,12.5601,12.3909,12.3101,12.177,12.0243,12.0073,11.9595,11.8784,11.7925,11.7836,11.8357,11.7687,11.8163,11.9694,11.9888,12.0029,12.0029,12.0029,11.952,11.8916,11.987,11.9595,11.8985,12.0134,11.9792,11.8792,11.8215,11.7292,11.6484,11.6484,11.64,11.6309,11.6309,11.6811,11.7338,11.6499,11.6818,11.7181,11.6388,11.6139,11.6213,11.7021,11.7718,11.8416,11.9187,11.9297,11.9297,11.959,11.948,11.97,12.0691,12.0288,11.9774,11.959,11.948,11.8783,11.7388,11.7718,11.7388,11.6103,11.6727,11.7204,11.7204,11.8012,11.8489,11.8599,11.9187,11.9003,11.7608,11.7608,11.7094,11.6213,11.6213,11.6103,11.5993,11.5993,11.5993,0.0,0.0,0.0,0.0,0.0,0.0,0.0,0.0,0.0,0.0,0.0,0.0,0.0,0.0,0.0,0.0,0.0,0.0,0.0,0.0,0.0,0.0,0.0,0.0,13.006,12.8631,12.798,12.904,12.9191,12.961,13.0475,12.9794,12.8602,12.6909,12.5986,12.4793,12.3101,12.2216,12.1284,12.0305,11.9512,11.8987,11.8816,11.8684,11.8168,11.7575,11.7501,11.7507,11.7819,11.8568,11.9022,11.9022,11.9022,11.8916,11.8916,11.987,11.9614,11.908,12.0822,11.9908,11.81,11.8715,11.7792,11.6484,11.6484,11.5993,11.5413,11.5413,11.5909,11.6499,11.6288,11.6818,11.7426,11.7226,11.6652,11.6213,11.7021,11.7314,11.7608,11.8416,11.8012,11.8012,11.937,11.9003,11.9113,12.0691,12.0802,12.0508,11.97,11.9003,11.8195,11.7314,11.669,11.6213,11.5993,11.6727,11.7204,11.7204,11.8012,11.8709,11.9407,11.948,11.948,11.9297,11.9297,11.8489,11.7021,11.7021,11.669,11.5993,11.5993,11.5993,0.0,0.0,0.0,0.0,0.0,0.0,0.0,0.0,0.0,0.0,0.0,0.0,0.0,0.0,0.0,0.0,0.0,0.0,0.0,0.0,0.0,0.0,0.0,12.8324,12.9192,12.813,12.7484,12.7872,12.8686,12.91,12.9025,12.8294,12.6986,12.5293,12.4409,12.3408,12.2216,12.1293,12.0485,11.96,11.9199,11.9007,11.8985,11.8919,11.8598,11.8206,11.7591,11.7389,11.7352,11.7788,11.8018,11.8093,11.9223,11.9326,11.9022,12.0434,12.0408,11.9711,12.0591,11.9792,11.8484,11.8407,11.7484,11.6484,11.6484,11.5905,11.521,11.521,11.541,11.547,11.547,11.6117,11.6615,11.6615,11.6283,11.6287,11.7608,11.7498,11.7608,11.8783,11.9187,11.9517,12.0214,11.9994,12.0104,12.0802,12.0912,12.0398,11.9113,11.9003,11.8416,11.669,11.6617,11.669,11.669,11.7388,11.8085,11.8489,11.9297,11.97,11.959,12.0104,12.0104,11.959,11.959,11.9003,11.7902,11.7425,11.7021,11.669,11.6213,11.5993,0.0,0.0,0.0,0.0,0.0,0.0,0.0,0.0,0.0,0.0,0.0,0.0,0.0,0.0,0.0,0.0,0.0,0.0,0.0,0.0,0.0,13.0217,12.8304,12.7419,12.7985,12.7306,12.6928,12.7117,12.7829,12.7986,12.7602,12.6601,12.5293,12.3793,12.2985,12.2216,12.1293,12.0216,11.9485,11.91,11.8908,11.8908,11.91,11.9035,11.889,11.8774,11.7792,11.7293,11.7091,11.7091,11.6817,11.6631,11.874,11.9001,11.8379,12.0491,12.0517,11.9577,11.9904,11.9286,11.8326,11.7712,11.7,11.6484,11.6484,11.5677,11.4887,11.4887,11.47,11.4639,11.4639,11.5296,11.5993,11.5993,11.5993,11.6397,11.7792,11.8122,11.8416,11.9407,12.0104,12.0618,12.0912,12.0691,12.0618,12.0912,12.0912,12.0288,11.8599,11.8893,11.8416,11.6213,11.6507,11.6911,11.6911,11.7792,11.8709,11.9297,12.0288,12.0581,11.9994,12.0581,12.0581,11.9884,11.97,11.9187,11.8416,11.7792,11.7314,11.6911,11.6287,11.6103,0.0,0.0,0.0,0.0,0.0,0.0,0.0,0.0,0.0,0.0,0.0,0.0,0.0,0.0,0.0,0.0,0.0,0.0,0.0,0.0,12.9294,12.9294,12.7467,12.6287,12.6287,12.5608,12.5419,12.6212,12.5841,12.5909,12.6678,12.5178,12.3793,12.2985,12.21,12.1177,12.0408,11.8715,11.8292,11.91,11.8292,11.8292,11.91,11.9092,11.9131,11.8989,11.8003,11.7041,11.6271,11.6234,11.5169,11.4111,11.6556,11.7081,11.6679,11.938,11.9278,11.7918,11.8776,11.7975,11.6469,11.6601,11.6506,11.6484,11.6484,11.5321,11.3977,11.3977,11.3819,11.3697,11.3697,11.4836,11.5993,11.5993,11.5993,11.6213,11.7094,11.9113,12.0508,11.97,11.959,11.9884,12.0802,12.0214,11.9884,12.0802,12.0912,12.0288,11.8599,11.8416,11.7792,11.6177,11.5993,11.6103,11.6103,11.7498,11.8416,11.8489,11.9994,12.0912,12.0802,12.0912,12.0912,12.0802,11.9994,11.9187,11.8416,11.8416,11.7608,11.6103,11.5993,11.6397,0.0,0.0,0.0,0.0,0.0,0.0,0.0,0.0,0.0,0.0,0.0,0.0,0.0,0.0,0.0,0.0,0.0,0.0,12.7678,12.7101,12.6794,12.6794,12.5488,12.4853,12.5419,12.41,12.3569,12.4516,12.4028,12.4107,12.5024,12.3408,12.2408,12.21,12.0716,11.96,11.8715,11.81,11.7715,11.7407,11.71,11.71,11.7484,11.7984,11.8292,11.8169,11.7924,11.7536,11.7085,11.5844,11.5025,11.4475,11.5463,11.6065,11.6499,11.8127,11.818,11.7689,11.7498,11.6637,11.5626,11.5574,11.5681,11.5804,11.6316,11.5663,11.4687,11.4685,11.4647,11.4456,11.4375,11.5185,11.5993,11.5993,11.6801,11.7498,11.7204,11.8709,11.9994,11.97,12.0104,12.0508,12.0802,12.0618,12.0508,12.0875,12.0912,12.0508,11.9297,11.8709,11.8195,11.7608,11.7094,11.7204,11.8195,11.8783,11.9407,11.9994,12.0581,12.0618,12.0104,12.0581,12.0618,12.0104,12.0288,11.9994,11.9187,11.8709,11.8085,11.7498,11.7021,11.7204,0.0,0.0,0.0,0.0,0.0,0.0,0.0,0.0,0.0,0.0,0.0,0.0,0.0,0.0,0.0,0.0,12.7986,12.6794,12.5909,12.5293,12.4986,12.4986,12.402,12.3476,12.3683,12.241,12.18,12.2449,12.21,12.2306,12.3215,12.1929,12.0908,12.0292,11.9215,11.8215,11.7407,11.7407,11.71,11.6484,11.6484,11.6316,11.608,11.6694,11.6886,11.6886,11.6886,11.7093,11.7155,11.5873,11.5093,11.4572,11.4946,11.5201,11.5601,11.6485,11.6623,11.6296,11.5803,11.5185,11.4587,11.44,11.4512,11.4907,11.5766,11.5189,11.4414,11.4883,11.4834,11.4493,11.4706,11.5406,11.5993,11.5993,11.6984,11.7902,11.7718,11.8893,11.9884,11.97,12.0288,12.0912,12.0912,12.0912,12.0912,12.0912,12.0912,12.0581,11.97,11.9113,11.8709,11.8416,11.7902,11.8012,11.9113,11.9407,11.9811,12.0398,12.0691,12.0618,12.0104,12.0581,12.0618,11.9994,12.0288,12.0178,11.959,11.9076,11.8709,11.8416,11.7902,11.8012,0.0,0.0,0.0,0.0,0.0,0.0,0.0,0.0,0.0,0.0,0.0,0.0,0.0,0.0,12.6601,12.6601,12.5909,12.4986,12.4216,12.3985,12.3985,12.3985,12.3218,12.228,12.1377,12.0481,11.9931,11.9781,11.9997,12.0491,12.1312,12.0607,11.9485,11.7792,11.7792,11.7407,11.6484,11.6484,11.6484,11.6484,11.6522,11.6003,11.521,11.521,11.521,11.521,11.521,11.5668,11.6469,11.6431,11.5393,11.4015,11.4779,11.459,11.3987,11.4779,11.4525,11.3701,11.3663,11.3701,11.3473,11.2732,11.3108,11.4005,11.4887,11.3902,11.2888,11.4619,11.445,11.3844,11.4598,11.5406,11.5993,11.5993,11.6617,11.7425,11.8195,11.97,12.0618,11.9774,12.0288,12.0912,12.0912,12.0912,12.0912,12.0912,12.0912,12.0581,11.97,11.959,11.9297,11.8599,11.8489,11.8489,11.8489,11.9297,11.97,11.97,12.0508,12.0985,12.0912,12.0985,12.0985,12.0912,12.0104,11.97,11.97,11.959,11.9187,11.8416,11.8489,11.8893,7.1838,0.0,0.0,0.0,0.0,0.0,9.5366,9.8858,10.3281,0.0,0.0,11.91,12.4216,12.4986,12.4601,12.3985,12.3716,12.3485,12.3293,12.2716,12.2293,12.2293,12.1993,12.1368,12.0509,11.9519,11.8716,0.0,11.7604,11.7722,11.8699,11.8612,11.7984,11.6907,11.6907,11.6715,11.6484,11.6484,11.6484,11.6484,11.5893,11.5429,11.521,11.4512,11.4339,11.4301,11.4907,11.5287,11.5592,11.5515,11.5326,11.4828,11.44,11.41,11.3911,11.41,11.3624,11.2807,11.2881,11.2443,11.2011,11.2423,11.2662,11.3111,11.4043,11.3873,11.3582,11.401,11.4297,11.4725,11.5441,11.581,11.5993,11.5993,11.7094,11.8122,11.8379,11.97,12.0802,12.0581,12.0691,12.0912,12.0912,12.0912,12.0912,12.0912,12.0912,12.0802,12.0581,11.9994,11.9994,12.0985,12.0581,12.0691,12.1793,12.2123,12.2307,12.2307,12.249,12.238,12.1793,12.2307,12.238,12.1793,12.1499,12.1389,12.1389,12.0178,11.948,11.9297,11.9884,11.9994,0.0,0.0,0.0,0.0,0.0,0.0,9.0004,9.2765,9.6627,0.0,11.139,11.4714,12.0408,12.1793,12.1775,12.1335,12.1208,12.1501,12.2284,12.1908,12.16,12.16,12.1489,12.0836,11.9218,11.8504,11.7521,11.592,11.5694,11.6102,11.7098,11.7614,11.7407,11.6484,11.6484,11.6484,11.6484,11.6484,11.6484,11.6484,11.5993,11.5413,11.4573,11.4135,11.3709,11.3286,11.3911,11.4512,11.521,11.521,11.5375,11.5702,11.4828,11.4199,11.3882,11.3502,11.2701,11.202,11.202,11.1557,11.1272,11.181,11.202,11.2109,11.3036,11.3111,11.2925,11.3477,11.4312,11.5037,11.5404,11.5699,11.5993,11.5993,11.6984,11.8012,11.8306,11.9407,12.0508,12.0802,12.0912,12.0912,12.0912,12.0912,12.0912,12.0912,12.0912,12.0985,12.1389,12.0985,12.1095,12.249,12.2196,12.2307,12.3224,12.3298,12.3298,12.3298,12.3298,12.3114,12.26,12.3114,12.3114,12.26,12.26,12.26,12.26,12.0912,12.0104,12.0178,12.0691,12.0618,0.0,0.0,0.0,0.0,0.0,0.0,8.812,8.9516,9.1583,10.1922,10.7104,11.1214,11.5715,11.7484,11.8106,11.7573,11.8109,11.9288,12.1178,12.139,12.1515,12.16,12.16,12.0529,11.7888,11.7571,11.6481,11.3676,11.4252,11.5204,11.6221,11.7017,11.7162,11.6484,11.6407,11.6407,11.6407,11.6292,11.6292,11.6407,11.6324,11.5406,11.3911,11.3731,11.3215,11.2427,11.2356,11.3351,11.4907,11.5116,11.5715,11.64,11.5587,11.4769,11.3806,11.3037,11.2028,11.1221,11.1221,11.1221,11.1221,11.1221,11.1221,11.1286,11.2109,11.1773,11.147,11.3073,11.4101,11.4708,11.4818,11.5406,11.5993,11.5993,11.6617,11.7425,11.8195,11.9003,11.9774,12.0691,12.0912,12.0912,12.0802,12.0802,12.0912,12.0912,12.0985,12.1279,12.1976,12.2196,12.249,12.3298,12.3408,12.3518,12.3591,12.3591,12.3591,12.3591,12.3591,12.3518,12.3408,12.3518,12.3518,12.3408,12.3408,12.3408,12.3298,12.1793,12.0985,12.0985,12.0912,12.0912,0.0,0.0,0.0,0.0,0.0,0.0,8.0916,8.2646,8.6274,9.3701,9.7396,10.1212,10.7521,11.1021,11.2114,10.9392,11.3434,11.7689,12.0128,12.0511,12.0806,12.1515,12.16,12.0529,11.7888,11.7571,11.6182,11.2904,11.2872,11.3411,11.4373,11.5231,11.5996,11.6522,11.5907,11.5484,11.5484,11.4791,11.4791,11.5484,11.4809,11.4164,11.3911,11.2396,11.1716,11.146,11.1484,11.2104,11.3071,11.4573,11.5715,11.6484,11.627,11.5266,11.3911,11.3709,11.2623,11.1221,11.1221,11.1221,11.1221,11.1221,11.1221,11.1184,11.141,11.1323,11.1368,11.2367,11.3198,11.3974,11.4598,11.5406,11.5993,11.5993,11.6617,11.7425,11.8195,11.8489,11.9113,12.0581,12.0912,12.0691,11.9994,12.0398,12.0912,12.0912,12.1499,12.1903,12.2086,12.271,12.3408,12.4179,12.4289,12.4509,12.517,12.5206,12.5206,12.5206,12.5206,12.4913,12.4289,12.4876,12.4876,12.4289,12.4289,12.3922,12.3298,12.2307,12.1866,12.1866,12.1205,12.0912,0.0,0.0,0.0,7.8075,0.0,0.0,0.0,8.0982,8.3569,9.0286,9.2786,9.5711,10.2097,10.3905,10.4687,10.5078,10.8269,11.1599,11.4194,11.7482,11.9916,12.0775,12.0503,11.9176,11.6574,11.6284,11.5087,11.2059,11.2169,11.2701,11.3218,11.4488,11.5375,11.5817,11.5502,11.5291,11.5291,11.4407,11.4214,11.4599,11.42,11.3733,11.3275,11.1909,11.132,11.1144,11.0783,11.1107,11.1989,11.3346,11.4405,11.5292,11.6201,11.5715,11.4488,11.4108,11.3,11.181,11.136,11.1221,11.1221,11.1221,11.1221,11.1221,11.1221,11.1221,11.1295,11.1698,11.2396,11.3203,11.3974,11.4782,11.5479,11.5883,11.6287,11.6801,11.7608,11.7792,11.8195,11.9407,11.9994,12.0288,12.0214,12.0912,12.1499,12.1499,12.2196,12.2784,12.3188,12.3591,12.4215,12.4986,12.5096,12.528,12.5684,12.5684,12.5684,12.5684,12.5684,12.55,12.5096,12.55,12.55,12.5096,12.5096,12.4876,12.4509,12.3701,12.2894,12.2086,12.1279,12.0912,0.0,0.0,0.0,0.0,0.0,8.0498,0.0,0.0,0.0,8.7726,8.9473,9.1602,9.6711,0.0,0.0,9.9802,10.2297,10.4377,10.6168,11.1939,11.6469,11.8409,11.8201,11.7078,11.4794,11.3785,11.2724,11.1309,11.1301,11.1679,11.2509,11.4108,11.4869,11.4679,11.477,11.4602,11.4315,11.3604,11.3305,11.3497,11.3709,11.3395,11.2677,11.1575,11.1071,11.1016,11.0008,10.9971,11.0936,11.191,11.2718,11.3573,11.5281,11.5611,11.4811,11.3977,11.3036,11.2072,11.1423,11.1221,11.1221,11.1221,11.1221,11.1221,11.1221,11.1221,11.1221,11.1221,11.1808,11.2506,11.3203,11.3974,11.4782,11.5589,11.5773,11.5993,11.7021,11.7094,11.7314,11.8416,11.9003,11.97,12.0691,12.1572,12.2196,12.2307,12.3004,12.3812,12.4399,12.4582,12.4986,12.5573,12.5684,12.5684,12.5684,12.5684,12.5684,12.5684,12.5684,12.5684,12.5684,12.5684,12.5573,12.5463,12.5573,12.5684,12.5684,12.4693,12.3591,12.2307,12.1499,12.0985,0.0,0.0,0.0,0.0,8.6738,0.0,0.0,0.0,8.2852,8.2734,0.0,8.6508,0.0,0.0,0.0,0.0,9.4255,9.899,9.7413,10.1517,10.6715,11.2029,11.3783,11.4078,11.2963,10.9532,10.8419,11.1001,10.8554,10.8734,11.2282,11.3502,11.3665,11.2937,11.3042,11.2299,11.0794,11.0738,11.1021,11.1709,11.2483,11.2819,11.26,11.1083,11.0313,11.0123,10.8533,10.8297,10.9166,11.0778,11.1506,11.1766,11.3467,11.4135,11.394,11.3,11.2109,11.1323,11.1184,11.1221,11.1221,11.1221,11.1221,11.1221,11.1221,11.1221,11.1221,11.1221,11.1808,11.2396,11.2506,11.3093,11.3901,11.4708,11.4892,11.5406,11.6911,11.6617,11.6801,11.9003,11.9003,11.9003,12.0618,12.1572,12.2307,12.3114,12.3812,12.4399,12.4509,12.5096,12.5573,12.5684,12.5684,12.5684,12.5684,12.5684,12.5684,12.5684,12.5684,12.5684,12.5684,12.5684,12.539,12.4693,12.528,12.5684,12.5684,12.4179,12.3298,12.3114,12.2307,12.1572,0.0,0.0,0.0,0.0,0.0,0.0,8.1489,0.0,8.0763,0.0,0.0,0.0,0.0,0.0,0.0,0.0,8.9449,9.2156,9.1945,9.4887,9.9797,10.7206,10.6903,10.6497,10.7533,10.6452,10.6413,10.8285,10.6706,10.6848,10.9473,11.1355,11.2209,11.1909,11.1928,11.1386,11.024,10.972,10.9885,11.0672,11.1098,11.1477,11.1995,11.0793,11.0089,10.9955,10.8779,10.8173,10.8223,10.9861,11.0582,11.0683,11.1906,11.2963,11.3777,11.2814,11.2269,11.1856,11.1447,11.1221,11.1221,11.1221,11.1221,11.1221,11.1221,11.1221,11.1295,11.1808,11.1808,11.1919,11.2873,11.2983,11.3203,11.4488,11.4818,11.5112,11.6287,11.6213,11.658,11.8489,11.8599,11.9187,12.1793,12.26,12.2894,12.3224,12.4399,12.517,12.517,12.5096,12.517,12.5684,12.528,12.517,12.5684,12.5684,12.5684,12.5684,12.528,12.4803,12.4289,12.4289,12.4399,12.4509,12.4803,12.5206,12.5684,12.4986,12.4215,12.3298,12.2013,12.1205,9.3339,0.0,0.0,0.0,0.0,0.0,0.0,0.0,0.0,0.0,0.0,0.0,0.0,0.0,0.0,0.0,0.0,8.7733,8.7556,8.9064,9.289,10.0181,10.027,10.0722,10.3301,10.3293,10.3806,10.5605,10.3917,10.399,10.678,10.9099,11.0421,11.0593,11.0901,11.0501,10.9473,10.8923,10.8994,10.9827,11.0069,11.0689,11.1478,11.0601,11.0208,11.0089,10.8995,10.8288,10.7971,10.9228,10.9824,11.0105,11.0907,11.202,11.3111,11.239,11.2072,11.2102,11.1373,11.1221,11.1221,11.1221,11.1221,11.1221,11.1221,11.1221,11.1295,11.1919,11.1698,11.1515,11.2616,11.2506,11.2506,11.4084,11.4488,11.4782,11.5773,11.6177,11.669,11.8122,11.8599,11.959,12.2196,12.3004,12.3408,12.3885,12.4986,12.5684,12.5684,12.517,12.5096,12.5573,12.517,12.5096,12.5684,12.5684,12.5684,12.5684,12.517,12.4509,12.3701,12.3812,12.4105,12.4509,12.4693,12.4986,12.539,12.5096,12.4289,12.2894,12.2013,12.1316,0.0,0.0,0.0,9.1731,0.0,0.0,0.0,0.0,8.3917,0.0,0.0,0.0,0.0,0.0,0.0,0.0,0.0,0.0,0.0,8.3355,8.5028,8.9408,9.4705,9.926,10.2412,9.9952,9.9732,10.3696,9.9622,9.9365,10.4908,10.6875,10.8143,10.8885,10.9697,10.9405,10.772,10.7694,10.8059,10.9032,10.9809,11.0689,11.1478,11.0601,11.0214,11.0107,10.8442,10.8112,10.8781,10.8782,10.9276,11.0134,11.0891,11.1184,11.1272,11.1309,11.1148,11.1148,11.1184,11.1221,11.1221,11.1221,11.1221,11.1221,11.1221,11.1221,11.1221,11.1221,11.1221,11.1221,11.1295,11.1295,11.1625,11.3277,11.3607,11.4084,11.5699,11.6617,11.7425,11.8195,11.9003,11.9884,12.0802,12.2307,12.3812,12.539,12.5684,12.5684,12.5684,12.5684,12.5684,12.5684,12.5684,12.5684,12.5684,12.5684,12.5684,12.5684,12.5684,12.528,12.4509,12.5206,12.528,12.4509,12.528,12.528,12.4509,12.3812,12.3004,12.2196,12.2894,12.2417,0.0,0.0,10.531,9.7121,0.0,0.0,0.0,0.0,0.0,0.0,0.0,0.0,0.0,0.0,0.0,0.0,0.0,0.0,0.0,8.0079,7.9596,8.2692,8.9454,9.4079,9.463,9.4703,9.5511,9.7383,9.4997,9.5474,10.0099,10.3439,10.5318,10.5495,10.7418,10.7603,10.6009,10.6534,10.673,10.6487,10.8365,10.9505,10.9886,11.0692,11.0701,11.0199,10.9522,10.9103,10.882,10.9371,10.979,11.0083,11.0891,11.1221,11.1221,11.1221,11.1221,11.1221,11.1221,11.1221,11.1221,11.1221,11.1221,11.1221,11.1221,11.1221,11.1295,11.1808,11.1588,11.1405,11.2506,11.2396,11.2396,11.4011,11.4415,11.4708,11.5773,11.6617,11.7425,11.8195,11.9003,11.9994,12.1499,12.2086,12.2894,12.3922,12.4986,12.55,12.4986,12.4876,12.4876,12.4876,12.4876,12.5096,12.5684,12.5684,12.5463,12.4913,12.4876,12.4509,12.3701,12.3995,12.4215,12.4509,12.4803,12.4986,12.528,12.4509,12.3701,12.2894,12.26,12.1903,10.6597,10.758,0.0,10.1277,9.8102,0.0,8.6936,0.0,8.9061,0.0,0.0,0.0,0.0,0.0,0.0,0.0,0.0,0.0,0.0,7.8551,7.7957,7.9974,8.582,8.9784,9.0152,9.1063,9.1686,9.1693,9.0398,9.1245,9.507,9.9145,10.2081,10.3806,10.5972,10.667,10.5605,10.5789,10.5737,10.5169,10.6812,10.791,10.8627,10.9984,11.0501,11.0181,10.984,10.9734,10.9674,10.9575,10.99,11.0487,11.1001,11.1221,11.1221,11.1221,11.1221,11.1221,11.1221,11.1221,11.1221,11.1221,11.1221,11.1221,11.1221,11.1221,11.1515,11.291,11.2506,11.2102,11.3974,11.3607,11.3203,11.4488,11.4818,11.5002,11.581,11.6617,11.7425,11.8195,11.9003,11.9994,12.1389,12.1903,12.238,12.3188,12.4179,12.4693,12.4105,12.4105,12.4105,12.4105,12.4289,12.4803,12.5573,12.5684,12.55,12.4986,12.4876,12.4693,12.4179,12.4179,12.4509,12.5317,12.5096,12.517,12.5684,12.4876,12.3885,12.2894,12.2307,12.1683]},{"header":{"parameterUnit":"m.s-1","parameterCategory":1,"la1":30.6,"la2":29.2853,"lo1":-89.7004,"lo2":-87.6739,"dy":0.0162,"dx":0.0183,"nx":112,"ny":82,"refTime":"2023-10-15T18:00:00:Z","depth":0,"parameterNumber":3,"parameterNumberName":"V-component_of_WINDS"},"data":[0.0,0.0,0.0,0.0,0.0,0.0,0.0,0.0,0.0,0.0,0.0,0.0,0.0,0.0,0.0,0.0,0.0,0.0,0.0,0.0,0.0,0.0,0.0,0.0,0.0,0.0,0.0,0.0,0.0,0.0,0.0,0.0,0.0,0.0,0.0,0.0,0.0,0.0,0.0,0.0,0.0,0.0,0.0,0.0,0.0,0.0,0.0,0.0,0.0,0.0,0.0,0.0,0.0,0.0,0.0,0.0,0.0,0.0,0.0,0.0,0.0,0.0,0.0,0.0,0.0,0.0,0.0,0.0,0.0,0.0,0.0,0.0,0.0,0.0,0.0,0.0,0.0,0.0,0.0,0.0,0.0,0.0,0.0,0.0,0.0,0.0,0.0,0.0,0.0,0.0,0.0,-2.6426,-3.1276,-3.4576,-3.5204,-3.4563,-3.2291,-2.803,0.0,0.0,0.0,0.0,0.0,0.0,0.0,0.0,0.0,0.0,0.0,0.0,0.0,0.0,0.0,0.0,0.0,0.0,0.0,0.0,0.0,0.0,0.0,0.0,0.0,0.0,0.0,0.0,0.0,0.0,0.0,0.0,0.0,0.0,0.0,0.0,0.0,0.0,0.0,0.0,0.0,0.0,0.0,0.0,0.0,0.0,0.0,0.0,0.0,0.0,0.0,0.0,0.0,0.0,0.0,0.0,0.0,0.0,0.0,0.0,0.0,0.0,0.0,0.0,0.0,0.0,0.0,0.0,0.0,0.0,0.0,0.0,0.0,0.0,0.0,0.0,0.0,0.0,0.0,0.0,0.0,0.0,0.0,0.0,0.0,0.0,0.0,0.0,0.0,0.0,0.0,0.0,0.0,0.0,0.0,0.0,0.0,0.0,0.0,0.0,0.0,0.0,0.0,0.0,-2.4436,-2.9513,-3.2612,-3.4656,-3.5498,-3.4095,-3.1717,-2.8297,0.0,0.0,0.0,0.0,0.0,0.0,0.0,0.0,0.0,0.0,0.0,0.0,0.0,0.0,0.0,0.0,0.0,0.0,0.0,0.0,0.0,0.0,0.0,0.0,0.0,0.0,0.0,0.0,0.0,0.0,0.0,0.0,0.0,0.0,0.0,0.0,0.0,0.0,0.0,0.0,0.0,0.0,0.0,0.0,0.0,0.0,0.0,0.0,0.0,0.0,0.0,0.0,0.0,0.0,0.0,0.0,0.0,0.0,0.0,0.0,0.0,0.0,0.0,0.0,0.0,0.0,0.0,0.0,0.0,0.0,0.0,0.0,0.0,0.0,0.0,0.0,0.0,0.0,0.0,0.0,0.0,0.0,0.0,0.0,0.0,0.0,0.0,0.0,0.0,0.0,0.0,0.0,0.0,0.0,0.0,0.0,0.0,0.0,0.0,0.0,0.0,0.0,0.0,-2.4168,-2.676,-3.1263,-3.3574,-3.5017,-3.5578,-3.4442,-3.2251,-2.8845,-2.7094,0.0,0.0,0.0,0.0,0.0,0.0,0.0,0.0,0.0,0.0,0.0,0.0,0.0,0.0,0.0,0.0,0.0,0.0,0.0,0.0,0.0,0.0,0.0,0.0,0.0,0.0,0.0,0.0,0.0,0.0,0.0,0.0,0.0,0.0,0.0,0.0,0.0,0.0,0.0,0.0,0.0,0.0,0.0,0.0,0.0,0.0,0.0,0.0,0.0,0.0,0.0,0.0,0.0,0.0,0.0,0.0,0.0,0.0,0.0,0.0,0.0,0.0,0.0,0.0,0.0,0.0,0.0,0.0,0.0,0.0,0.0,0.0,0.0,0.0,0.0,0.0,0.0,0.0,0.0,0.0,0.0,0.0,0.0,0.0,0.0,0.0,0.0,0.0,0.0,0.0,0.0,0.0,0.0,0.0,0.0,0.0,0.0,0.0,0.0,0.0,0.0,0.0,-2.6907,-2.9032,-3.2305,-3.4175,-3.5311,-3.5605,-3.4442,-3.2358,-2.9232,-2.6987,0.0,0.0,0.0,0.0,0.0,0.0,0.0,0.0,0.0,0.0,0.0,0.0,0.0,0.0,0.0,0.0,0.0,0.0,0.0,0.0,0.0,0.0,0.0,0.0,0.0,0.0,0.0,0.0,0.0,0.0,0.0,0.0,0.0,0.0,0.0,0.0,0.0,0.0,0.0,0.0,0.0,0.0,0.0,0.0,0.0,0.0,0.0,0.0,0.0,0.0,0.0,0.0,0.0,0.0,0.0,0.0,0.0,0.0,0.0,0.0,0.0,0.0,0.0,0.0,0.0,0.0,0.0,0.0,0.0,0.0,0.0,0.0,0.0,0.0,0.0,0.0,0.0,0.0,0.0,0.0,0.0,0.0,0.0,0.0,0.0,0.0,0.0,0.0,0.0,0.0,0.0,0.0,0.0,0.0,0.0,0.0,0.0,0.0,0.0,0.0,0.0,0.0,-2.7415,-3.0261,-3.2692,-3.4295,-3.5311,-3.5605,-3.3307,-3.1049,-2.9165,-2.5838,0.0,0.0,0.0,0.0,0.0,0.0,0.0,0.0,0.0,0.0,0.0,0.0,0.0,0.0,0.0,0.0,0.0,0.0,0.0,0.0,0.0,0.0,0.0,0.0,0.0,0.0,0.0,0.0,0.0,0.0,0.0,0.0,0.0,0.0,0.0,0.0,0.0,0.0,0.0,0.0,0.0,0.0,0.0,0.0,0.0,0.0,0.0,0.0,0.0,0.0,0.0,0.0,0.0,0.0,0.0,0.0,0.0,0.0,0.0,0.0,0.0,0.0,0.0,0.0,0.0,0.0,0.0,0.0,0.0,0.0,0.0,0.0,0.0,0.0,0.0,0.0,0.0,0.0,0.0,0.0,0.0,0.0,0.0,0.0,0.0,0.0,0.0,0.0,0.0,0.0,0.0,0.0,0.0,0.0,0.0,0.0,0.0,0.0,0.0,0.0,0.0,0.0,-2.7816,-3.0528,0.0,-3.4536,-3.5244,-3.5351,-3.4108,-3.2091,-2.9219,0.0,0.0,0.0,0.0,0.0,0.0,0.0,0.0,0.0,0.0,0.0,0.0,0.0,0.0,0.0,0.0,0.0,0.0,0.0,0.0,0.0,0.0,0.0,0.0,0.0,0.0,0.0,0.0,0.0,0.0,0.0,0.0,0.0,0.0,0.0,0.0,0.0,0.0,0.0,0.0,0.0,0.0,0.0,0.0,0.0,0.0,0.0,0.0,0.0,0.0,0.0,0.0,0.0,0.0,0.0,0.0,0.0,0.0,0.0,0.0,0.0,0.0,0.0,0.0,0.0,0.0,0.0,0.0,0.0,0.0,0.0,0.0,0.0,0.0,0.0,0.0,0.0,0.0,0.0,0.0,0.0,0.0,0.0,0.0,0.0,0.0,0.0,0.0,0.0,0.0,0.0,0.0,0.0,0.0,0.0,0.0,0.0,0.0,0.0,0.0,0.0,0.0,-2.5611,-2.827,-3.0929,0.0,-3.475,-3.5297,-3.5204,-3.4055,-3.2064,-2.9085,0.0,0.0,0.0,0.0,0.0,0.0,0.0,0.0,0.0,0.0,0.0,0.0,0.0,0.0,0.0,0.0,0.0,0.0,0.0,0.0,0.0,0.0,0.0,0.0,0.0,0.0,0.0,0.0,0.0,0.0,0.0,0.0,0.0,0.0,0.0,0.0,0.0,0.0,0.0,0.0,0.0,0.0,0.0,0.0,0.0,0.0,0.0,0.0,0.0,0.0,0.0,0.0,0.0,0.0,0.0,0.0,0.0,0.0,0.0,0.0,0.0,0.0,0.0,0.0,0.0,0.0,0.0,0.0,0.0,0.0,0.0,0.0,0.0,0.0,0.0,0.0,0.0,0.0,0.0,0.0,0.0,0.0,0.0,0.0,0.0,0.0,0.0,0.0,0.0,0.0,0.0,0.0,0.0,0.0,0.0,0.0,0.0,0.0,0.0,0.0,0.0,0.0,-2.5692,-2.8791,-3.1597,-3.3668,-3.4937,-3.5511,-3.5217,-3.2772,-3.0488,0.0,0.0,0.0,0.0,0.0,0.0,0.0,0.0,0.0,0.0,0.0,0.0,0.0,0.0,0.0,0.0,0.0,0.0,0.0,0.0,0.0,0.0,0.0,0.0,0.0,0.0,0.0,0.0,0.0,0.0,0.0,0.0,0.0,0.0,0.0,0.0,0.0,0.0,0.0,0.0,0.0,0.0,0.0,0.0,0.0,0.0,0.0,0.0,0.0,0.0,0.0,0.0,0.0,0.0,0.0,0.0,0.0,0.0,0.0,0.0,0.0,0.0,0.0,0.0,0.0,0.0,0.0,0.0,0.0,0.0,0.0,0.0,0.0,0.0,0.0,0.0,0.0,0.0,0.0,0.0,0.0,0.0,0.0,0.0,0.0,0.0,0.0,0.0,0.0,0.0,0.0,0.0,0.0,0.0,0.0,0.0,0.0,0.0,0.0,0.0,0.0,0.0,0.0,-2.5972,-2.8911,-3.1664,-3.3948,-3.487,-3.5284,-3.5204,-3.3708,-3.157,-2.8778,0.0,0.0,0.0,0.0,0.0,0.0,0.0,0.0,0.0,0.0,0.0,0.0,0.0,0.0,0.0,0.0,0.0,0.0,0.0,0.0,0.0,0.0,0.0,0.0,0.0,0.0,0.0,0.0,0.0,0.0,0.0,0.0,0.0,0.0,0.0,0.0,0.0,0.0,0.0,0.0,0.0,0.0,0.0,0.0,0.0,0.0,0.0,0.0,0.0,0.0,0.0,0.0,0.0,0.0,0.0,0.0,0.0,0.0,0.0,0.0,0.0,0.0,0.0,0.0,0.0,0.0,0.0,0.0,0.0,0.0,0.0,0.0,0.0,0.0,0.0,0.0,0.0,0.0,0.0,0.0,0.0,0.0,0.0,0.0,0.0,0.0,0.0,0.0,0.0,0.0,0.0,0.0,0.0,0.0,0.0,0.0,0.0,0.0,0.0,0.0,0.0,0.0,-2.6079,-2.8871,-3.153,-3.3895,-3.467,-3.507,-3.5191,-3.4095,-3.1984,-2.8631,0.0,0.0,0.0,0.0,0.0,0.0,0.0,0.0,0.0,0.0,0.0,0.0,0.0,0.0,0.0,0.0,0.0,0.0,0.0,0.0,0.0,0.0,0.0,0.0,0.0,0.0,0.0,0.0,0.0,0.0,0.0,0.0,0.0,0.0,0.0,0.0,0.0,0.0,0.0,0.0,0.0,0.0,0.0,0.0,0.0,0.0,0.0,0.0,0.0,0.0,0.0,0.0,0.0,0.0,0.0,0.0,0.0,0.0,0.0,0.0,0.0,0.0,0.0,0.0,0.0,0.0,0.0,0.0,0.0,0.0,0.0,0.0,0.0,0.0,0.0,0.0,0.0,0.0,0.0,0.0,0.0,0.0,0.0,0.0,0.0,0.0,0.0,0.0,0.0,0.0,0.0,0.0,0.0,0.0,0.0,0.0,0.0,0.0,0.0,0.0,0.0,0.0,-2.6092,-2.8711,-3.1249,-3.3587,-3.4362,-3.4843,-3.5137,-3.4055,-3.1917,-2.8524,0.0,0.0,0.0,0.0,0.0,0.0,0.0,0.0,0.0,0.0,0.0,0.0,0.0,0.0,0.0,0.0,0.0,0.0,0.0,0.0,0.0,0.0,0.0,0.0,0.0,0.0,0.0,0.0,0.0,0.0,0.0,0.0,0.0,0.0,0.0,0.0,0.0,0.0,0.0,0.0,0.0,0.0,0.0,0.0,0.0,0.0,0.0,0.0,0.0,0.0,0.0,0.0,0.0,0.0,0.0,0.0,0.0,0.0,0.0,0.0,-1.6074,0.0,0.0,0.0,0.0,0.0,0.0,0.0,0.0,0.0,0.0,0.0,0.0,0.0,0.0,0.0,0.0,0.0,0.0,0.0,0.0,0.0,0.0,0.0,0.0,0.0,0.0,0.0,0.0,0.0,0.0,0.0,0.0,0.0,0.0,0.0,0.0,0.0,0.0,0.0,0.0,0.0,-2.6119,-2.8711,-3.1169,-3.3293,-3.4055,-3.4536,-3.483,-3.3761,-3.2064,-2.9686,-2.7348,0.0,0.0,0.0,0.0,0.0,0.0,0.0,0.0,0.0,0.0,0.0,0.0,0.0,0.0,0.0,0.0,0.0,0.0,0.0,0.0,0.0,0.0,0.0,0.0,0.0,0.0,0.0,0.0,0.0,0.0,0.0,0.0,0.0,0.0,0.0,0.0,0.0,0.0,0.0,0.0,0.0,0.0,0.0,0.0,0.0,0.0,0.0,0.0,0.0,0.0,0.0,0.0,0.0,0.0,0.0,0.0,0.0,0.0,0.0,0.0,-1.4855,0.0,0.0,0.0,0.0,0.0,0.0,0.0,0.0,0.0,0.0,0.0,0.0,0.0,0.0,0.0,0.0,0.0,0.0,0.0,0.0,0.0,0.0,0.0,0.0,0.0,0.0,0.0,0.0,0.0,0.0,0.0,0.0,0.0,0.0,0.0,0.0,0.0,0.0,0.0,0.0,-2.6319,-2.8671,-3.0929,-3.2986,-3.3868,-3.4389,-3.4536,-3.3855,-3.2478,-3.0274,-2.8163,0.0,0.0,0.0,0.0,0.0,0.0,0.0,0.0,0.0,0.0,0.0,0.0,0.0,0.0,0.0,0.0,0.0,0.0,0.0,0.0,0.0,0.0,0.0,0.0,0.0,0.0,0.0,0.0,0.0,0.0,0.0,0.0,0.0,0.0,0.0,0.0,0.0,0.0,0.0,0.0,0.0,0.0,0.0,0.0,0.0,0.0,0.0,0.0,0.0,0.0,0.0,0.0,0.0,-2.6039,-2.6004,-2.5594,-2.3464,-2.1184,-1.8749,-1.7779,-1.5163,-1.1736,0.0,0.0,0.0,0.0,0.0,0.0,0.0,0.0,0.0,0.0,0.0,0.0,0.0,0.0,0.0,0.0,0.0,0.0,0.0,0.0,0.0,0.0,0.0,0.0,0.0,-2.2619,-2.2245,-2.0735,0.0,0.0,0.0,0.0,0.0,0.0,0.0,0.0,0.0,0.0,0.0,-2.6319,-2.8537,-3.0662,-3.2612,-3.3627,-3.4189,-3.4242,-3.3975,-3.2933,-3.0875,-2.9259,-2.7201,0.0,0.0,0.0,0.0,0.0,0.0,0.0,0.0,0.0,0.0,0.0,0.0,0.0,0.0,0.0,0.0,0.0,0.0,0.0,0.0,0.0,0.0,0.0,0.0,0.0,0.0,0.0,0.0,0.0,0.0,0.0,0.0,-2.0384,-1.9064,0.0,0.0,0.0,0.0,0.0,0.0,0.0,0.0,0.0,0.0,0.0,0.0,0.0,-2.493,-2.5491,-2.6867,-2.7495,-2.7362,-2.8698,-2.7708,-2.4613,-2.4615,-2.205,-1.7814,-1.7704,0.0,-1.2484,-1.4011,0.0,0.0,0.0,0.0,0.0,0.0,0.0,0.0,0.0,0.0,0.0,0.0,0.0,0.0,0.0,0.0,0.0,0.0,0.0,0.0,0.0,0.0,-2.3113,-2.3193,-2.3407,-2.346,0.0,-2.2111,-2.1336,-2.1002,-2.0388,0.0,0.0,0.0,0.0,0.0,0.0,0.0,-2.5545,-2.8163,-3.0501,-3.2051,-3.3,-3.3641,-3.3921,-3.3654,-3.3133,-3.2305,-3.0394,-2.8671,-2.7241,-2.4796,0.0,0.0,0.0,0.0,0.0,0.0,0.0,0.0,0.0,0.0,0.0,0.0,0.0,0.0,0.0,0.0,0.0,0.0,0.0,0.0,0.0,0.0,0.0,0.0,0.0,0.0,0.0,0.0,0.0,-2.1871,-2.1836,-1.8994,-2.1543,-2.2225,0.0,0.0,0.0,0.0,0.0,0.0,0.0,0.0,0.0,-2.5651,-2.6573,-2.7268,-2.7682,-2.8978,-2.99,-3.0434,-2.952,-2.8415,-2.7071,-2.396,-2.1256,-1.9142,-1.7771,-1.618,-1.4679,-1.4455,-1.5964,-1.8339,0.0,0.0,0.0,0.0,-2.2832,-2.2899,-2.3554,-2.3781,0.0,-2.3808,0.0,0.0,0.0,0.0,0.0,0.0,0.0,0.0,0.0,0.0,-2.505,-2.505,-2.5398,-2.5651,-2.5358,-2.4369,-2.3193,0.0,-2.1817,-2.1697,-2.1456,0.0,0.0,0.0,0.0,-2.4569,-2.6279,-2.8644,-3.0728,-3.2198,-3.3146,-3.3668,-3.3627,-3.3654,-3.3427,-3.2826,-3.149,-3.0034,-2.8511,-2.6867,-2.5077,0.0,0.0,0.0,0.0,0.0,0.0,0.0,0.0,0.0,0.0,0.0,0.0,0.0,0.0,0.0,0.0,0.0,0.0,0.0,0.0,0.0,0.0,0.0,0.0,0.0,0.0,0.0,0.0,-2.3273,-2.3078,-1.9095,-2.2513,-2.349,0.0,0.0,0.0,0.0,0.0,0.0,-2.5785,-2.6426,-2.7148,-2.803,-2.9138,-2.994,-3.0381,-3.0708,-3.1672,-3.3334,-2.977,-2.832,-2.8432,-2.3509,-2.0701,-1.9788,-1.7796,-1.6876,-1.6686,-1.5079,-1.6245,-1.8894,-1.7955,-2.0016,-2.351,-2.3651,-2.4071,-2.4676,-2.5545,-2.5798,-2.5511,-2.4466,-2.3877,-2.343,-2.2629,0.0,0.0,0.0,0.0,-2.3915,-2.4502,-2.5678,-2.6787,-2.7014,-2.7455,-2.7776,-2.7549,-2.676,-2.5478,0.0,-2.31,-2.302,-2.2432,0.0,0.0,0.0,0.0,-2.4903,-2.68,-2.8978,-3.0862,-3.2185,-3.3187,-3.3668,-3.3427,-3.3627,-3.3574,-3.312,-3.2412,-3.1356,-2.9887,-2.8818,-2.7054,-2.4502,0.0,0.0,0.0,0.0,0.0,0.0,0.0,0.0,0.0,0.0,0.0,0.0,0.0,0.0,0.0,0.0,0.0,0.0,0.0,0.0,0.0,0.0,0.0,0.0,0.0,0.0,0.0,0.0,0.0,-1.8948,-2.4074,0.0,0.0,0.0,0.0,-2.4917,-2.5478,-2.644,-2.7909,-2.8564,-2.9659,-3.137,-3.2291,-3.3173,-3.4042,-3.1928,-3.2368,-3.5471,-2.9855,-2.7075,-2.7095,-2.42,-2.1189,-1.8253,-1.8023,-1.7846,-1.7473,-1.5967,-1.627,-1.7681,-1.6617,-1.897,-2.2693,-2.2648,-2.4332,-2.668,-2.6734,-2.6573,-2.6149,-2.4589,-2.3634,-2.3139,-2.4078,-2.4476,0.0,0.0,-2.4329,-2.513,-2.5718,-2.6747,-2.7843,-2.8698,-2.9152,-2.9366,-2.9352,-2.9085,-2.7989,0.0,-2.3634,-2.2966,-2.322,0.0,-2.2766,-2.2832,-2.4315,-2.5665,-2.6346,-2.8738,-3.0715,-3.161,-3.2746,-3.3427,-3.3414,-3.3427,-3.3427,-3.3387,-3.3093,-3.2625,-3.1971,-3.0568,-2.9072,-2.7509,-2.5277,0.0,0.0,0.0,0.0,0.0,0.0,0.0,0.0,0.0,0.0,0.0,0.0,0.0,0.0,0.0,0.0,0.0,0.0,0.0,0.0,0.0,0.0,0.0,0.0,0.0,0.0,0.0,0.0,-2.119,-2.3304,0.0,0.0,-2.2363,-2.4901,-2.741,-2.835,-2.9513,-3.1169,-3.2358,-3.2423,-3.1279,-3.2093,-3.1757,-2.98,-2.932,-2.9523,-3.0665,-2.6846,-2.4979,-2.4657,-2.189,-1.9726,-1.8518,-1.8518,-1.8409,-1.8158,-1.7541,-1.8055,-1.9159,-1.8379,-1.9726,-2.2464,-2.4163,-2.55,-2.62,-2.654,-2.6601,-2.6042,-2.287,-2.2233,-2.2681,-2.2781,-2.4087,-2.5518,-2.5692,-2.6373,-2.7188,-2.7789,-2.8671,-2.9486,-2.982,-2.9967,-3.0047,-3.0047,-2.982,-2.9245,-2.7989,-2.648,-2.5264,-2.481,-2.4168,-2.3915,-2.4476,-2.5264,-2.6293,-2.7642,-2.9312,-3.0835,-3.2104,-3.2772,-3.3213,-3.34,-3.3414,-3.3334,-3.3146,-3.304,-3.2639,-3.1851,-3.0955,-2.9606,-2.7736,-2.6319,-2.493,0.0,0.0,0.0,0.0,0.0,0.0,0.0,0.0,0.0,0.0,0.0,0.0,0.0,0.0,0.0,0.0,0.0,0.0,0.0,0.0,0.0,0.0,0.0,0.0,0.0,0.0,-2.4835,-2.3182,-2.3786,-2.346,-2.129,-2.3599,-2.6406,-2.9005,-3.1015,-3.2274,-3.2544,-3.3612,-3.3066,-3.0208,-3.0791,-3.0196,-2.7932,-2.7206,-2.7548,-2.8493,-2.4366,-2.311,-2.3833,-2.0882,-1.9379,-1.9135,-1.9081,-1.8952,-1.8742,-1.8599,-1.8978,-1.9677,-1.8768,-1.9676,-2.1828,-2.3607,-2.4789,-2.545,-2.5604,-2.5224,-2.4031,-2.1949,-2.1854,-2.2708,-2.2973,-2.5124,-2.7348,-2.7642,-2.835,-2.9125,-2.9526,-3.0287,-3.0942,-3.0942,-3.0942,-3.0942,-3.0942,-3.0715,-3.0421,-3.0127,-2.8791,-2.7442,-2.6547,-2.5838,-2.5611,-2.6293,-2.648,-2.7148,-2.8831,-2.99,-3.0996,-3.2265,-3.2746,-3.3093,-3.3387,-3.3414,-3.324,-3.2853,-3.2732,-3.2291,-3.141,-3.1089,-3.0114,-2.8337,-2.6653,-2.5024,-2.3447,0.0,0.0,0.0,0.0,0.0,0.0,0.0,0.0,0.0,0.0,0.0,0.0,0.0,0.0,0.0,0.0,0.0,0.0,0.0,0.0,0.0,0.0,0.0,-2.6344,-2.6857,-2.6365,-2.4628,-2.5547,-2.4808,-2.0709,-2.5518,-2.8972,-2.9671,-3.2973,-3.4057,-3.1982,-3.2284,-3.1011,-2.8434,-2.8633,-2.8852,-2.907,-2.6123,-2.6211,-2.9349,-2.3052,-2.1822,-2.4746,-2.1581,-2.0031,-1.9875,-1.9732,-1.9501,-1.9203,-1.9061,-1.8918,-1.8674,-1.7792,-1.8837,-2.0952,-2.0778,-2.2265,-2.4426,-2.3998,-2.2134,-2.0175,-2.2104,-2.2894,-2.3251,-2.5057,-2.7752,-2.9913,-2.9633,-3.0167,-3.0835,-3.0835,-3.1476,-3.2118,-3.2118,-3.2118,-3.2118,-3.2118,-3.1891,-3.161,-3.1316,-3.0341,-2.9285,-2.8377,-2.7963,-2.7869,-2.815,-2.7949,0.0,-2.9753,-3.0448,-3.1142,-3.2038,-3.2652,-3.3106,-3.34,-3.3414,-3.3146,-3.2545,-3.2211,-3.165,-3.0782,-3.1009,-3.0595,-2.9432,-2.6293,-2.3794,-2.2058,0.0,0.0,0.0,0.0,0.0,0.0,0.0,0.0,0.0,0.0,0.0,0.0,0.0,0.0,0.0,0.0,0.0,0.0,0.0,0.0,0.0,0.0,-2.5208,-2.9488,-2.5713,-2.3548,-2.6847,-2.4037,-2.2273,-2.2854,-2.4206,-2.5938,-2.8345,-2.9858,-3.0506,-3.0004,-3.0553,-3.0649,-3.0043,-2.7642,-2.669,-2.7003,-2.3441,-2.2095,-2.2717,-2.1224,-2.0922,-2.1333,-2.0811,-2.0275,-2.0031,-1.9997,-1.982,-1.9535,-1.9488,-1.9257,-1.8871,-1.8301,-1.8427,-1.9119,-2.0913,-2.1746,-2.2223,-2.2175,-2.0125,-1.7909,-1.8225,-2.0733,-2.3809,-2.4344,-2.7535,-3.1169,-3.1089,-3.1396,-3.1744,-3.1744,-3.2078,-3.2425,-3.2425,-3.2425,-3.2425,-3.2425,-3.2358,-3.2211,-3.1917,-3.1784,-3.1289,-2.998,-2.9499,-2.9339,-2.9419,-2.9352,0.0,-3.0448,-3.0875,-3.153,-3.2625,-3.3066,-3.3414,-3.3734,-3.3347,-3.2666,-3.165,-3.0915,-3.0314,-2.986,-2.9513,-2.8871,-2.7896,-2.6159,-2.4716,0.0,0.0,0.0,0.0,0.0,0.0,0.0,0.0,0.0,0.0,0.0,0.0,0.0,0.0,0.0,0.0,0.0,0.0,0.0,0.0,0.0,0.0,-2.2971,-2.4505,-2.9307,-2.509,-2.2817,-2.65,-2.3097,-2.12,-2.2988,-2.3928,-2.546,-2.7266,-2.8904,-2.9297,-2.8188,-2.8439,-2.8114,-2.6922,-2.4749,-2.3683,-2.401,-2.1811,-2.0702,-2.0614,-2.079,-2.0736,-2.0492,-2.0594,-2.0539,-2.0383,-2.0241,-2.0098,-1.9942,-1.9875,-1.9698,0.0,0.0,0.0,0.0,0.0,-2.007,-1.9846,-1.9746,-1.855,-1.7134,-1.6958,-2.0472,-2.4518,-2.4497,-2.8206,-3.2345,-3.2104,-3.2332,-3.2625,-3.2505,-3.2692,-3.2906,-3.2906,-3.3013,-3.3066,-3.2933,-3.3013,-3.3013,-3.2706,-3.2692,0.0,-3.161,-3.1009,-3.0688,-3.0808,-3.0515,-3.0581,-3.1423,-3.1463,-3.181,-3.2866,-3.3133,-3.336,-3.3654,-3.3253,0.0,0.0,0.0,-2.9806,-2.9138,-2.8537,0.0,0.0,0.0,-2.5451,-2.4569,-2.4102,0.0,0.0,-2.2869,-2.2907,0.0,0.0,0.0,0.0,0.0,0.0,0.0,0.0,0.0,0.0,0.0,0.0,0.0,0.0,0.0,0.0,-2.236,-2.1823,-2.6678,-2.435,-2.2965,-2.482,-2.2861,-2.1496,-2.1903,-2.4325,-2.5786,-2.6206,-2.8698,-2.8861,-2.6001,0.0,0.0,0.0,0.0,-2.1391,-2.1777,-2.1377,-2.1034,-2.1021,-2.1034,-2.1034,-2.1001,-2.0878,-2.0811,-2.079,-2.0505,-2.0363,-2.0349,-2.0187,-2.0119,-2.0031,-1.9325,-1.8864,-1.8565,-1.8247,-1.7968,-1.7738,-1.7704,0.0,0.0,-1.7453,-2.0922,-2.4904,-2.513,-2.8767,-3.2986,-3.2893,-3.312,-3.3454,-3.32,-3.332,-3.3507,-3.3507,-3.3734,-3.3855,-3.3574,-3.3708,-3.3801,-3.3521,-3.3227,-3.3026,-3.3026,-3.2332,-3.1851,-3.2118,-3.149,-3.137,-3.2412,-3.2118,-3.2131,-3.2946,0.0,0.0,-3.344,-3.3173,-3.2478,-3.1303,-3.0621,-2.978,-2.8698,-2.8136,-2.7709,-2.7415,-2.6841,-2.6106,-2.5224,-2.4957,-2.4663,-2.4342,-2.3754,-2.3166,0.0,0.0,0.0,0.0,0.0,0.0,0.0,0.0,0.0,0.0,0.0,0.0,0.0,0.0,0.0,-2.1116,-2.1464,-2.2095,-2.2308,-2.189,-2.3031,-2.5845,-2.3709,-2.216,-2.2235,-2.275,-2.2983,-2.3018,-2.3804,-2.3789,-2.3256,-2.3093,-2.3827,-2.5971,-2.3272,-2.2867,-2.5786,-2.2738,-2.1299,-2.1177,0.0,0.0,-2.1001,-2.1089,-2.1068,-2.0946,-2.077,-2.0614,-2.0485,-2.0349,-2.0207,-2.0051,-1.9535,-1.9237,-1.9027,-1.8599,-1.8409,-1.8321,-1.8091,-1.7901,-1.7758,-1.765,-1.9631,-2.2637,-2.5121,-2.8038,0.0,-3.3376,-3.4055,-3.4135,-3.4068,-3.4108,-3.4148,-3.4148,-3.4189,-3.4215,-3.4162,-3.4015,-3.3868,-3.3801,-3.3547,-3.3334,-3.3334,-3.2799,-3.2398,-3.2452,-3.2318,-3.2291,-3.2519,-3.2652,-3.2893,-3.3307,-3.3574,-3.3734,-3.3788,-3.3293,-3.2478,-3.1303,-3.0234,-2.9446,-2.8978,-2.8845,-2.8644,-2.835,-2.7749,-2.7014,-2.6132,-2.6079,-2.5772,-2.5237,-2.4649,-2.4195,0.0,0.0,0.0,0.0,0.0,0.0,0.0,0.0,0.0,0.0,0.0,-1.9505,0.0,0.0,-2.1123,-2.1414,-2.1605,-2.1542,-2.1459,-2.1848,-2.2716,-2.4164,-2.3349,-2.25,-2.2656,-2.2676,-2.2676,-2.2676,-2.2676,-2.2642,-2.2567,-2.2411,-2.3179,-2.4895,-2.2961,-2.2814,-2.4683,-2.2652,-2.174,-2.1672,-2.1672,-2.1584,-2.1441,-2.1353,-2.1245,-2.1109,-2.0946,-2.0845,-2.077,-2.0702,-2.058,-2.0404,-2.0098,-1.98,-1.9488,-1.9115,-1.8938,-1.883,-1.862,-1.8389,-1.8179,-1.8111,-1.9958,-2.2621,-2.5537,-2.8294,-3.1034,-3.3772,-3.4536,-3.4509,-3.4362,-3.4322,-3.4322,-3.4322,-3.4429,-3.4496,-3.4349,-3.4322,-3.4282,-3.4135,-3.3975,-3.3868,-3.3868,-3.3627,-3.3334,-3.3026,-3.2853,-3.2812,-3.2959,-3.2973,-3.3093,-3.34,-3.3561,-3.3721,-3.3868,-3.32,-3.2385,-3.1503,-3.0621,-3.0007,-2.9713,-2.97,-2.9566,-2.9272,-2.8965,-2.8591,-2.815,-2.815,-2.7856,-2.7268,-2.7134,-2.6346,0.0,0.0,0.0,0.0,0.0,0.0,0.0,0.0,-1.6508,-1.6681,-1.8338,-1.9706,-1.9662,-2.0166,-2.0909,-2.2546,-2.1873,-2.1421,-2.2025,-2.2534,-2.2798,-2.2622,-2.2676,-2.2818,-2.3063,-2.3097,-2.3083,-2.3049,-2.3049,-2.2995,-2.2873,-2.273,-2.2696,-2.2818,-2.2567,-2.2425,-2.2425,-2.2303,-2.2235,-2.2201,-2.2079,-2.1991,-2.1916,-2.1686,-2.1496,-2.1333,-2.1157,-2.1055,-2.1001,-2.1001,-2.0933,-2.0804,-2.0648,-2.0363,-1.9997,-1.9644,-1.9413,-1.9271,-1.9128,-1.8884,-1.862,-1.862,-2.0097,-2.2386,-2.5123,-2.8133,-3.0859,-3.3485,-3.4584,-3.4883,-3.4643,-3.4576,-3.4563,-3.4509,-3.4763,-3.4937,-3.4643,-3.4723,-3.479,-3.4603,-3.4442,-3.4362,-3.4469,-3.4402,-3.4148,-3.3668,-3.3387,-3.332,-3.3561,-3.3387,-3.3334,-3.3561,-3.3587,-3.3694,-3.3948,-3.3253,-3.2572,-3.2038,-3.1517,-3.1089,-3.0795,-3.0728,-3.0608,-3.0434,-3.0368,-3.0314,-3.0261,-3.0261,-2.9927,-2.9299,-2.9593,-2.8591,-1.6508,-1.7147,-1.7111,-1.6947,-1.6774,-1.6462,0.0,0.0,-1.8135,-1.6715,-1.7092,-1.7889,-1.8225,-1.9198,-2.0178,-2.1013,-2.1659,-2.2201,-2.2798,-2.3049,-2.3259,-2.3503,-2.3415,-2.3361,-2.3395,-2.3395,-2.3347,-2.3205,-2.3205,-2.3185,-2.3171,-2.3042,-2.2974,-2.2995,-2.2818,-2.273,-2.273,-2.271,-2.2642,-2.25,-2.2486,-2.2344,-2.2079,-2.2059,-2.195,-2.1794,-2.1509,-2.1245,-2.1001,-2.1001,-2.098,-2.0967,-2.0804,-2.0716,-2.0594,-2.0031,-1.9732,-1.959,-1.9434,-1.9183,-1.8938,-1.8938,-1.907,-1.9842,-2.2539,-2.5563,-2.8321,-3.1182,-3.3713,-3.5525,-3.5485,-3.5485,-3.5418,-3.5164,-3.5525,-3.5845,-3.5551,-3.5311,-3.5217,-3.5444,-3.4857,-3.4482,-3.5004,-3.467,-3.4295,-3.4229,-3.4189,-3.4189,-3.4215,-3.4189,-3.4189,-3.4215,-3.4215,-3.4229,-3.4269,-3.3948,-3.3587,-3.324,-3.2906,-3.2599,-3.2318,-3.2051,-3.2011,-3.2251,-3.1998,-3.173,-3.1476,-3.1476,-3.1036,-3.0221,-3.0515,-2.994,-1.6503,-1.6108,0.0,0.0,-1.6728,-1.643,-1.6144,-1.6968,-1.7833,-1.7655,-1.8036,-1.8674,-1.9379,-2.0173,-2.0912,0.0,-2.2289,-2.2866,-2.3219,-2.3395,-2.3537,-2.3666,-2.3537,-2.3483,-2.3571,-2.3592,-2.3558,-2.349,-2.3395,-2.3361,-2.3361,-2.3219,-2.313,-2.313,-2.3063,-2.2995,-2.292,-2.292,-2.2886,-2.2818,-2.273,-2.2622,-2.25,-2.2411,-2.2235,-2.2004,-2.1882,-2.1672,-2.1387,-2.1387,-2.1285,-2.1109,-2.0967,-2.0845,-2.0722,-2.0295,-2.0098,-2.001,-1.9766,-1.9556,-1.9359,-1.9271,-1.9149,-1.9939,-2.4783,-2.6941,-2.878,-3.3394,-3.5352,-3.6099,-3.5925,-3.5885,-3.5859,-3.5738,-3.5899,-3.6086,-3.6126,-3.5912,-3.5792,-3.6086,-3.5845,-3.5618,-3.5698,-3.5645,-3.5538,-3.5364,-3.4763,-3.4322,-3.4322,-3.4322,-3.4322,-3.4322,-3.4469,-3.4509,-3.4336,-3.4362,-3.4189,-3.3721,-3.3574,-3.3374,-3.3066,-3.2933,-3.2839,-3.2799,-3.2679,-3.2465,-3.2185,-3.2185,-3.1904,-3.137,-3.1503,-3.1289,-1.6633,0.0,0.0,-1.7604,-1.7299,-1.6693,-1.7141,-1.7602,-1.8124,-1.8796,-1.9413,-2.0051,-2.077,-2.1408,0.0,-2.25,-2.3083,-2.3524,-2.368,-2.3748,-2.3768,-2.37,-2.347,-2.3381,-2.3537,-2.3666,-2.3714,-2.368,-2.3612,-2.3558,-2.3524,-2.3361,-2.3293,-2.3293,-2.3239,-2.3171,-2.3063,-2.3063,-2.3063,-2.3063,-2.2961,-2.2886,-2.2832,-2.2696,-2.2445,-2.2181,-2.2181,-2.2004,-2.1726,-2.1692,-2.155,-2.1319,-2.1123,-2.0967,-2.0804,-2.0539,-2.0404,-2.0295,-2.0031,-1.9841,-1.9698,-1.959,-1.9481,-2.0331,-2.5735,-2.7942,-2.9344,-3.4618,-3.6341,-3.6687,-3.6473,-3.6433,-3.6406,-3.6326,-3.6433,-3.658,-3.6727,-3.658,-3.6513,-3.6794,-3.6727,-3.662,-3.654,-3.658,-3.658,-3.6433,-3.5565,-3.4857,-3.4696,-3.4616,-3.4563,-3.4563,-3.483,-3.4883,-3.4589,-3.483,-3.475,-3.4162,-3.4135,-3.3988,-3.3668,-3.3668,-3.3561,-3.3347,-3.3267,-3.312,-3.2919,-3.2826,-3.2639,-3.2345,-3.2425,-3.2425,0.0,0.0,-1.8872,-1.9021,-1.8373,-1.7935,-1.8375,-1.9169,-1.9922,-2.0383,-2.0946,-2.1475,-2.1774,-2.2344,-2.2832,-2.3151,-2.37,-2.4141,-2.4297,-2.4189,-2.3999,-2.3714,-2.3293,-2.3083,0.0,-2.3626,-2.3822,-2.37,-2.3802,-2.3822,-2.368,-2.3524,-2.3449,-2.3449,-2.3293,-2.3219,-2.3219,-2.3219,-2.3219,-2.3219,-2.3205,-2.313,-2.2995,-2.2852,-2.2608,-2.2337,-2.2337,-2.216,-2.1862,-2.1726,-2.1672,-2.1638,-2.1319,-2.1123,-2.098,-2.0824,-2.058,-2.0309,-2.0153,-1.9997,-1.9875,-1.9854,-1.9854,-2.0577,-2.3699,-2.6685,-2.9581,-3.2629,-3.5471,-3.7342,-3.7342,-3.7342,-3.7275,-3.6981,-3.7342,-3.7676,-3.7422,-3.7342,-3.7422,-3.7702,-3.7301,-3.7114,-3.7662,-3.7301,-3.7008,-3.7301,-3.6834,-3.6233,-3.5658,-3.5338,-3.5164,-3.5164,-3.5431,-3.5485,-3.5191,-3.5431,-3.5351,-3.4776,-3.4736,-3.4603,-3.4309,-3.4295,-3.4282,-3.4282,-3.4002,-3.3855,-3.3841,-3.3534,-3.324,-3.2959,-3.324,-3.3213,0.0,0.0,-1.7927,-1.8611,-1.899,-1.9468,-1.9908,-2.0492,-2.1021,-2.1353,-2.1509,-2.1686,-2.1991,-2.2289,-2.2656,-2.313,-2.3822,-2.4365,-2.4616,-2.4684,-2.4385,-2.3483,-2.3415,0.0,0.0,0.0,0.0,-2.3788,-2.3856,-2.3877,-2.3822,-2.3768,-2.37,-2.3612,-2.3449,-2.3381,-2.3381,-2.3273,-2.3219,-2.3219,-2.3219,-2.3205,-2.3151,-2.3097,-2.2974,-2.2778,-2.2676,-2.2466,-2.216,-2.1916,-2.176,-2.1638,-2.1333,-2.1177,-2.1109,-2.0858,-2.0702,-2.0594,-2.0349,-2.0227,-2.0153,-2.0064,-2.0031,-2.1,-2.6331,-2.8608,-3.0315,-3.5538,-3.7575,-3.7929,-3.7702,-3.7676,-3.7635,-3.7555,-3.7662,-3.7849,-3.7929,-3.7823,-3.7742,-3.8036,-3.7969,-3.7823,-3.7809,-3.7823,-3.7635,-3.7155,-3.6754,-3.6299,-3.5712,-3.5538,-3.5485,-3.5485,-3.5578,-3.5672,-3.5765,-3.5872,-3.5672,-3.5084,-3.5057,-3.483,-3.4336,-3.4322,-3.4322,-3.4322,-3.4229,-3.4175,-3.4175,-3.4068,-3.3961,-3.3868,-3.3975,-3.3961,0.0,-1.7148,-1.8247,-1.904,-1.9963,-2.077,-2.1157,-2.1509,-2.1794,-2.1862,-2.1774,-2.1686,-2.1706,-2.176,-2.2025,-2.2778,-2.3395,-2.4053,-2.4772,-2.4718,-2.4351,-2.3626,-2.3436,-2.3171,0.0,0.0,0.0,-2.3843,-2.3944,-2.3978,-2.3978,-2.3931,-2.3856,-2.3754,-2.3558,-2.3449,-2.3449,-2.3293,-2.3219,-2.3219,-2.3219,-2.3219,-2.3219,-2.3219,-2.3151,-2.3008,-2.2852,-2.2642,-2.2391,-2.2093,-2.1882,-2.1726,-2.1475,-2.1299,-2.1177,-2.0946,-2.0824,-2.0736,-2.0438,-2.0329,-2.0315,-2.0207,-2.0187,-2.1163,-2.6555,-2.8882,-3.067,-3.5745,-3.7931,-3.8691,-3.8504,-3.8464,-3.8437,-3.8317,-3.829,-3.8317,-3.8397,-3.829,-3.8183,-3.8397,-3.8437,-3.8357,-3.8183,-3.829,-3.8183,-3.7529,-3.7155,-3.6687,-3.5885,-3.5792,-3.5792,-3.5792,-3.5885,-3.5979,-3.6059,-3.6072,-3.5872,-3.5378,-3.5257,-3.503,-3.4643,-3.4629,-3.4629,-3.4629,-3.4536,-3.4482,-3.4482,-3.4376,-3.4322,-3.4322,-3.4322,-3.4322,-1.7249,-1.8409,-1.9522,-2.0417,-2.1177,-2.1794,-2.2079,-2.2249,-2.2249,-2.1937,-2.1726,-2.1714,0.0,0.0,-2.1356,-2.2428,-2.2628,-2.3381,-2.486,-2.4453,-2.4033,0.0,0.0,0.0,0.0,0.0,0.0,-2.3856,0.0,-2.41,-2.4121,-2.3999,-2.391,-2.391,-2.3612,-2.347,-2.347,-2.3307,-2.3219,-2.3219,-2.3219,-2.3219,-2.3219,-2.3219,-2.3151,-2.3008,-2.2852,-2.2696,-2.2534,-2.2235,-2.2004,-2.1862,-2.1726,-2.1475,-2.1211,-2.1068,-2.0912,-2.0756,-2.0451,-2.0349,-2.0349,-2.0349,-2.0349,-2.0832,-2.4042,-2.7486,-3.0629,-3.3805,-3.6915,-3.9599,-3.9599,-3.9599,-3.9533,-3.9225,-3.9185,-3.9118,-3.8838,-3.8758,-3.8758,-3.8758,-3.8758,-3.8758,-3.8758,-3.8758,-3.8651,-3.833,-3.7996,-3.7408,-3.6259,-3.6099,-3.6099,-3.6112,-3.6353,-3.6393,-3.6166,-3.6126,-3.5992,-3.5698,-3.5418,-3.5244,-3.5217,-3.5217,-3.5204,-3.5191,-3.4923,-3.479,-3.479,-3.4509,-3.4362,-3.4362,-3.4362,-3.4362,-1.8742,-1.9875,-2.0892,-2.1686,-2.2201,-2.252,-2.2588,-2.2554,-2.2357,-2.1828,-2.2616,-2.3293,0.0,0.0,0.0,-2.4508,-2.4317,0.0,-2.5532,-2.5599,0.0,0.0,0.0,-2.4189,-2.3524,-2.3503,0.0,0.0,-2.3965,-2.389,-2.41,-2.4189,-2.4175,-2.4066,-2.3768,-2.3626,-2.3626,-2.3361,-2.3219,-2.3219,-2.3219,-2.3219,-2.3219,-2.3219,-2.3205,-2.3151,-2.2886,-2.2764,-2.2676,-2.2167,-2.1916,-2.1862,-2.1597,-2.1455,-2.1367,-2.1211,-2.1143,-2.1055,-2.0756,-2.058,-2.0485,-2.0485,-2.0485,-2.0978,-2.4478,-2.7587,-3.0649,-3.4022,-3.7052,-3.9599,-3.9599,-3.9599,-3.9559,-3.9493,-3.9493,-3.9452,-3.9386,-3.9386,-3.9386,-3.9386,-3.9386,-3.9386,-3.9386,-3.9199,-3.8945,-3.8651,-3.8143,-3.7555,-3.6794,-3.654,-3.6473,-3.6687,-3.658,-3.6647,-3.7021,-3.6834,-3.658,-3.6299,-3.6219,-3.5979,-3.5538,-3.5511,-3.5418,-3.5204,-3.5124,-3.5084,-3.5084,-3.5004,-3.4977,-3.4977,-3.4977,-3.4977,-2.0193,-2.1157,-2.195,-2.2567,-2.2852,-2.2886,-2.2567,-2.2323,-2.2126,-2.2325,-2.2826,0.0,0.0,0.0,0.0,0.0,0.0,0.0,-2.5606,-2.5708,-2.5511,0.0,-2.5125,0.0,-2.4229,-2.4243,-2.4331,0.0,-2.4087,-2.3999,-2.4297,-2.4406,-2.4365,-2.4229,-2.3999,-2.3788,-2.3571,-2.3347,-2.3219,-2.3219,-2.3219,-2.3219,-2.3219,-2.3219,-2.3219,-2.3205,0.0,-2.2784,-2.2744,-2.2201,-2.1937,-2.1862,-2.1638,-2.1496,-2.1421,-2.1265,-2.1211,-2.1177,-2.0946,-2.077,-2.0627,-2.056,-2.0539,-2.0786,-2.2792,-2.6467,-3.0577,-3.2547,-3.6395,-4.0,-4.0,-4.0,-3.996,-3.9813,-3.9786,-3.9746,-3.964,-3.9599,-3.9599,-3.9599,-3.9599,-3.9599,-3.9599,-3.9346,-3.9092,-3.8945,-3.8397,-3.7889,-3.7555,-3.7155,-3.6941,-3.7128,-3.7088,-3.7195,-3.7529,-3.7195,-3.6874,-3.6727,-3.6473,-3.6166,-3.5832,-3.5698,-3.5551,-3.5391,-3.5257,-3.5191,-3.5191,-3.5191,-3.5257,-3.5378,-3.5257,-3.5271,-2.153,-2.2269,-2.2818,-2.3259,-2.3307,-2.3063,-2.2303,-2.1794,-2.1766,-2.2449,0.0,-2.2831,-2.4676,-2.3943,-2.3564,-2.5279,0.0,-2.3981,-2.6451,-2.5786,-2.5423,-2.5952,-2.5654,-2.5301,-2.5003,-2.4948,-2.488,-2.4724,-2.444,-2.4351,-2.4548,-2.4562,-2.4473,-2.4297,-2.4155,-2.3877,-2.3429,-2.3293,-2.3219,-2.3219,-2.3219,-2.3219,-2.3219,-2.3219,-2.3219,-2.3205,-2.294,-2.2798,-2.2744,-2.2303,-2.2025,-2.1862,-2.1706,-2.1564,-2.1421,-2.1299,-2.1245,-2.1231,-2.1068,-2.0946,-2.0804,-2.0648,-2.0573,-2.0539,-2.056,-2.5315,-3.0522,-3.0522,-3.524,-4.0481,-4.0481,-4.0481,-4.0401,-4.0147,-4.0107,-4.0027,-3.9786,-3.9706,-3.9706,-3.9706,-3.9706,-3.9706,-3.9706,-3.9479,-3.9265,-3.9225,-3.8691,-3.829,-3.8263,-3.7782,-3.7448,-3.7489,-3.7676,-3.7823,-3.7889,-3.7382,-3.7048,-3.7061,-3.658,-3.6286,-3.6246,-3.5965,-3.5792,-3.5752,-3.5458,-3.5311,-3.5311,-3.5311,-3.5444,-3.5685,-3.5431,-3.5431,-2.252,-2.3117,-2.3592,-2.4053,-2.3782,-2.3219,-2.2466,-2.1299,0.0,0.0,-2.2708,-2.4016,-2.6408,-2.7807,-2.9394,-3.2807,0.0,0.0,0.0,0.0,-2.6393,0.0,0.0,0.0,0.0,0.0,0.0,0.0,0.0,-2.4894,-2.4582,-2.4562,-2.4385,-2.3978,-2.3944,-2.3714,-2.3273,-2.3239,-2.3219,-2.3219,-2.3219,-2.3219,-2.3219,-2.3219,-2.3219,-2.3205,-2.3042,0.0,-2.2744,-2.2303,-2.2025,-2.1848,-2.1584,-2.1455,-2.1441,-2.1408,-2.1408,-2.1387,-2.1231,-2.1157,-2.1109,-2.0967,-2.075,-2.056,-2.0702,-2.5424,-3.0522,-3.0522,-3.524,-4.0481,-4.0481,-4.0481,-4.0481,-4.0401,-4.0401,-4.0401,-4.0334,-4.0334,-4.0334,-4.0334,-4.0334,-4.0334,-4.0334,-4.0067,-3.9813,-3.9559,-3.9012,-3.8544,-3.829,-3.7969,-3.7823,-3.8076,-3.7929,-3.7929,-3.8143,-3.7849,-3.7662,-3.7676,-3.7555,-3.7422,-3.7168,-3.6874,-3.6607,-3.6353,-3.6072,-3.5925,-3.5925,-3.5925,-3.5952,-3.5992,-3.5939,-3.5819,-2.3578,-2.3978,-2.4209,-2.4507,-2.4012,-2.3097,-2.172,0.0,0.0,0.0,-2.3513,-2.5517,-2.7757,-2.8776,0.0,0.0,0.0,0.0,0.0,0.0,0.0,0.0,0.0,0.0,0.0,0.0,0.0,0.0,0.0,-2.5389,-2.4935,-2.4684,-2.446,-2.4243,-2.3944,-2.368,-2.347,-2.3307,-2.3219,-2.3219,-2.3219,-2.3219,-2.3219,-2.3219,-2.3219,-2.3219,-2.3063,-2.2974,-2.2873,-2.2411,-2.2147,-2.1991,-2.176,-2.1584,-2.1455,-2.153,-2.1509,-2.1421,-2.1353,-2.1279,-2.1197,-2.1123,-2.0912,-2.0682,-2.0756,-2.419,-2.828,-3.0015,-3.3987,-3.8264,-4.0154,-4.0588,-4.0508,-4.0655,-4.0588,-4.0481,-4.0481,-4.0481,-4.0481,-4.0481,-4.0481,-4.0481,-4.0481,-4.0214,-4.0,-3.9853,-3.9452,-3.9052,-3.8758,-3.8731,-3.8624,-3.829,-3.8397,-3.8504,-3.8504,-3.8357,-3.821,-3.8076,-3.7889,-3.7742,-3.7595,-3.7342,-3.7021,-3.6727,-3.6433,-3.6299,-3.6299,-3.6139,-3.6233,-3.6513,-3.6219,-3.6072,-2.4385,-2.4684,-2.4792,-2.4948,-2.4209,-2.2954,-2.1034,-2.1173,0.0,0.0,-2.4118,-2.6366,-2.864,-2.9041,-2.9559,0.0,0.0,0.0,0.0,0.0,0.0,0.0,0.0,0.0,0.0,0.0,0.0,0.0,0.0,0.0,-2.5247,-2.486,-2.4616,-2.4528,-2.4066,-2.3788,-2.368,-2.3415,-2.3273,-2.3273,-2.3239,-2.3219,-2.3219,-2.3219,-2.3219,-2.3219,-2.3097,-2.3042,-2.2974,-2.2554,-2.2303,-2.2147,-2.1916,-2.1706,-2.1543,-2.1597,-2.1564,-2.1496,-2.1455,-2.1367,-2.1245,-2.1231,-2.1021,-2.077,-2.077,-2.2928,-2.6044,-2.8779,-3.2258,-3.6269,-3.8983,-4.0141,-4.0548,-4.0762,-4.0655,-4.0481,-4.0481,-4.0481,-4.0481,-4.0481,-4.0481,-4.0481,-4.0481,-4.0294,-4.0107,-4.0027,-3.9853,-3.9599,-3.9306,-3.9452,-3.9346,-3.8624,-3.8985,-3.9159,-3.8945,-3.8905,-3.8798,-3.8544,-3.833,-3.8183,-3.8103,-3.7823,-3.7529,-3.7235,-3.6941,-3.6794,-3.6794,-3.654,-3.6687,-3.7114,-3.6647,-3.654,-2.4636,-2.5077,-2.541,-2.5566,-2.4528,-2.2974,-2.1157,0.0,0.0,-2.2,-2.3553,-2.5735,-2.8947,-3.0146,-3.1763,0.0,0.0,-2.9637,0.0,0.0,0.0,0.0,0.0,0.0,0.0,0.0,0.0,0.0,0.0,0.0,-2.5247,-2.507,-2.4792,-2.4385,-2.4311,-2.4087,-2.368,-2.3524,-2.3429,-2.3429,-2.3293,-2.3219,-2.3219,-2.3219,-2.3219,-2.3219,-2.3205,0.0,0.0,-2.2656,-2.2445,-2.2269,-2.1848,-2.176,-2.1815,-2.1564,-2.155,-2.1638,-2.1496,-2.1421,-2.1408,-2.1265,-2.1021,-2.077,-2.077,-2.2928,-2.5542,-2.5784,-3.0502,-3.5486,-3.6,-3.8227,-4.0481,-4.0508,-4.0508,-4.0481,-4.0481,-4.0481,-4.0481,-4.0481,-4.0481,-4.0481,-4.0481,-4.0441,-4.0334,-4.0067,-4.0,-3.9893,-3.9599,-3.9599,-3.9559,-3.9493,-3.9533,-3.9559,-3.9533,-3.9533,-3.9493,-3.9493,-3.9452,-3.9306,-3.9052,-3.8758,-3.8464,-3.8143,-3.7849,-3.7702,-3.7702,-3.7676,-3.7676,-3.7742,-3.7676,-3.7529,-2.4792,-2.5443,-2.5884,-2.5939,-2.4684,-2.2974,-2.1177,0.0,0.0,-2.2114,-2.4577,-2.7212,-2.8433,-2.9539,-3.0464,0.0,0.0,0.0,-2.8482,0.0,0.0,0.0,0.0,0.0,0.0,0.0,0.0,0.0,0.0,0.0,-2.5376,-2.5057,-2.4758,-2.4494,-2.4297,-2.4087,-2.3802,-2.3571,-2.3449,-2.3449,-2.3293,-2.3219,-2.3219,-2.3219,-2.3219,-2.3219,-2.3219,-2.3185,0.0,-2.292,-2.2696,-2.2445,-2.2269,-2.2079,-2.1882,-2.1848,-2.1774,-2.1672,-2.1597,-2.1509,-2.1408,-2.1157,-2.227,-2.3924,-2.3846,-2.4698,-2.6035,-2.8039,-2.9029,-3.0543,-3.4673,-3.8322,-4.0989,-4.0989,-4.0989,-4.0949,-4.0762,-4.0735,-4.0695,-4.0508,-4.0481,-4.0481,-4.0481,-4.0481,-4.0441,-4.0321,-4.0294,-4.0187,-3.9893,-4.0,-4.0067,-3.9893,-3.9853,-3.9786,-3.9599,-3.9746,-3.9786,-3.9599,-3.9599,-3.9559,-3.9412,-3.9306,-3.9118,-3.8798,-3.8691,-3.8544,-3.8357,-3.8183,-3.8076,-3.8076,-3.7889,-3.7742,-2.4562,-2.5477,-2.6061,-2.6006,-2.4684,-2.2907,0.0,0.0,0.0,-2.2152,-2.5219,-2.8136,-2.8136,-2.9045,-2.9235,-2.7676,-2.604,-2.4674,-2.4696,-2.2599,0.0,0.0,0.0,0.0,0.0,0.0,0.0,0.0,0.0,0.0,-2.5464,-2.5077,-2.4772,-2.4562,-2.4372,-2.4155,-2.3965,-2.366,-2.3524,-2.3524,-2.3307,-2.3219,-2.3219,-2.3219,-2.3219,-2.3219,-2.3219,-2.3219,0.0,-2.3029,-2.2832,-2.2676,-2.25,-2.2289,-2.2079,-2.2059,-2.1916,-2.1726,-2.1686,-2.1564,-2.1408,-2.1143,-2.3845,-2.7594,-2.745,-2.7244,-2.753,-2.9776,-2.9508,-2.9806,-3.5791,-3.929,-4.1229,-4.131,-4.1336,-4.1269,-4.0976,-4.0976,-4.0909,-4.0548,-4.0548,-4.0588,-4.0481,-4.0481,-4.0481,-4.0481,-4.0481,-4.0401,-4.0187,-4.0334,-4.0401,-4.0187,-4.0174,-4.0067,-3.9893,-4.004,-4.0067,-3.9853,-3.9853,-3.9813,-3.9746,-3.9746,-3.9599,-3.9306,-3.9306,-3.9199,-3.8985,-3.8691,-3.8517,-3.8504,-3.821,-3.8036,-2.3843,-2.5003,-2.5864,-2.5728,-2.4453,-2.271,0.0,0.0,0.0,-2.2123,-2.5219,-2.8136,-2.8136,-2.8885,-2.895,-2.7404,-2.5872,-2.4882,-2.4645,-2.2618,0.0,0.0,0.0,0.0,0.0,0.0,0.0,0.0,0.0,0.0,-2.5477,-2.5179,-2.488,-2.4582,-2.4562,-2.4419,-2.4121,-2.3822,-2.368,-2.368,-2.3361,-2.3219,-2.3219,-2.3219,-2.3219,-2.3219,-2.3219,-2.3219,0.0,-2.2907,-2.2873,-2.294,-2.2344,-2.2289,-2.25,-2.2038,-2.1882,-2.1862,-2.1726,-2.1564,-2.1421,-2.1265,-2.5726,-3.0926,-3.1159,-3.0866,-3.0512,-3.0522,-3.2742,-3.6281,-3.9809,-4.0909,-4.0976,-4.1269,-4.1336,-4.1269,-4.0976,-4.1122,-4.1163,-4.0588,-4.0695,-4.0802,-4.0508,-4.0481,-4.0481,-4.0481,-4.0481,-4.0481,-4.0481,-4.0481,-4.0481,-4.0481,-4.0481,-4.0481,-4.0481,-4.0481,-4.0481,-4.0481,-4.0481,-4.0334,-4.0027,-4.0027,-3.9893,-3.9599,-3.9599,-3.9599,-3.9599,-3.9306,-3.9159,-3.9159,-3.8838,-3.8544,-2.176,-2.2852,-2.368,-2.3327,-2.3935,-2.3883,-2.2496,0.0,0.0,0.0,-2.5337,-2.6236,-2.7968,-2.7311,-2.6795,-2.7616,-2.7611,-2.664,-2.3997,0.0,0.0,0.0,0.0,0.0,0.0,0.0,0.0,0.0,0.0,0.0,-2.5786,-2.5179,-2.488,-2.4582,-2.4562,-2.4372,-2.3965,-2.3768,-2.3626,-2.3524,-2.3307,-2.3219,-2.3219,-2.3219,-2.3219,-2.3219,-2.3219,-2.3219,-2.3219,-2.3117,-2.3049,-2.2974,-2.2696,-2.2567,-2.252,-2.2289,-2.2127,-2.2025,-2.1862,-2.1726,-2.155,-2.1299,-2.4267,-2.8039,-3.0457,-3.2361,-3.3494,-3.1257,-3.3109,-3.6039,-3.758,-3.9571,-4.1563,-4.1857,-4.1924,-4.1857,-4.1563,-4.1563,-4.1523,-4.1122,-4.1122,-4.1163,-4.1082,-4.1056,-4.1056,-4.1056,-4.0909,-4.0762,-4.0762,-4.0588,-4.0481,-4.0481,-4.0481,-4.0481,-4.0481,-4.0481,-4.0481,-4.0481,-4.0481,-4.0441,-4.0334,-4.0334,-4.0294,-4.0187,-4.0187,-4.0107,-3.9893,-3.9813,-3.9559,-3.9159,-3.9265,-3.9159,0.0,-2.1197,-2.2038,-2.176,-2.3039,0.0,0.0,0.0,0.0,0.0,0.0,0.0,-2.5373,-2.4615,-2.4408,-2.5528,-2.6382,-2.6317,-2.4641,0.0,0.0,0.0,0.0,0.0,0.0,0.0,0.0,0.0,0.0,0.0,-2.5786,-2.5125,-2.4826,-2.4562,-2.4507,-2.4297,-2.389,-2.37,-2.3537,-2.3449,-2.3293,-2.3219,-2.3219,-2.3219,-2.3219,-2.3219,-2.3219,-2.3185,0.0,-2.3083,-2.3008,-2.2907,-2.2696,-2.2622,-2.2622,-2.2411,-2.2289,-2.2181,-2.2025,-2.1828,-2.1638,-2.1441,-2.4461,-2.8996,-3.2013,-3.5185,-3.709,-3.4771,-3.5908,-3.794,-3.82,-4.0026,-4.1857,-4.2151,-4.2218,-4.2151,-4.1857,-4.1857,-4.1817,-4.1416,-4.1416,-4.1483,-4.1376,-4.1336,-4.1336,-4.1336,-4.1096,-4.0909,-4.0909,-4.0655,-4.0508,-4.0615,-4.0548,-4.0508,-4.0615,-4.0548,-4.0481,-4.0481,-4.0481,-4.0481,-4.0481,-4.0481,-4.0481,-4.0481,-4.0481,-4.0401,-4.0214,-4.0067,-3.9773,-3.9332,-3.9519,-3.9493,0.0,-2.0255,0.0,0.0,0.0,0.0,0.0,0.0,0.0,0.0,0.0,0.0,-2.2126,-2.1916,-2.2107,-2.2303,-2.3601,-2.4778,-2.6117,0.0,0.0,0.0,0.0,0.0,0.0,0.0,0.0,0.0,0.0,0.0,-2.5464,-2.5036,-2.4724,-2.4562,-2.4419,-2.4189,-2.3877,-2.3612,-2.3449,-2.3429,-2.3293,-2.3219,-2.3219,-2.3219,-2.3219,0.0,-2.3219,-2.313,-2.2995,-2.2852,-2.2798,-2.2744,-2.2479,-2.2534,-2.2744,-2.2479,-2.2357,-2.2337,-2.216,-2.1916,-2.1686,-2.1652,-2.6001,-3.2004,-3.4887,-3.8126,-4.0869,-4.0615,-4.0735,-4.1016,-4.131,-4.1603,-4.1897,-4.2151,-4.2218,-4.2151,-4.1857,-4.2031,-4.2071,-4.1523,-4.163,-4.171,-4.1456,-4.1416,-4.1416,-4.1416,-4.1163,-4.0976,-4.0949,-4.0695,-4.0628,-4.0869,-4.0695,-4.0655,-4.0909,-4.0655,-4.0481,-4.0481,-4.0481,-4.0481,-4.0481,-4.0481,-4.0481,-4.0481,-4.0481,-4.0481,-4.0481,-4.0187,-3.992,-3.964,-3.964,-3.964,-2.183,0.0,-2.2387,-2.028,-2.3091,0.0,0.0,0.0,0.0,0.0,0.0,0.0,0.0,-2.3844,-2.2402,-2.633,-2.7283,-2.6526,-2.3998,0.0,0.0,0.0,0.0,0.0,0.0,0.0,0.0,0.0,0.0,-3.2458,-2.5786,-2.5036,-2.4724,-2.4562,-2.4317,-2.4033,-2.3734,-2.3666,-2.3503,-2.3273,-2.3239,-2.3219,-2.3219,-2.3219,-2.3219,-2.3219,-2.3219,-2.313,-2.3008,-2.2974,-2.2886,-2.2784,-2.271,-2.273,-2.2784,-2.271,-2.2608,-2.2466,-2.2201,-2.1991,-2.1794,-2.1564,-2.4345,-2.8409,-3.1513,-3.663,-4.1229,-4.1163,-4.1203,-4.131,-4.1603,-4.1897,-4.2138,-4.2218,-4.2218,-4.2178,-4.2138,-4.2178,-4.2178,-4.2031,-4.2071,-4.2111,-4.2031,-4.2004,-4.2004,-4.2004,-4.1777,-4.1497,-4.1269,-4.1189,-4.1082,-4.0909,-4.1056,-4.1163,-4.1229,-4.0762,-4.0481,-4.0481,-4.0481,-4.0481,-4.0481,-4.0481,-4.0481,-4.0481,-4.0481,-4.0481,-4.0481,-4.0401,-4.0214,-3.992,-4.0147,-4.0147,-2.3303,-2.3118,-2.3071,-2.1744,-2.4432,-2.7413,0.0,0.0,0.0,0.0,0.0,0.0,0.0,0.0,0.0,-2.4966,-2.5174,-2.4608,0.0,0.0,0.0,0.0,0.0,0.0,0.0,0.0,0.0,0.0,0.0,-3.3254,-2.844,-2.5839,-2.465,-2.4562,-2.4277,-2.3978,-2.368,-2.3612,-2.3449,-2.3219,-2.3219,-2.3219,-2.3219,-2.3219,-2.3219,-2.3219,-2.3219,-2.3097,-2.2907,-2.2907,-2.2778,-2.2588,-2.2656,-2.271,-2.2784,-2.2784,-2.273,-2.2622,-2.2391,-2.2127,-2.1828,-2.153,-2.3795,-2.7139,-3.0662,-3.5,-3.9284,-4.0682,-4.135,-4.1563,-4.1563,-4.1897,-4.2218,-4.2218,-4.2218,-4.2218,-4.2218,-4.2218,-4.2218,-4.2218,-4.2218,-4.2218,-4.2218,-4.2218,-4.2218,-4.2218,-4.1964,-4.171,-4.1563,-4.1416,-4.1336,-4.131,-4.1336,-4.1376,-4.1523,-4.1122,-4.0802,-4.0695,-4.0548,-4.0481,-4.0481,-4.0481,-4.0481,-4.0481,-4.0481,-4.0481,-4.0481,-4.0481,-4.0401,-4.0254,-4.0401,-4.0401,-2.5175,-2.442,-2.4069,-2.3658,-2.5538,-2.7389,0.0,0.0,0.0,0.0,0.0,0.0,0.0,0.0,0.0,0.0,0.0,0.0,0.0,0.0,0.0,0.0,0.0,0.0,0.0,0.0,0.0,0.0,0.0,-3.2156,-3.1324,-2.69,-2.4548,-2.4528,-2.4263,-2.3978,-2.368,-2.3558,-2.3395,-2.3219,-2.3219,-2.3219,-2.3219,-2.3219,-2.3205,-2.3185,0.0,0.0,-2.2744,-2.2744,-2.2608,-2.2391,-2.2534,-2.2676,-2.2818,-2.2818,-2.2798,-2.2744,-2.2554,-2.2201,-2.1815,-2.1564,-2.3289,-2.6378,-3.0019,-3.2857,-3.5553,-3.9094,-4.0867,-4.167,-4.1456,-4.1817,-4.2218,-4.2218,-4.2218,-4.2218,-4.2218,-4.2218,-4.2218,-4.2218,-4.2218,-4.2218,-4.2218,-4.2218,-4.2218,-4.2218,-4.2004,-4.1817,-4.179,-4.1603,-4.1523,-4.171,-4.1563,-4.1563,-4.1777,-4.1563,-4.131,-4.1056,-4.0762,-4.0588,-4.0548,-4.0508,-4.0481,-4.0481,-4.0481,-4.0481,-4.0481,-4.0481,-4.0481,-4.0481,-4.0481,-4.0481,-2.7919,-2.8704,-2.7925,-2.2547,-2.3753,-2.5623,0.0,0.0,0.0,0.0,0.0,0.0,0.0,0.0,0.0,0.0,0.0,0.0,0.0,0.0,0.0,0.0,0.0,0.0,0.0,0.0,0.0,0.0,0.0,-3.5164,-3.1445,-2.6841,-2.4507,-2.4385,-2.4209,-2.3978,-2.368,-2.3666,-2.3503,-2.3219,-2.3219,-2.3219,-2.3219,-2.3219,-2.3151,-2.3042,0.0,-2.2873,-2.2588,-2.2588,-2.2554,-2.2534,-2.2696,-2.2832,-2.2974,-2.2974,-2.2886,-2.273,-2.2323,-2.1971,-2.1692,-2.1652,-2.181,-2.2738,-2.6395,-2.7636,-2.9367,-3.5553,-3.9212,-4.1456,-4.167,-4.1964,-4.2218,-4.2218,-4.2218,-4.2218,-4.2218,-4.2218,-4.2218,-4.2218,-4.2218,-4.2218,-4.2218,-4.2218,-4.2218,-4.2218,-4.2178,-4.2071,-4.1817,-4.1964,-4.1924,-4.1456,-4.1817,-4.2004,-4.179,-4.175,-4.171,-4.1644,-4.1376,-4.1096,-4.0842,-4.0615,-4.0481,-4.0481,-4.0481,-4.0481,-4.0481,-4.0481,-4.0481,-4.0481,-4.0481,-4.0481,-2.7468,-2.8604,-2.8726,-2.4395,-2.5286,0.0,0.0,0.0,0.0,0.0,0.0,0.0,0.0,0.0,0.0,0.0,0.0,0.0,0.0,0.0,0.0,0.0,0.0,0.0,0.0,0.0,0.0,0.0,0.0,0.0,-3.4444,-3.0136,-2.6914,-2.446,-2.4155,-2.389,-2.368,-2.3592,-2.3449,-2.3219,-2.3219,-2.3219,-2.3219,-2.3219,-2.3185,-2.3117,0.0,-2.2886,-2.2676,-2.2588,-2.25,-2.273,-2.4805,-2.5809,-2.5948,-2.5948,-2.4459,-2.2608,-2.2235,-2.1971,-2.1774,-2.1692,-2.1564,-2.1958,-2.5607,-2.6581,-2.7513,-3.2293,-3.6383,-3.9478,-4.1263,-4.2004,-4.2218,-4.2218,-4.2218,-4.2218,-4.2218,-4.2218,-4.2218,-4.2218,-4.2218,-4.2218,-4.2218,-4.2218,-4.2218,-4.2218,-4.2218,-4.2178,-4.2031,-4.2138,-4.2111,-4.1857,-4.2071,-4.2178,-4.2031,-4.2004,-4.1897,-4.1563,-4.1416,-4.1203,-4.0909,-4.0762,-4.0628,-4.0481,-4.0481,-4.0481,-4.0481,-4.0481,-4.0481,-4.0481,-4.0481,-4.0481,-2.6787,-2.7548,-2.7797,0.0,0.0,0.0,0.0,0.0,0.0,0.0,0.0,0.0,0.0,0.0,0.0,0.0,0.0,0.0,0.0,0.0,0.0,0.0,0.0,0.0,0.0,0.0,0.0,0.0,0.0,0.0,-3.7314,-3.3074,-2.8685,-2.4708,-2.4066,-2.3802,-2.3626,-2.3503,-2.3381,-2.3219,-2.3219,-2.3219,-2.3219,-2.3219,-2.3205,-2.3171,-2.3063,-2.2907,-2.271,-2.2608,-2.2479,-2.2682,-2.5532,-2.6751,-2.7142,-2.7977,-2.5933,-2.2466,-2.2235,-2.2038,-2.1862,-2.176,-2.1597,-2.1972,-2.4555,-2.5256,-2.5917,-2.9273,-3.2994,-3.6431,-3.9793,-4.0704,-4.1178,-4.1978,-4.2218,-4.2218,-4.2218,-4.2218,-4.2218,-4.2218,-4.2218,-4.2218,-4.2218,-4.2218,-4.2218,-4.2218,-4.2218,-4.2218,-4.2218,-4.2218,-4.2178,-4.2111,-4.2178,-4.2218,-4.2218,-4.2218,-4.2031,-4.1563,-4.1483,-4.135,-4.1122,-4.0989,-4.0842,-4.0695,-4.0548,-4.0508,-4.0588,-4.0508,-4.0481,-4.0481,-4.0481,-4.0481,-2.7722,-2.6929,0.0,0.0,0.0,0.0,0.0,0.0,0.0,0.0,0.0,0.0,0.0,0.0,0.0,0.0,0.0,0.0,0.0,0.0,0.0,0.0,0.0,0.0,0.0,0.0,0.0,0.0,0.0,0.0,-3.6866,-3.2928,-2.8518,-2.3951,-2.391,-2.3754,-2.347,-2.3449,-2.3381,-2.3219,-2.3219,-2.3219,-2.3219,-2.3219,-2.3151,-2.3029,-2.3008,-2.2832,-2.2574,-2.2554,-2.2554,-2.2534,-2.2826,-2.3105,-2.3398,-2.6687,-2.5493,-2.2357,-2.2323,-2.2127,-2.1882,-2.1862,-2.1672,-2.1441,-2.17,-2.17,-2.2466,-2.5854,-2.9488,-3.282,-3.6199,-3.7079,-3.8315,-4.1432,-4.2218,-4.2218,-4.2218,-4.2218,-4.2218,-4.2218,-4.2218,-4.2218,-4.2218,-4.2218,-4.2218,-4.2218,-4.2218,-4.2218,-4.2218,-4.2218,-4.2111,-4.1857,-4.2071,-4.2218,-4.2218,-4.2218,-4.2218,-4.2151,-4.1897,-4.175,-4.171,-4.1203,-4.1016,-4.1269,-4.0762,-4.0615,-4.0869,-4.0615,-4.0481,-4.0481,-4.0481,-4.0481,-2.6934,-2.733,0.0,0.0,0.0,0.0,0.0,0.0,0.0,0.0,0.0,0.0,0.0,0.0,0.0,0.0,0.0,0.0,0.0,0.0,0.0,0.0,0.0,0.0,0.0,0.0,0.0,0.0,0.0,0.0,-3.3421,-3.3638,-3.0969,-2.4337,-2.3768,-2.3558,-2.3449,-2.3361,-2.3239,-2.3097,-2.3185,-2.3219,-2.3219,-2.3219,-2.3185,-2.313,-2.294,-2.2798,-2.2676,-2.25,-2.2425,-2.298,-2.7726,-2.9334,-2.9501,-3.0847,-2.8813,-2.5147,-2.2905,-2.1916,-2.176,-2.176,-2.1618,-2.1441,-2.1441,-2.1441,-2.1693,-2.3009,-2.587,-2.973,-3.5338,-3.8485,-4.0645,-4.1965,-4.2218,-4.2218,-4.2218,-4.2218,-4.2218,-4.2218,-4.2218,-4.2218,-4.2218,-4.2218,-4.2218,-4.2218,-4.2218,-4.2218,-4.2218,-4.2218,-4.2178,-4.2071,-4.2151,-4.2218,-4.2218,-4.2218,-4.2218,-4.2218,-4.2111,-4.1964,-4.179,-4.1563,-4.135,-4.1082,-4.0869,-4.0695,-4.0655,-4.0508,-4.0481,-4.0481,-4.0481,-4.0481,-2.6255,-2.6465,-2.6673,-2.8144,0.0,0.0,0.0,0.0,0.0,0.0,0.0,0.0,0.0,0.0,0.0,0.0,0.0,0.0,0.0,0.0,0.0,0.0,0.0,0.0,0.0,0.0,0.0,0.0,0.0,0.0,0.0,-3.2777,-3.1001,-2.4213,-2.3612,-2.3429,-2.3381,-2.3219,-2.3083,-2.294,-2.3029,-2.3083,-2.3083,-2.313,-2.313,-2.3063,-2.2873,-2.2744,-2.2696,-2.25,-2.2378,-2.3158,-3.0556,-3.239,-3.1442,-3.2721,-3.0713,-2.6837,-2.3256,-2.1794,-2.1672,-2.1672,-2.1564,-2.1441,-2.1441,-2.1408,-2.1367,-2.1421,-2.4787,-2.9413,-3.4142,-3.8036,-4.0924,-4.1965,-4.2218,-4.2218,-4.2218,-4.2218,-4.2218,-4.2218,-4.2218,-4.2218,-4.2218,-4.2218,-4.2218,-4.2218,-4.2218,-4.2218,-4.2218,-4.2218,-4.2218,-4.2218,-4.2218,-4.2218,-4.2218,-4.2218,-4.2218,-4.2218,-4.2218,-4.2138,-4.1924,-4.1817,-4.1644,-4.135,-4.1122,-4.0989,-4.0882,-4.0802,-4.0695,-4.0615,-4.0615,-4.0548,-2.5818,-2.3704,-2.1351,0.0,0.0,0.0,0.0,0.0,0.0,0.0,0.0,0.0,0.0,0.0,0.0,0.0,0.0,0.0,0.0,0.0,0.0,0.0,0.0,0.0,0.0,0.0,0.0,0.0,0.0,0.0,0.0,-3.0104,-2.8085,-2.3456,-2.3449,-2.3381,-2.3219,-2.3083,-2.2927,-2.2784,-2.2784,-2.2784,-2.2784,-2.294,-2.292,-2.2784,-2.2784,-2.2696,-2.2554,-2.2554,-2.2466,-2.2862,-2.9961,-3.0416,-2.7731,-3.1266,-3.0116,-2.6663,-2.3206,-2.1781,-2.1672,-2.1672,-2.1564,-2.1441,-2.1441,-2.1333,-2.1245,-2.1387,-2.6244,-3.1543,-3.1776,-3.4421,-3.8036,-4.1432,-4.2218,-4.2218,-4.2218,-4.2218,-4.2218,-4.2218,-4.2218,-4.2218,-4.2218,-4.2218,-4.2218,-4.2218,-4.2218,-4.2218,-4.2218,-4.2218,-4.2218,-4.2218,-4.2218,-4.2218,-4.2218,-4.2218,-4.2218,-4.2218,-4.2218,-4.2218,-4.2218,-4.1924,-4.1924,-4.2218,-4.163,-4.1483,-4.179,-4.1483,-4.1203,-4.0909,-4.0909,-4.0762,-2.4009,0.0,0.0,0.0,0.0,0.0,0.0,0.0,0.0,0.0,0.0,0.0,0.0,0.0,0.0,0.0,0.0,0.0,0.0,0.0,0.0,0.0,0.0,0.0,0.0,0.0,0.0,0.0,0.0,0.0,0.0,-2.9464,-2.7539,-2.3456,-2.3347,-2.3219,-2.3083,-2.5543,-2.6704,-2.603,-2.8889,-2.7575,-2.2622,-2.2784,-2.2818,-2.2784,-2.2676,-2.2534,-2.2391,-2.2289,-2.2289,-2.2862,-2.9961,-3.2015,-3.1163,-3.2129,-3.1746,-2.9863,-2.3575,-2.1387,-2.1353,-2.1353,-2.1245,-2.1143,-2.1245,-2.1177,-2.1068,-2.1123,-2.596,-3.1301,-3.1543,-3.5956,-4.0652,-4.1898,-4.2218,-4.2218,-4.2218,-4.2218,-4.2218,-4.2218,-4.2218,-4.2218,-4.2218,-4.2218,-4.2218,-4.2218,-4.2218,-4.2218,-4.2218,-4.2218,-4.2218,-4.2218,-4.2218,-4.2218,-4.2218,-4.2218,-4.2218,-4.2218,-4.2218,-4.2218,-4.2218,-4.2138,-4.2031,-4.1924,-4.175,-4.1603,-4.1483,-4.1376,-4.131,-4.1203,-4.1203,-4.1163,0.0,0.0,0.0,0.0,0.0,0.0,0.0,0.0,0.0,0.0,0.0,0.0,0.0,0.0,0.0,0.0,0.0,0.0,0.0,0.0,0.0,0.0,0.0,0.0,0.0,0.0,0.0,0.0,0.0,0.0,0.0,-2.6915,-2.5913,-2.3361,-2.3219,-2.3063,-2.292,-2.5014,-2.6378,-2.7274,-2.981,-2.9286,-2.6245,-2.6502,-2.6622,-2.6598,-2.5064,-2.3638,-2.2235,-2.2079,-2.2079,-2.2954,-2.9722,-3.2544,-3.2524,-3.216,-3.2029,-3.0936,-2.3621,-2.1211,-2.1197,-2.1143,-2.1068,-2.1021,-2.1109,-2.1021,-2.0933,-2.098,-2.5079,-2.9702,-3.1186,-3.5678,-4.0199,-4.1925,-4.2218,-4.2218,-4.2218,-4.2325,-4.2405,-4.2405,-4.2405,-4.2405,-4.2405,-4.2405,-4.2405,-4.2405,-4.2405,-4.2445,-4.2552,-4.2472,-4.2405,-4.2405,-4.2405,-4.2325,-4.2218,-4.2218,-4.2218,-4.2218,-4.2218,-4.2218,-4.2218,-4.2218,-4.2138,-4.1964,-4.1964,-4.1857,-4.171,-4.171,-4.163,-4.1523,-4.1523,-4.1456,0.0,0.0,0.0,0.0,0.0,0.0,0.0,0.0,0.0,0.0,0.0,0.0,0.0,0.0,0.0,0.0,0.0,0.0,0.0,0.0,0.0,0.0,0.0,0.0,0.0,0.0,0.0,0.0,0.0,-2.4008,-2.3995,-2.3588,-2.3219,-2.3205,-2.3063,-2.2907,-2.2744,-2.2737,-2.4313,-2.7173,-2.7699,-2.9729,-3.2704,-3.2605,-3.251,-3.251,-2.8838,-2.5424,-2.2618,-2.2194,-2.1862,-2.2666,-2.9354,-3.217,-3.215,-3.1907,-3.1827,-3.075,-2.3599,-2.1211,-2.1177,-2.1034,-2.098,-2.0967,-2.098,-2.0878,-2.077,-2.0912,-2.351,-2.6878,-3.0122,-3.3946,-3.7768,-4.0911,-4.1965,-4.2218,-4.2218,-4.2445,-4.2619,-4.2619,-4.2619,-4.2619,-4.2619,-4.2659,-4.2659,-4.2699,-4.2699,-4.2806,-4.306,-4.2846,-4.2659,-4.2659,-4.2632,-4.2512,-4.2258,-4.2218,-4.2218,-4.2218,-4.2218,-4.2218,-4.2258,-4.2258,-4.2258,-4.2218,-4.2258,-4.2258,-4.2218,-4.2218,-4.2071,-4.1817,-4.1817,-4.167,0.0,0.0,0.0,0.0,0.0,0.0,0.0,0.0,0.0,0.0,0.0,0.0,0.0,0.0,0.0,0.0,0.0,0.0,0.0,0.0,0.0,0.0,0.0,0.0,0.0,0.0,0.0,0.0,-2.9507,-2.7946,-2.78,-2.494,-2.3171,-2.3063,-2.2907,-2.271,-2.2445,-2.495,-2.6551,-2.6979,-3.2493,-3.5618,-3.6375,-3.3509,-3.2299,-3.2289,-2.865,-2.6555,-2.5923,-2.2836,-2.1781,-2.2666,-2.9354,-3.217,-3.215,-3.1907,-3.1827,-3.075,-2.3599,-2.1143,-2.1034,-2.1021,-2.0845,-2.0661,-2.079,-2.0716,-2.0594,-2.0627,-2.3251,-2.6177,-2.7126,-3.1934,-3.7032,-3.7999,-4.0124,-4.2218,-4.2218,-4.2258,-4.2325,-4.2325,-4.2325,-4.2325,-4.2325,-4.2512,-4.2739,-4.2953,-4.2993,-4.302,-4.31,-4.2846,-4.2659,-4.2659,-4.2445,-4.2298,-4.2218,-4.2218,-4.2218,-4.2218,-4.2218,-4.2325,-4.2552,-4.2552,-4.2445,-4.2218,-4.2445,-4.2445,-4.2218,-4.2218,-4.2178,-4.2111,-4.2111,-4.2071,0.0,0.0,0.0,0.0,0.0,0.0,0.0,0.0,0.0,0.0,0.0,0.0,0.0,0.0,0.0,0.0,0.0,0.0,0.0,0.0,0.0,0.0,0.0,0.0,0.0,0.0,0.0,-3.228,-2.8503,-2.6101,-2.5941,-2.4239,-2.3029,-2.2798,-2.2642,-2.2432,-2.2127,-2.3841,-2.5495,-2.6801,-3.0452,-3.3039,-3.4877,-3.6421,-3.6285,-3.4684,-3.2632,-3.0839,-2.9171,-2.5569,-2.3976,-2.4561,-2.8136,-3.0452,-3.1738,-3.0066,-3.0279,-3.075,-2.3599,-2.1123,-2.098,-2.0912,-2.0736,-2.056,-2.0627,-2.0614,-2.0539,-2.0539,-2.3228,-2.6492,-2.8095,-3.2699,-3.737,-3.9043,-4.0924,-4.2258,-4.2405,-4.2552,-4.2686,-4.2806,-4.2833,-4.2833,-4.2833,-4.298,-4.3167,-4.3487,-4.338,-4.3314,-4.3314,-4.3167,-4.298,-4.2699,-4.2659,-4.2512,-4.2258,-4.2365,-4.2445,-4.2445,-4.2552,-4.2699,-4.2873,-4.2993,-4.2873,-4.2445,-4.2592,-4.2512,-4.2218,-4.2218,-4.2218,-4.2218,-4.2218,-4.2218,0.0,0.0,0.0,0.0,0.0,0.0,0.0,0.0,0.0,0.0,0.0,0.0,0.0,0.0,0.0,0.0,0.0,0.0,0.0,0.0,0.0,0.0,0.0,0.0,0.0,-3.5447,-3.4202,-3.0228,-2.6372,-2.3689,-2.3008,-2.2995,-2.2832,-2.252,-2.2378,-2.2147,-2.1848,-2.1706,-2.3119,-2.5558,-2.6345,-2.8436,-3.2106,-3.8032,-3.9427,-3.7318,-3.7107,-3.5563,-3.2632,-2.9059,-2.7435,-2.7435,-2.7435,-2.9246,-3.1308,-2.795,-2.8436,-2.9942,-2.3352,-2.1123,-2.0946,-2.0845,-2.0682,-2.0539,-2.0539,-2.0786,-2.1294,-2.1294,-2.4031,-2.7629,-3.0672,-3.4049,-3.7792,-4.0645,-4.1698,-4.2298,-4.2592,-4.2846,-4.31,-4.338,-4.342,-4.342,-4.3527,-4.3487,-4.3567,-4.3928,-4.3781,-4.3594,-4.3527,-4.3487,-4.3233,-4.2726,-4.2846,-4.2726,-4.2258,-4.2485,-4.2659,-4.2659,-4.2953,-4.3127,-4.3167,-4.338,-4.3314,-4.2806,-4.2806,-4.2619,-4.2298,-4.2298,-4.2258,-4.2218,-4.2218,-4.2218,0.0,0.0,0.0,0.0,0.0,0.0,0.0,0.0,0.0,0.0,0.0,0.0,0.0,0.0,0.0,0.0,0.0,0.0,0.0,0.0,0.0,0.0,0.0,0.0,-3.4849,-3.7493,-3.7909,-3.3973,-3.0123,-2.6369,-2.33,-2.2886,-2.2676,-2.2378,-2.2215,-2.2004,-2.1706,-2.155,-2.1659,-2.2026,-2.4859,-2.8292,-3.1837,-3.2914,-3.4723,-3.7071,-3.7048,-3.6768,-3.6021,-3.2603,-3.1058,-3.1058,-3.1058,-3.1308,-3.1308,-2.795,-2.6792,-2.6672,-2.2666,-2.1143,-2.0824,-2.0933,-2.077,-2.0539,-2.0539,-2.2547,-2.4795,-2.4795,-2.756,-3.0672,-3.1159,-3.4049,-3.7024,-3.7524,-3.9882,-4.2298,-4.2592,-4.2699,-4.2806,-4.31,-4.2953,-4.2953,-4.3447,-4.3314,-4.3354,-4.3928,-4.3968,-4.3861,-4.3567,-4.3314,-4.302,-4.2699,-4.2472,-4.2298,-4.2218,-4.2485,-4.2659,-4.2659,-4.2953,-4.3207,-4.3461,-4.3487,-4.3487,-4.342,-4.342,-4.3127,-4.2592,-4.2592,-4.2472,-4.2218,-4.2218,-4.2218,0.0,0.0,0.0,0.0,0.0,0.0,0.0,0.0,0.0,0.0,0.0,0.0,0.0,0.0,0.0,0.0,0.0,0.0,0.0,0.0,0.0,0.0,0.0,-3.4384,-3.4617,-3.5835,-3.6255,-3.4562,-2.8824,-2.451,-2.2751,-2.2622,-2.2391,-2.2093,-2.1937,-2.176,-2.155,-2.1387,-2.1245,-2.1089,-2.2631,-2.4212,-2.5834,-2.7728,-3.0671,-3.4174,-3.6232,-3.7013,-3.7001,-3.545,-3.4679,-3.4421,-3.0279,-3.0028,-3.1058,-2.5599,-2.4771,-2.5992,-2.2623,-2.1123,-2.0892,-2.0878,-2.0716,-2.0539,-2.0539,-2.2792,-2.5542,-2.5542,-2.9579,-3.4204,-3.4204,-3.689,-3.9869,-3.9869,-4.1178,-4.2325,-4.2806,-4.2766,-4.2806,-4.3233,-4.338,-4.3501,-4.3754,-4.3674,-4.3714,-4.3968,-4.4008,-4.3821,-4.3354,-4.3314,-4.31,-4.2472,-4.2445,-4.2472,-4.2472,-4.2726,-4.298,-4.3127,-4.342,-4.3567,-4.3527,-4.3714,-4.3714,-4.3527,-4.3527,-4.3314,-4.2913,-4.2739,-4.2592,-4.2472,-4.2298,-4.2218,0.0,0.0,0.0,0.0,0.0,0.0,0.0,0.0,0.0,0.0,0.0,0.0,0.0,0.0,0.0,0.0,0.0,0.0,0.0,0.0,0.0,-2.2961,-2.9621,-3.4142,-3.4293,-3.4111,-3.401,-3.4061,-2.688,-2.2567,-2.25,-2.2323,-2.2093,-2.1828,-2.1686,-2.155,-2.1387,-2.1197,-2.1068,-2.1001,-2.0967,-2.0967,-2.1001,-2.3678,-2.663,-2.9339,-3.3776,-3.614,-3.6919,-3.6919,-3.7393,-3.7334,-3.0432,-2.9395,-3.0891,-2.3967,-2.3426,-2.6236,-2.3307,-2.2378,-2.2198,-2.2082,-2.1421,-2.0539,-2.0539,-2.3535,-2.6788,-2.6788,-3.2079,-3.7525,-3.7525,-3.9981,-4.2218,-4.2218,-4.2218,-4.2365,-4.2873,-4.2993,-4.31,-4.3461,-4.3714,-4.3901,-4.4008,-4.3928,-4.3901,-4.4008,-4.4008,-4.3781,-4.3167,-4.3273,-4.31,-4.2298,-4.2405,-4.2552,-4.2552,-4.2873,-4.3207,-4.342,-4.3781,-4.3888,-4.3674,-4.3888,-4.3888,-4.3634,-4.3567,-4.338,-4.31,-4.2873,-4.2699,-4.2552,-4.2325,-4.2258,0.0,0.0,0.0,0.0,0.0,0.0,0.0,0.0,0.0,0.0,0.0,0.0,0.0,0.0,0.0,0.0,0.0,0.0,0.0,0.0,-2.2798,-2.2798,-2.9428,-3.3838,-3.3838,-3.3657,-3.3606,-3.3818,-2.6462,-2.2201,-2.2337,-2.2072,-2.1828,-2.1686,-2.153,-2.1367,-2.1231,-2.0933,-2.0858,-2.1001,-2.0858,-2.0858,-2.1001,-2.1267,-2.1274,-2.2053,-2.8875,-3.3561,-3.666,-3.6648,-3.8535,-4.0409,-3.3973,-3.1372,-3.0447,-2.3746,-2.3455,-2.6142,-2.606,-2.5884,-2.5821,-2.5583,-2.3175,-2.0539,-2.0539,-2.5039,-3.0274,-3.0274,-3.5342,-4.1102,-4.1102,-4.1513,-4.2218,-4.2218,-4.2218,-4.2298,-4.2619,-4.3354,-4.3861,-4.3567,-4.3527,-4.3634,-4.3968,-4.3754,-4.3634,-4.3968,-4.4008,-4.3781,-4.3167,-4.31,-4.2873,-4.2285,-4.2218,-4.2258,-4.2258,-4.2766,-4.31,-4.3127,-4.3674,-4.4008,-4.3968,-4.4008,-4.4008,-4.3968,-4.3674,-4.338,-4.31,-4.31,-4.2806,-4.2258,-4.2218,-4.2365,0.0,0.0,0.0,0.0,0.0,0.0,0.0,0.0,0.0,0.0,0.0,0.0,0.0,0.0,0.0,0.0,0.0,0.0,-2.2513,-2.2411,-2.2357,-2.2357,-2.8971,-3.3454,-3.3606,-3.5585,-3.6017,-3.3655,-2.8349,-2.4405,-2.2045,-2.176,-2.1584,-2.153,-2.1285,-2.1089,-2.0933,-2.0824,-2.0756,-2.0702,-2.0648,-2.0648,-2.0716,-2.0804,-2.0858,-2.1102,-2.3457,-2.6596,-3.028,-3.459,-3.7097,-3.8025,-3.5576,-3.3281,-3.0672,-2.5918,-2.512,-2.6091,-2.6049,-2.7196,-2.8561,-2.6417,-2.4853,-2.3298,-2.1033,-2.3795,-2.7799,-3.0194,-3.4232,-3.8574,-4.1065,-4.1924,-4.2218,-4.2218,-4.2512,-4.2766,-4.2659,-4.3207,-4.3674,-4.3567,-4.3714,-4.3861,-4.3968,-4.3901,-4.3861,-4.3995,-4.4008,-4.3861,-4.342,-4.3207,-4.302,-4.2806,-4.2619,-4.2659,-4.302,-4.3233,-4.3461,-4.3674,-4.3888,-4.3901,-4.3714,-4.3888,-4.3901,-4.3714,-4.3781,-4.3674,-4.338,-4.3207,-4.298,-4.2766,-4.2592,-4.2659,0.0,0.0,0.0,0.0,0.0,0.0,0.0,0.0,0.0,0.0,0.0,0.0,0.0,0.0,0.0,0.0,-2.2567,-2.2357,-2.2201,-2.2093,-2.2038,-2.2038,-2.7495,-3.1933,-3.3141,-3.5101,-3.6079,-3.4823,-2.9878,-2.5997,-2.3672,-2.2048,-2.1319,-2.1211,-2.1021,-2.0845,-2.0702,-2.0702,-2.0648,-2.0539,-2.0539,-2.1033,-2.2301,-2.2419,-2.2456,-2.2456,-2.2456,-2.3823,-2.6509,-3.1048,-3.3547,-3.4482,-3.4322,-3.3033,-3.0705,-2.8504,-2.8268,-2.9265,-2.9142,-3.0595,-3.2047,-2.9586,-2.8021,-2.6528,-2.329,-2.5273,-2.9058,-3.0514,-3.4288,-3.8587,-4.1184,-4.2004,-4.2218,-4.2218,-4.2579,-4.2913,-4.2846,-4.3273,-4.3634,-4.3567,-4.3781,-4.4008,-4.4008,-4.4008,-4.4008,-4.4008,-4.4008,-4.3888,-4.3567,-4.3354,-4.3207,-4.31,-4.2913,-4.2953,-4.3354,-4.3461,-4.3607,-4.3821,-4.3928,-4.3901,-4.3714,-4.3888,-4.3901,-4.3674,-4.3781,-4.3741,-4.3527,-4.334,-4.3207,-4.31,-4.2913,-4.2953,0.0,0.0,0.0,0.0,0.0,0.0,0.0,0.0,0.0,0.0,0.0,0.0,0.0,0.0,-2.2323,-2.2323,-2.2201,-2.2038,-2.1903,-2.1862,-2.1862,-2.1862,-2.5069,-2.8793,-3.2239,-3.2565,-3.3824,-3.748,-3.1033,-2.6988,-2.6894,-2.3171,-2.1068,-2.077,-2.077,-2.0702,-2.0539,-2.0539,-2.0539,-2.0539,-2.0546,-2.2286,-2.5542,-2.5542,-2.5542,-2.5542,-2.5542,-2.5643,-2.5821,-2.5812,-2.7703,-3.0284,-3.0755,-3.0704,-3.0543,-3.0755,-3.284,-3.585,-3.5838,-3.585,-3.605,-3.5544,-3.3236,-3.0015,-2.6788,-3.0254,-3.4783,-3.1787,-3.5812,-4.1155,-4.171,-4.2004,-4.2218,-4.2218,-4.2445,-4.2739,-4.302,-4.3567,-4.3901,-4.3594,-4.3781,-4.4008,-4.4008,-4.4008,-4.4008,-4.4008,-4.4008,-4.3888,-4.3567,-4.3527,-4.342,-4.3167,-4.3127,-4.3127,-4.3127,-4.342,-4.3567,-4.3567,-4.3861,-4.4035,-4.4008,-4.4035,-4.4035,-4.4008,-4.3714,-4.3567,-4.3567,-4.3527,-4.338,-4.31,-4.3127,-4.3273,-2.5792,0.0,0.0,0.0,0.0,0.0,-2.6223,-2.6027,-2.5273,0.0,0.0,-2.1001,-2.1903,-2.2038,-2.1971,-2.1862,-2.1815,-2.1774,-2.174,-2.1638,-2.1564,-2.1564,-2.482,-2.8578,-3.2009,-3.4554,-3.6295,0.0,-3.5115,-3.1543,-2.6587,-2.2787,-2.0804,-2.0614,-2.0614,-2.058,-2.0539,-2.0539,-2.0539,-2.0539,-2.3053,-2.4535,-2.5542,-2.8021,-2.9038,-2.9029,-2.6528,-2.5558,-2.5626,-2.5609,-2.6096,-2.7038,-2.9586,-3.0573,-3.0522,-3.0573,-3.2581,-3.5568,-3.5591,-3.7078,-3.8842,-3.6257,-3.4983,-3.3505,-3.0025,-3.0512,-3.2301,-3.4042,-3.6038,-3.8386,-4.1448,-4.2151,-4.2218,-4.2218,-4.2619,-4.2993,-4.3086,-4.3567,-4.3968,-4.3888,-4.3928,-4.4008,-4.4008,-4.4008,-4.4008,-4.4008,-4.4008,-4.3968,-4.3888,-4.3674,-4.3674,-4.4035,-4.3888,-4.3928,-4.4329,-4.4449,-4.4516,-4.4516,-4.4583,-4.4543,-4.4329,-4.4516,-4.4543,-4.4329,-4.4222,-4.4182,-4.4182,-4.3741,-4.3487,-4.342,-4.3634,-4.3674,0.0,0.0,0.0,0.0,0.0,0.0,-2.6234,-2.5073,-2.3868,0.0,-2.0394,-2.0227,-2.1231,-2.1475,-2.202,-2.3311,-2.356,-2.3068,-2.1837,-2.1496,-2.1441,-2.1441,-2.334,-2.6512,-3.1388,-3.3701,-3.593,-3.8505,-3.7312,-3.3292,-2.6228,-2.2596,-2.0702,-2.0539,-2.0539,-2.0539,-2.0539,-2.0539,-2.0539,-2.0539,-2.2547,-2.4795,-2.7771,-2.9517,-3.1267,-3.2484,-3.0522,-2.8021,-2.5542,-2.5542,-2.4787,-2.3803,-2.7038,-2.9268,-3.0781,-3.2011,-3.4725,-3.7482,-3.7482,-3.8957,-4.0225,-3.8227,-3.7482,-3.6968,-3.3483,-3.3505,-3.4794,-3.5779,-3.7142,-3.905,-4.1434,-4.2111,-4.2218,-4.2218,-4.2579,-4.2953,-4.306,-4.3461,-4.3861,-4.3968,-4.4008,-4.4008,-4.4008,-4.4008,-4.4008,-4.4008,-4.4008,-4.4035,-4.4182,-4.4035,-4.4075,-4.4583,-4.4476,-4.4516,-4.485,-4.4877,-4.4877,-4.4877,-4.4877,-4.481,-4.4623,-4.481,-4.481,-4.4623,-4.4623,-4.4623,-4.4623,-4.4008,-4.3714,-4.3741,-4.3928,-4.3901,0.0,0.0,0.0,0.0,0.0,0.0,-2.7996,-2.5246,-2.2622,-2.2129,-2.0576,-1.961,-2.0404,-2.0716,-2.189,-2.5528,-2.6184,-2.5355,-2.2459,-2.1951,-2.17,-2.1441,-2.1441,-2.3975,-3.0762,-3.1503,-3.4227,-4.0814,-3.7951,-3.3306,-2.6565,-2.3011,-2.1186,-2.0539,-2.0526,-2.0526,-2.0526,-2.0505,-2.0505,-2.0526,-2.0773,-2.4267,-3.0522,-3.074,-3.2731,-3.5988,-3.5696,-3.1968,-2.6528,-2.5784,-2.3542,-2.0786,-2.3779,-2.7289,-3.0761,-3.3752,-3.7212,-4.0481,-4.0481,-4.0481,-4.0481,-4.0481,-4.0481,-3.9956,-3.6968,-3.8214,-4.0022,-3.7286,-3.901,-4.175,-4.179,-4.2004,-4.2218,-4.2218,-4.2445,-4.2739,-4.302,-4.3314,-4.3594,-4.3928,-4.4008,-4.4008,-4.3968,-4.3968,-4.4008,-4.4008,-4.4035,-4.4142,-4.4396,-4.4476,-4.4583,-4.4877,-4.4917,-4.4957,-4.4984,-4.4984,-4.4984,-4.4984,-4.4984,-4.4957,-4.4917,-4.4957,-4.4957,-4.4917,-4.4917,-4.4917,-4.4877,-4.4329,-4.4035,-4.4035,-4.4008,-4.4008,0.0,0.0,0.0,0.0,0.0,0.0,-2.5901,-2.3698,-2.2111,-2.0773,-1.8932,-1.7846,-1.8959,-1.9576,-2.0779,-2.3252,-2.4888,-2.6091,-2.5534,-2.5615,-2.4578,-2.17,-2.1441,-2.3975,-3.0762,-3.1503,-3.4139,-4.0537,-3.7767,-3.3863,-2.9845,-2.6339,-2.3336,-2.0546,-2.0438,-2.0363,-2.0363,-2.0241,-2.0241,-2.0363,-2.3097,-2.6619,-3.0522,-3.3027,-3.603,-3.947,-3.6492,-3.4541,-3.3225,-2.7771,-2.3542,-2.0539,-2.1287,-2.529,-3.0522,-3.1267,-3.524,-4.0481,-4.0481,-4.0481,-4.0481,-4.0481,-4.0481,-4.0468,-3.9726,-3.9969,-4.0535,-4.0067,-4.0642,-4.1483,-4.171,-4.2004,-4.2218,-4.2218,-4.2445,-4.2739,-4.302,-4.3127,-4.3354,-4.3888,-4.4008,-4.3928,-4.3674,-4.3821,-4.4008,-4.4008,-4.4222,-4.4369,-4.4436,-4.4663,-4.4917,-4.5197,-4.5237,-4.5318,-4.5558,-4.5571,-4.5571,-4.5571,-4.5571,-4.5465,-4.5237,-4.5451,-4.5451,-4.5237,-4.5237,-4.5104,-4.4877,-4.4516,-4.4356,-4.4356,-4.4115,-4.4008,0.0,0.0,0.0,-2.8417,0.0,0.0,0.0,-2.4373,-2.1807,-2.1676,-1.8878,-1.6876,-1.8002,-1.8321,-2.0112,-2.4985,-2.6744,-2.8083,-3.0065,-2.8205,-2.5216,-2.184,-2.2878,-2.5876,-3.0691,-3.2795,-3.5735,-4.0233,-3.7531,-3.4725,-3.3,-2.828,-2.4787,-2.3037,-2.1146,-2.0329,-2.0329,-2.0173,-2.0139,-2.0207,-2.194,-2.4434,-2.798,-3.1035,-3.43,-3.7999,-3.7606,-3.6638,-3.5042,-3.17,-2.7466,-2.2672,-2.1013,-2.3542,-2.828,-2.9776,-3.374,-3.8227,-3.9982,-4.0481,-4.0481,-4.0481,-4.0481,-4.0481,-4.0481,-4.0481,-4.0508,-4.0655,-4.0909,-4.1203,-4.1483,-4.1777,-4.2031,-4.2178,-4.2325,-4.2512,-4.2806,-4.2873,-4.302,-4.3461,-4.3674,-4.3781,-4.3754,-4.4008,-4.4222,-4.4222,-4.4476,-4.469,-4.4837,-4.4984,-4.5211,-4.5491,-4.5531,-4.5598,-4.5745,-4.5745,-4.5745,-4.5745,-4.5745,-4.5678,-4.5531,-4.5678,-4.5678,-4.5531,-4.5531,-4.5451,-4.5318,-4.5024,-4.473,-4.4436,-4.4142,-4.4008,0.0,0.0,0.0,0.0,0.0,-2.9299,0.0,0.0,0.0,-2.2892,-1.9631,-1.6771,-1.7053,0.0,0.0,-2.6276,-2.8129,-2.9683,-3.2712,-2.9732,-2.6354,-2.3016,-2.5394,-2.8378,-3.1297,-3.4788,-3.7717,-4.0238,-3.7782,-3.6018,-3.5474,-2.9776,-2.652,-2.6476,-2.309,-2.1499,-2.1962,-2.1312,-2.1,-2.1035,-2.0306,-2.1785,-2.5238,-2.8336,-3.1849,-3.527,-3.8417,-3.8404,-3.5778,-3.5554,-3.2055,-2.6743,-2.3716,-2.4047,-2.677,-3.0274,-3.3483,-3.6956,-3.9457,-4.0481,-4.0481,-4.0481,-4.0481,-4.0481,-4.0481,-4.0481,-4.0481,-4.0481,-4.0695,-4.0949,-4.1203,-4.1483,-4.1777,-4.2071,-4.2138,-4.2218,-4.2592,-4.2619,-4.2699,-4.31,-4.3314,-4.3567,-4.3928,-4.4249,-4.4476,-4.4516,-4.477,-4.5064,-4.5277,-4.5344,-4.5491,-4.5705,-4.5745,-4.5745,-4.5745,-4.5745,-4.5745,-4.5745,-4.5745,-4.5745,-4.5745,-4.5745,-4.5705,-4.5665,-4.5705,-4.5745,-4.5745,-4.5384,-4.4984,-4.4516,-4.4222,-4.4035,0.0,0.0,0.0,0.0,-3.157,0.0,0.0,0.0,-2.4936,-2.2362,0.0,-1.7797,0.0,0.0,0.0,0.0,-2.5697,-2.7918,-2.955,-3.0553,-3.06,-2.8452,-2.9162,-3.1101,-3.4536,-3.6915,-3.8926,-4.0401,-3.9242,-3.744,-3.5672,-3.2011,-2.9926,-2.947,-2.6098,-2.5668,-2.8395,-2.5311,-2.3852,-2.3999,-2.1355,-2.1675,-2.5221,-2.8211,-3.1371,-3.4986,-3.7901,-3.9149,-3.8926,-3.6261,-3.4623,-3.3638,-3.0669,-2.9517,-3.0264,-3.374,-3.6968,-3.9969,-4.0468,-4.0481,-4.0481,-4.0481,-4.0481,-4.0481,-4.0481,-4.0481,-4.0481,-4.0481,-4.0695,-4.0909,-4.0949,-4.1163,-4.1456,-4.175,-4.1817,-4.2004,-4.2552,-4.2445,-4.2512,-4.3314,-4.3314,-4.3314,-4.3901,-4.4249,-4.4516,-4.481,-4.5064,-4.5277,-4.5318,-4.5531,-4.5705,-4.5745,-4.5745,-4.5745,-4.5745,-4.5745,-4.5745,-4.5745,-4.5745,-4.5745,-4.5745,-4.5745,-4.5638,-4.5384,-4.5598,-4.5745,-4.5745,-4.5197,-4.4877,-4.481,-4.4516,-4.4249,0.0,0.0,0.0,0.0,0.0,0.0,-2.9659,0.0,-2.4692,0.0,0.0,0.0,0.0,0.0,0.0,0.0,-2.2302,-2.4478,-2.833,-2.9918,-3.0035,-2.8225,-2.9647,-3.2305,-3.6241,-3.7697,-3.8731,-3.9412,-3.8838,-3.8099,-3.7695,-3.4843,-3.2972,-3.2884,-2.9468,-2.8288,-2.9281,-2.7865,-2.6381,-2.4535,-2.3109,-2.2427,-2.2023,-2.507,-2.8471,-3.2049,-3.5082,-3.7511,-3.9123,-3.8365,-3.6732,-3.4898,-3.5821,-3.3998,-3.1019,-3.4222,-3.6478,-3.797,-3.9739,-4.0481,-4.0481,-4.0481,-4.0481,-4.0481,-4.0481,-4.0481,-4.0508,-4.0695,-4.0695,-4.0735,-4.1082,-4.1122,-4.1203,-4.167,-4.179,-4.1897,-4.2325,-4.2298,-4.2432,-4.3127,-4.3167,-4.338,-4.4329,-4.4623,-4.473,-4.485,-4.5277,-4.5558,-4.5558,-4.5531,-4.5558,-4.5745,-4.5598,-4.5558,-4.5745,-4.5745,-4.5745,-4.5745,-4.5598,-4.5424,-4.5237,-4.5237,-4.5277,-4.5318,-4.5424,-4.5571,-4.5745,-4.5491,-4.5211,-4.4877,-4.4409,-4.4115,-2.0053,0.0,0.0,0.0,0.0,0.0,0.0,0.0,0.0,0.0,0.0,0.0,0.0,0.0,0.0,0.0,0.0,-2.2078,-2.7187,-2.851,-2.8843,-2.8727,-3.0895,-3.3701,-3.7343,-3.7595,-3.7782,-3.8437,-3.7823,-3.7849,-3.8865,-3.624,-3.508,-3.6201,-3.285,-3.1425,-3.2168,-3.0976,-2.895,-2.5608,-2.4906,-2.2772,-1.9908,-2.3005,-2.5697,-2.8471,-3.2545,-3.5708,-3.797,-3.9217,-3.8352,-3.6307,-3.9274,-3.7482,-3.3505,-3.5976,-3.6956,-3.7237,-3.9713,-4.0481,-4.0481,-4.0481,-4.0481,-4.0481,-4.0481,-4.0481,-4.0508,-4.0735,-4.0655,-4.0588,-4.0989,-4.0949,-4.0949,-4.1523,-4.167,-4.1777,-4.2138,-4.2285,-4.2472,-4.2993,-4.3167,-4.3527,-4.4476,-4.477,-4.4917,-4.509,-4.5491,-4.5745,-4.5745,-4.5558,-4.5531,-4.5705,-4.5558,-4.5531,-4.5745,-4.5745,-4.5745,-4.5745,-4.5558,-4.5318,-4.5024,-4.5064,-4.5171,-4.5318,-4.5384,-4.5491,-4.5638,-4.5531,-4.5237,-4.473,-4.4409,-4.4155,0.0,0.0,0.0,-2.7826,0.0,0.0,0.0,0.0,-2.9717,0.0,0.0,0.0,0.0,0.0,0.0,0.0,0.0,0.0,0.0,-2.6482,-2.8038,-3.1881,-3.4236,-3.5883,-3.7275,-3.638,-3.6299,-3.7742,-3.6259,-3.6166,-3.8183,-3.5501,-3.5399,-3.9362,-3.6173,-3.5812,-3.8676,-3.5512,-3.2265,-2.896,-2.5857,-2.2772,-1.9908,-2.3005,-2.4434,-2.4915,-3.1095,-3.4088,-3.4821,-3.8255,-3.9773,-3.9813,-4.0361,-4.0468,-4.0225,-4.0238,-4.0454,-4.0454,-4.0468,-4.0481,-4.0481,-4.0481,-4.0481,-4.0481,-4.0481,-4.0481,-4.0481,-4.0481,-4.0481,-4.0481,-4.0508,-4.0508,-4.0628,-4.1229,-4.135,-4.1523,-4.2111,-4.2445,-4.2739,-4.302,-4.3314,-4.3634,-4.3968,-4.4516,-4.5064,-4.5638,-4.5745,-4.5745,-4.5745,-4.5745,-4.5745,-4.5745,-4.5745,-4.5745,-4.5745,-4.5745,-4.5745,-4.5745,-4.5745,-4.5598,-4.5318,-4.5571,-4.5598,-4.5318,-4.5598,-4.5598,-4.5318,-4.5064,-4.477,-4.4476,-4.473,-4.4556,0.0,0.0,-2.5526,-2.6023,0.0,0.0,0.0,0.0,0.0,0.0,0.0,0.0,0.0,0.0,0.0,0.0,0.0,0.0,0.0,-2.5441,-2.7991,-2.9893,-3.2559,-3.4242,-3.4442,-3.4469,-3.4763,-3.5444,-3.4576,-3.475,-3.6433,-3.6376,-3.7037,-3.8397,-3.7775,-3.784,-3.8584,-3.7464,-3.5194,-3.1796,-2.9036,-2.5785,-2.2606,-2.1767,-2.2522,-2.4683,-2.9091,-3.2318,-3.4572,-3.8462,-3.996,-4.0067,-4.0361,-4.0481,-4.0481,-4.0481,-4.0481,-4.0481,-4.0481,-4.0481,-4.0481,-4.0481,-4.0481,-4.0481,-4.0481,-4.0481,-4.0508,-4.0695,-4.0615,-4.0548,-4.0949,-4.0909,-4.0909,-4.1497,-4.1644,-4.175,-4.2138,-4.2445,-4.2739,-4.302,-4.3314,-4.3674,-4.4222,-4.4436,-4.473,-4.5104,-4.5491,-4.5678,-4.5491,-4.5451,-4.5451,-4.5451,-4.5451,-4.5531,-4.5745,-4.5745,-4.5665,-4.5465,-4.5451,-4.5318,-4.5024,-4.5131,-4.5211,-4.5318,-4.5424,-4.5491,-4.5598,-4.5318,-4.5024,-4.473,-4.4623,-4.4369,-1.8796,-2.1399,0.0,-2.5721,-2.7899,0.0,-3.0786,0.0,-3.1102,0.0,0.0,0.0,0.0,0.0,0.0,0.0,0.0,0.0,0.0,-2.3641,-2.6273,-2.8911,-3.1236,-3.2679,-3.2812,-3.2471,-3.2468,-3.3374,-3.2011,-3.2311,-3.4603,-3.6086,-3.7155,-3.7782,-3.8571,-3.8825,-3.8437,-3.8504,-3.6666,-3.316,-3.1386,-2.8159,-2.3833,-2.2127,-2.1729,-2.2918,-2.7386,-3.069,-3.3269,-3.7997,-4.0,-4.0214,-4.0401,-4.0481,-4.0481,-4.0481,-4.0481,-4.0481,-4.0481,-4.0481,-4.0481,-4.0481,-4.0481,-4.0481,-4.0481,-4.0481,-4.0588,-4.1096,-4.0949,-4.0802,-4.1483,-4.135,-4.1203,-4.167,-4.179,-4.1857,-4.2151,-4.2445,-4.2739,-4.302,-4.3314,-4.3674,-4.4182,-4.4369,-4.4543,-4.4837,-4.5197,-4.5384,-4.5171,-4.5171,-4.5171,-4.5171,-4.5237,-4.5424,-4.5705,-4.5745,-4.5678,-4.5491,-4.5451,-4.5384,-4.5197,-4.5197,-4.5318,-4.5611,-4.5531,-4.5558,-4.5745,-4.5451,-4.509,-4.473,-4.4516,-4.4289]}]]